Date StartTime U_cm/s V_cm/s W_cm/s Ustd_cm/s Vstd_cm/s Wstd_cm/s Uvar_(cm/s)^2 Vvar_(cm/s)^2 Wvar_(cm/s)^2 KE_(m/s)^2 TurbulentKE_(m/s)^2 HorizWindSpeed_cm/s FrictionSpeec_cm/s DragCoef SpeedOfSound_m/s SonicTemperature_C Pressure_mb 
06/23/2013  00:00:00      -68.701       -9.908       -6.953       38.159       16.053       13.081     1456.093      257.688      171.122        0.338        0.094       69.412       14.883        0.046      343.881       20.306      858.262
06/23/2013  00:01:00      -88.124      -39.977       -3.841       74.652       32.996       17.069     5572.989     1088.738      291.356        0.816        0.348       96.768       18.188        0.035      344.164       20.787      858.257
06/23/2013  00:02:00     -101.782        4.731       -9.488       71.865       59.484       37.099     5164.625     3538.343     1376.315        1.027        0.504      101.891       27.986        0.075      344.266       20.963      858.261
06/23/2013  00:03:00      -26.614       -3.354       19.203      106.242       46.088       34.206    11287.448     2124.070     1170.082        0.783        0.729       26.824       47.580        3.146      344.167       20.793      858.226
06/23/2013  00:04:00     -158.379      -45.863       -9.169       55.101       90.079       34.120     3036.163     8114.252     1164.155        1.979        0.616      164.885       21.357        0.017      344.113       20.699      858.224
06/23/2013  00:05:00     -108.777       74.643      -20.842       46.795       37.269       24.868     2189.768     1388.971      618.417        1.102        0.210      131.924       21.052        0.025      344.215       20.873      858.241
06/23/2013  00:06:00      -42.034        8.783       -2.332       43.900       19.694       11.252     1927.250      387.849      126.598        0.215        0.122       42.942       13.454        0.098      343.973       20.465      858.231
06/23/2013  00:07:00      -70.867      -52.825       -7.925       36.325       24.850       14.301     1319.490      617.508      204.512        0.501        0.107       88.389        8.816        0.010      343.892       20.325      858.221
06/23/2013  00:08:00      -49.084      -46.563        1.219       31.479       17.067       12.466      990.909      291.268      155.394        0.301        0.072       67.656       14.532        0.046      343.908       20.353      858.217
06/23/2013  00:09:00      -58.625      -24.189        1.867       31.933       29.898       18.092     1019.707      893.894      327.316        0.313        0.112       63.419       14.730        0.054      343.954       20.431      858.207
06/23/2013  00:10:00      -49.495        5.814        3.372       44.884       36.692       21.271     2014.596     1346.332      452.453        0.315        0.191       49.836       26.228        0.277      343.835       20.226      858.197
06/23/2013  00:11:00     -100.336       19.527        2.419       49.105       34.946       23.719     2411.333     1221.193      562.576        0.732        0.210      102.218       22.423        0.048      343.711       20.014      858.183
06/23/2013  00:12:00     -120.486      -90.179       -5.384       58.000       44.826       28.914     3363.994     2009.329      836.001        1.444        0.310      150.496       29.135        0.037      343.724       20.037      858.183
06/23/2013  00:13:00     -154.238      -43.750       -3.604       46.227       51.307       30.205     2136.954     2632.366      912.349        1.570        0.284      160.323       23.252        0.021      343.726       20.039      858.185
06/23/2013  00:14:00     -150.142      -60.268       -4.358       72.024       42.558       31.264     5187.483     1811.161      977.422        1.708        0.399      161.786       32.265        0.040      343.649       19.908      858.174
06/23/2013  00:15:00     -135.534      -26.061       -1.802       64.991       45.489       33.648     4223.846     2069.213     1132.201        1.324        0.371      138.017       35.262        0.065      343.581       19.793      858.169
06/23/2013  00:16:00     -132.429      -59.985        5.591       87.261       55.950       24.500     7614.474     3130.347      600.258        1.625        0.567      145.381       30.008        0.043      343.528       19.703      858.158
06/23/2013  00:17:00     -200.016      -69.799       -0.718       64.336       48.654       31.232     4139.177     2367.174      975.408        2.618        0.374      211.845       17.838        0.007      343.583       19.794      858.150
06/23/2013  00:18:00      -86.738      -47.174       -0.594       81.748       44.761       27.768     6682.685     2003.577      771.070        0.960        0.473       98.736       34.226        0.120      343.486       19.632      858.154
06/23/2013  00:19:00     -123.211      -64.238      -16.946       81.916       55.062       36.240     6710.239     3031.853     1313.338        1.532        0.553      138.951       28.735        0.043      343.517       19.682      858.158
06/23/2013  00:20:00     -242.026      -34.757      -14.219      105.899       80.780       43.517    11214.668     6525.449     1893.693        3.981        0.982      244.509       46.862        0.037      343.500       19.653      858.142
06/23/2013  00:21:00     -242.939      -32.825      -23.904       66.355       90.929       38.074     4402.998     8268.004     1449.602        3.739        0.706      245.147       28.786        0.014      343.489       19.634      858.136
06/23/2013  00:22:00     -192.119      -75.642       -4.474       86.861       72.180       38.374     7544.798     5209.997     1472.581        2.844        0.711      206.474       40.573        0.039      343.440       19.550      858.124
06/23/2013  00:23:00     -180.010        1.964      -14.292       88.229       84.651       46.198     7784.349     7165.718     2134.221        2.484        0.854      180.020       48.273        0.072      343.471       19.604      858.122
06/23/2013  00:24:00     -204.491       10.600      -13.606      115.430       92.573       50.033    13324.103     8569.794     2503.288        3.325        1.220      204.766       63.277        0.095      343.437       19.547      858.111
06/23/2013  00:25:00     -177.876      -53.156      -13.665       61.874       45.397       33.961     3828.396     2060.931     1153.358        2.085        0.352      185.648       19.207        0.011      343.402       19.486      858.108
06/23/2013  00:26:00     -198.809      -47.715      -14.989       60.471       56.540       35.244     3656.734     3196.827     1242.171        2.506        0.405      204.455       30.085        0.022      343.298       19.309      858.112
06/23/2013  00:27:00     -133.556      -45.307       -8.146       27.355       41.167       22.105      748.282     1694.682      488.649        1.144        0.147      141.031       13.766        0.010      343.179       19.108      858.107
06/23/2013  00:28:00     -189.624      -32.958      -10.023       38.592       31.946       15.966     1489.311     1020.567      254.922        1.995        0.138      192.467       13.379        0.005      343.052       18.891      858.119
06/23/2013  00:29:00     -160.777      -56.325      -13.870       45.920       45.464       24.171     2108.606     2066.956      584.220        1.699        0.238      170.357       22.414        0.017      343.058       18.902      858.118
06/23/2013  00:30:00     -101.100       28.837      -11.750       48.418       45.772       23.933     2344.335     2095.043      572.812        0.810        0.251      105.132       28.207        0.072      342.970       18.753      858.106
06/23/2013  00:31:00      -90.761       61.856      -23.866       33.782       52.296       15.689     1141.226     2734.821      246.132        0.838        0.206      109.835       22.068        0.040      343.138       19.038      858.108
06/23/2013  00:32:00      -32.523      -15.889       -5.915       38.434       30.486       19.640     1477.169      929.409      385.731        0.207        0.140       36.196       21.373        0.349      342.921       18.669      858.100
06/23/2013  00:33:00      -52.291       30.007        3.772       43.388       46.812       22.457     1882.504     2191.383      504.303        0.411        0.229       60.289       20.383        0.114      342.879       18.597      858.067
06/23/2013  00:34:00      -14.871        2.792       11.924       30.146       32.571       28.727      908.777     1060.891      825.261        0.158        0.140       15.131       21.136        1.951      342.894       18.622      858.063
06/23/2013  00:35:00     -129.962      112.543      -24.495       50.774       40.854       34.876     2578.029     1669.083     1216.339        1.781        0.273      171.919       28.387        0.027      343.047       18.884      858.043
06/23/2013  00:36:00     -120.281       67.606      -18.467       34.873       38.459       27.029     1216.112     1479.108      730.578        1.140        0.171      137.979       21.285        0.024      343.122       19.010      858.036
06/23/2013  00:37:00     -136.571        8.103       -5.672       39.541       35.925       22.403     1563.527     1290.619      501.906        1.105        0.168      136.811       22.557        0.027      342.979       18.767      858.049
06/23/2013  00:38:00      -85.335       25.160      -12.463       32.505       14.812       14.563     1056.557      219.408      212.092        0.478        0.074       88.966        7.781        0.008      342.786       18.441      858.051
06/23/2013  00:39:00      -98.862       26.799      -12.392       20.067       17.046       14.475      402.686      290.565      209.529        0.577        0.045      102.430        4.265        0.002      342.913       18.654      858.051
06/23/2013  00:40:00      -54.663       46.116       -8.417       36.241       26.905       17.503     1313.406      723.872      306.351        0.376        0.117       71.517       20.064        0.079      342.901       18.633      858.042
06/23/2013  00:41:00     -101.543       35.612      -16.288       21.913       35.137       12.219      480.177     1234.600      149.294        0.685        0.093      107.607       10.902        0.010      343.185       19.120      858.033
06/23/2013  00:42:00      -76.457        9.287      -10.172       36.878       29.072       16.519     1360.019      845.198      272.876        0.426        0.124       77.019       15.662        0.041      343.091       18.958      858.035
06/23/2013  00:43:00      -40.123       71.777       -4.838       63.882       51.291       34.231     4080.848     2630.793     1171.782        0.733        0.394       82.230       38.602        0.220      343.278       19.276      858.024
06/23/2013  00:44:00     -108.231       50.588      -25.800       29.235       42.697       22.208      854.658     1823.054      493.216        0.905        0.159      119.470       26.938        0.051      343.120       19.008      858.024
06/23/2013  00:45:00      -96.644       22.397      -14.580       28.815       32.921       16.962      830.313     1083.797      287.721        0.613        0.110       99.205       17.282        0.030      343.019       18.836      858.013
06/23/2013  00:46:00      -95.576        7.793       -8.406       33.029       29.381       19.802     1090.887      863.247      392.124        0.581        0.117       95.893       17.903        0.035      343.210       19.160      858.014
06/23/2013  00:47:00      -61.703       29.555       -5.265       26.132       26.004       16.701      682.866      676.201      278.911        0.317        0.082       68.416       13.634        0.040      343.308       19.328      858.018
06/23/2013  00:48:00      -76.952      -11.886       -5.051       35.593       39.700       17.305     1266.868     1576.095      299.476        0.461        0.157       77.864       16.973        0.048      343.190       19.129      858.017
06/23/2013  00:49:00      -48.259       -9.805        1.334       27.816       18.753       12.120      773.733      351.678      146.896        0.185        0.064       49.245       13.137        0.071      342.972       18.756      858.024
06/23/2013  00:50:00      -53.982        1.037       -1.578       28.162       17.626       14.352      793.122      310.682      205.971        0.211        0.065       53.992       11.058        0.042      343.176       19.103      858.008
06/23/2013  00:51:00      -59.953       16.429       -4.745       43.626       33.824       21.558     1903.261     1144.058      464.761        0.370        0.176       62.163       25.977        0.175      343.202       19.147      857.988
06/23/2013  00:52:00      -39.781       64.265        0.486       45.626       69.808       23.293     2081.686     4873.189      542.564        0.660        0.375       75.581       31.161        0.170      343.243       19.219      857.987
06/23/2013  00:53:00      -67.798       76.432       -6.023       27.651       39.341       22.964      764.598     1547.703      527.368        0.666        0.142      102.169       22.922        0.050      343.248       19.225      857.983
06/23/2013  00:54:00      -72.516      -17.451       -6.172       37.103       33.873       15.750     1376.626     1147.402      248.067        0.419        0.139       74.587       10.096        0.018      343.119       19.006      857.975
06/23/2013  00:55:00      -87.751      -38.764       -6.081       43.675       16.517       11.444     1907.479      272.811      130.962        0.578        0.116       95.931        7.552        0.006      342.960       18.735      857.982
06/23/2013  00:56:00      -85.791      -45.354       -5.635       21.276       15.385       10.434      452.674      236.687      108.865        0.512        0.040       97.041        7.286        0.006      342.979       18.770      857.980
06/23/2013  00:57:00      -94.298      -34.865       -7.547       14.656       21.417        9.812      214.811      458.693       96.275        0.547        0.038      100.537       10.425        0.011      342.948       18.714      857.979
06/23/2013  00:58:00     -105.985       43.108      -16.288       28.791       27.044       17.457      828.936      731.403      304.741        0.761        0.093      114.416       16.691        0.021      342.975       18.761      857.972
06/23/2013  00:59:00      -94.509       89.620      -15.789       43.147       43.631       23.151     1861.659     1903.665      535.977        1.076        0.215      130.245       22.925        0.031      343.035       18.863      857.977
06/23/2013  01:00:00      -93.297      106.971      -24.209       33.670       27.911       21.668     1133.637      779.019      469.489        1.156        0.119      141.940       16.107        0.013      342.976       18.763      857.969
06/23/2013  01:01:00      -35.827       75.198       -7.061       24.731       30.554       17.250      611.631      933.531      297.562        0.442        0.092       83.296       14.414        0.030      342.910       18.650      857.951
06/23/2013  01:02:00      -66.343       67.309      -17.982       21.920       31.375       15.956      480.498      984.418      254.593        0.549        0.086       94.509       11.335        0.014      342.995       18.794      857.945
06/23/2013  01:03:00      -72.318        0.508      -15.829       14.941       19.413       13.368      223.238      376.872      178.715        0.313        0.039       72.320        8.322        0.013      342.792       18.448      857.946
06/23/2013  01:04:00      -71.748        7.214       -4.780       25.572       23.844       14.518      653.904      568.543      210.776        0.333        0.072       72.110       13.757        0.036      342.678       18.254      857.944
06/23/2013  01:05:00      -69.331       -3.112       -2.761       29.463       18.183       11.384      868.082      330.614      129.592        0.308        0.066       69.401       10.730        0.024      342.678       18.257      857.940
06/23/2013  01:06:00      -34.573       -0.562       -3.203       19.108        7.679        6.829      365.112       58.972       46.635        0.084        0.024       34.578        7.849        0.052      342.717       18.323      857.930
06/23/2013  01:07:00      -19.371       32.672        1.843       32.993       35.765       15.898     1088.511     1279.151      252.735        0.203        0.131       37.983        8.503        0.050      342.839       18.530      857.935
06/23/2013  01:08:00      -43.102       11.851       -4.708       30.800       26.745       11.665      948.665      715.302      136.066        0.191        0.090       44.701        8.209        0.034      342.912       18.655      857.929
06/23/2013  01:09:00      -91.205      -13.081      -12.256       31.392       17.740       12.851      985.445      314.706      165.142        0.505        0.073       92.138       11.983        0.017      342.813       18.486      857.938
06/23/2013  01:10:00      -48.923      -14.045       -3.772       35.110       19.387       15.642     1232.723      375.857      244.681        0.223        0.093       50.899       17.954        0.124      342.555       18.047      857.931
06/23/2013  01:11:00      -24.319       32.061       -9.453       15.305       15.291        7.312      234.231      233.801       53.466        0.111        0.026       40.240        8.613        0.046      342.963       18.740      857.921
06/23/2013  01:12:00        4.233       18.335        3.198       16.461        9.868        6.734      270.979       97.371       45.347        0.039        0.021       18.818        7.368        0.153      342.997       18.798      857.913
06/23/2013  01:13:00      -15.786       16.323       -4.175       16.640       10.618        8.767      276.901      112.735       76.854        0.050        0.023       22.708        5.329        0.055      343.002       18.807      857.912
06/23/2013  01:14:00      -55.622       22.081      -11.847       12.321       10.330        8.363      151.809      106.717       69.946        0.203        0.016       59.844        3.765        0.004      342.641       18.192      857.911
06/23/2013  01:15:00      -24.930       35.988       -2.330       16.729       13.024        8.363      279.863      169.629       69.942        0.122        0.026       43.780        7.450        0.029      342.923       18.672      857.908
06/23/2013  01:16:00      -90.445       -6.995       -5.165       45.696       30.470       21.654     2088.101      928.444      468.881        0.587        0.174       90.716       14.278        0.025      342.741       18.362      857.914
06/23/2013  01:17:00      -78.777       23.503       -6.948       39.853       32.254       21.170     1588.233     1040.293      448.180        0.494        0.154       82.208       21.050        0.066      342.422       17.819      857.904
06/23/2013  01:18:00      -50.062       63.211      -19.171       32.475       25.370       15.646     1054.646      643.656      244.810        0.441        0.097       80.634       12.684        0.025      342.660       18.225      857.890
06/23/2013  01:19:00      -16.836       69.800       -8.893       32.351       22.446       23.372     1046.612      503.835      546.241        0.367        0.105       71.801       15.293        0.045      343.141       19.042      857.895
06/23/2013  01:20:00        8.664       29.272        6.340       15.144       20.155       13.580      229.339      406.222      184.416        0.090        0.041       30.528       12.560        0.169      342.920       18.669      857.912
06/23/2013  01:21:00       18.014       26.383        2.635       19.548       21.978       12.425      382.129      483.022      154.381        0.102        0.051       31.946        9.433        0.087      342.906       18.642      857.912
06/23/2013  01:22:00      -48.469      -20.208       -4.133       25.825       19.591       11.917      666.909      383.802      142.021        0.198        0.060       52.513        9.453        0.032      342.685       18.268      857.911
06/23/2013  01:23:00      -37.662       -6.979       -4.950       12.283       14.904       11.379      150.868      222.117      129.490        0.100        0.025       38.304        8.481        0.049      342.497       17.950      857.908
06/23/2013  01:24:00        3.665       12.006        0.003       17.761        9.618       10.511      315.461       92.514      110.475        0.034        0.026       12.553       10.578        0.710      342.633       18.180      857.912
06/23/2013  01:25:00      -44.064       53.399       -8.606       42.973       35.390       16.169     1846.653     1252.464      261.426        0.411        0.168       69.232       18.815        0.074      342.682       18.263      857.906
06/23/2013  01:26:00      -50.382       21.711       -7.904       14.677       24.388        9.993      215.424      594.794       99.860        0.199        0.046       54.861        5.117        0.009      342.592       18.109      857.888
06/23/2013  01:27:00      -46.549       74.211      -12.762       26.690       26.361       17.741      712.341      694.876      314.739        0.478        0.086       87.602       15.664        0.032      342.720       18.327      857.886
06/23/2013  01:28:00      -36.198       69.711       -9.337       33.800       37.452       14.354     1142.425     1402.653      206.023        0.450        0.138       78.549       15.513        0.039      342.730       18.344      857.886
06/23/2013  01:29:00      -45.548       15.532       -3.783       21.371       25.214        9.338      456.714      635.737       87.190        0.175        0.059       48.123        6.319        0.017      342.602       18.125      857.895
06/23/2013  01:30:00      -71.912       -7.637       -9.974       16.378       17.952       12.350      268.242      322.261      152.511        0.304        0.037       72.317        7.588        0.011      342.421       17.818      857.901
06/23/2013  01:31:00      -76.911       -2.341      -11.829       14.492       11.757       10.914      210.009      138.217      119.123        0.326        0.023       76.946        5.852        0.006      342.397       17.777      857.896
06/23/2013  01:32:00      -79.964       33.991       -9.598       25.667       28.063       15.610      658.776      787.545      243.685        0.467        0.085       86.889       14.271        0.027      342.599       18.122      857.883
06/23/2013  01:33:00      -97.034       52.290      -10.557       27.654       28.737       20.096      764.742      825.826      403.836        0.713        0.100      110.226       15.657        0.020      342.855       18.557      857.867
06/23/2013  01:34:00      -90.271       46.188      -12.574       36.400       36.426       20.523     1324.949     1326.845      421.205        0.676        0.154      101.401       23.069        0.052      342.788       18.442      857.868
06/23/2013  01:35:00      -89.369       36.469       -4.529       30.276       28.886       19.914      916.616      834.392      396.580        0.574        0.107       96.523       15.039        0.024      342.776       18.421      857.869
06/23/2013  01:36:00      -95.682        9.765       -5.989       25.691       20.560       14.219      660.013      422.713      202.176        0.529        0.064       96.179        6.966        0.005      342.586       18.099      857.850
06/23/2013  01:37:00      -72.811       22.502       -6.780       20.566       26.677       14.495      422.955      711.662      210.098        0.360        0.067       76.209        9.034        0.014      342.534       18.011      857.837
06/23/2013  01:38:00      -98.864       18.595       -7.634       28.354       22.726       18.724      803.966      516.475      350.596        0.592        0.084      100.598        8.607        0.007      342.704       18.298      857.828
06/23/2013  01:39:00      -85.481       49.277      -12.362       30.113       26.832       18.433      906.771      719.946      339.790        0.593        0.098       98.667       14.115        0.020      343.010       18.821      857.828
06/23/2013  01:40:00      -86.957       13.368       -8.948       20.924       22.925       18.232      437.834      525.539      332.392        0.456        0.065       87.979       16.934        0.037      342.701       18.293      857.817
06/23/2013  01:41:00      -86.761        2.530       -9.459       23.255       21.185       15.138      540.801      448.794      229.163        0.442        0.061       86.798       12.235        0.020      342.394       17.772      857.810
06/23/2013  01:42:00      -86.513       -1.305       -7.958       35.225       29.003       16.019     1240.829      841.167      256.617        0.494        0.117       86.523       13.894        0.026      342.595       18.114      857.807
06/23/2013  01:43:00      -87.945        3.843      -18.302       21.489       17.791       16.902      461.771      316.502      285.674        0.457        0.053       88.029       11.407        0.017      342.259       17.544      857.818
06/23/2013  01:44:00      -75.348       -1.816      -12.151       35.152       24.804       19.967     1235.696      615.215      398.663        0.404        0.112       75.370        8.165        0.012      342.310       17.629      857.811
06/23/2013  01:45:00     -101.951        9.091      -12.214       31.551       21.028       15.398      995.455      442.164      237.108        0.615        0.084      102.355       11.367        0.012      342.188       17.422      857.818
06/23/2013  01:46:00      -73.893       15.121       -8.364       23.041       21.425       14.349      530.904      459.041      205.890        0.348        0.060       75.424       10.302        0.019      342.379       17.748      857.820
06/23/2013  01:47:00      -91.346      -26.896      -10.786       18.983       19.241       13.313      360.357      370.225      177.227        0.505        0.045       95.224        8.389        0.008      342.261       17.546      857.823
06/23/2013  01:48:00      -82.163      -11.555        5.093       41.756       27.716       17.078     1743.544      768.203      291.671        0.486        0.140       82.972       21.866        0.069      342.164       17.382      857.823
06/23/2013  01:49:00      -39.459      -13.760        1.776       15.899       15.064       10.233      252.782      226.916      104.714        0.117        0.029       41.789        7.140        0.029      342.211       17.464      857.813
06/23/2013  01:50:00      -70.899      -32.473       -6.817       13.886        9.029        6.545      192.815       81.525       42.833        0.322        0.016       77.981        3.610        0.002      342.407       17.795      857.819
06/23/2013  01:51:00      -93.280      -26.908      -12.942       12.321       12.274        6.684      151.815      150.662       44.676        0.497        0.017       97.084        2.399        0.001      342.293       17.600      857.832
06/23/2013  01:52:00     -127.022      -35.969       -9.416       19.640       16.422       12.014      385.742      269.685      144.333        0.916        0.040      132.017        8.657        0.004      342.160       17.374      857.841
06/23/2013  01:53:00     -117.100      -27.959       -5.942       39.176       27.822       23.401     1534.759      774.050      547.623        0.869        0.143      120.392       21.322        0.031      341.885       16.908      857.854
06/23/2013  01:54:00      -99.557      -43.731       -7.339       33.673       29.005       16.752     1133.861      841.274      280.638        0.707        0.113      108.739       13.594        0.016      341.830       16.816      857.862
06/23/2013  01:55:00      -55.808      -23.868       -3.368       23.664       25.230       14.362      560.005      636.576      206.270        0.255        0.070       60.697        5.994        0.010      341.887       16.910      857.862
06/23/2013  01:56:00      -76.828        0.363      -15.214       23.126       16.091       11.398      534.792      258.936      129.920        0.353        0.046       76.829       11.702        0.023      341.903       16.939      857.850
06/23/2013  01:57:00     -109.184       30.078      -14.956       51.837       28.807       19.597     2687.100      829.846      384.028        0.847        0.195      113.251       15.164        0.018      341.991       17.088      857.847
06/23/2013  01:58:00      -77.391       22.016       -8.286       33.414       27.307       24.724     1116.506      745.671      611.264        0.451        0.124       80.462       23.043        0.082      342.057       17.200      857.843
06/23/2013  01:59:00      -82.928       10.079       -8.526       26.257       27.159       15.936      689.418      737.630      253.959        0.437        0.084       83.539       13.017        0.024      342.039       17.168      857.833
06/23/2013  02:00:00     -101.099        4.515      -12.402       41.328       33.425       24.570     1708.007     1117.221      603.692        0.691        0.171      101.199       20.100        0.039      341.917       16.962      857.826
06/23/2013  02:01:00      -84.704        9.697      -11.210       41.744       24.168       15.616     1742.563      584.074      243.852        0.498        0.129       85.257       10.143        0.014      341.839       16.830      857.828
06/23/2013  02:02:00     -123.408       18.405      -14.255       53.859       27.030       16.570     2900.840      730.647      274.572        0.984        0.195      124.773       12.608        0.010      342.186       17.419      857.825
06/23/2013  02:03:00     -105.557       33.445      -12.983       33.539       44.533       13.646     1124.860     1983.220      186.221        0.786        0.165      110.729       13.244        0.014      342.380       17.750      857.827
06/23/2013  02:04:00      -99.451       39.510       -7.906       35.903       24.661       15.851     1289.040      608.165      251.253        0.683        0.107      107.012       12.802        0.014      342.788       18.441      857.807
06/23/2013  02:05:00     -103.340       39.297      -10.194       39.930       25.093       21.608     1594.422      629.652      466.888        0.751        0.135      110.559       18.037        0.027      342.765       18.402      857.799
06/23/2013  02:06:00      -83.194      -33.571        1.787       43.303       36.253       19.078     1875.127     1314.244      363.988        0.580        0.178       89.712       20.597        0.053      342.538       18.018      857.795
06/23/2013  02:07:00      -87.720      -41.350        5.444       43.560       50.827       21.654     1897.508     2583.413      468.914        0.719        0.247       96.978       20.362        0.044      342.606       18.133      857.788
06/23/2013  02:08:00      -98.006      -40.809       -2.941       38.781       26.491       19.475     1503.988      701.757      379.277        0.693        0.129      106.163       20.879        0.039      342.434       17.842      857.779
06/23/2013  02:09:00      -72.918      -11.955        0.657       28.967       27.128       17.781      839.060      735.952      316.161        0.368        0.095       73.892       18.983        0.066      342.352       17.703      857.783
06/23/2013  02:10:00     -115.634        9.558       -9.300       22.677       18.477       11.891      514.230      341.393      141.401        0.727        0.050      116.029        7.015        0.004      342.113       17.296      857.770
06/23/2013  02:11:00     -123.033       -4.940       -8.314       35.502       32.417       17.058     1260.412     1050.867      290.991        0.892        0.130      123.133       16.698        0.018      342.261       17.547      857.756
06/23/2013  02:12:00      -79.297      -13.357       -5.896       25.872       22.562       18.023      669.377      509.025      324.825        0.400        0.075       80.414       13.704        0.029      342.153       17.362      857.750
06/23/2013  02:13:00     -105.647      -10.135       -5.638       38.506       26.307       20.740     1482.746      692.054      430.152        0.695        0.130      106.132       23.314        0.048      342.214       17.467      857.733
06/23/2013  02:14:00      -64.962      -33.761        4.875       31.911       23.551       17.379     1018.321      554.638      302.014        0.363        0.094       73.211       17.801        0.059      342.072       17.226      857.717
06/23/2013  02:15:00      -91.499       -8.341       -4.356       19.963       14.596       12.918      398.518      213.047      166.880        0.462        0.039       91.878        7.950        0.007      342.050       17.187      857.705
06/23/2013  02:16:00      -96.071      -27.282       -4.374       19.716       20.604       11.762      388.738      424.542      138.352        0.547        0.048       99.870       10.696        0.011      342.047       17.183      857.703
06/23/2013  02:17:00      -85.135      -31.017       -2.465       23.513       23.396       11.720      552.866      547.382      137.360        0.473        0.062       90.609       11.283        0.016      342.060       17.205      857.700
06/23/2013  02:18:00      -58.908      -20.062        6.103       27.089       25.607       13.942      733.806      655.736      194.375        0.275        0.079       62.230       17.917        0.083      342.050       17.188      857.693
06/23/2013  02:19:00     -128.142      -37.421       -9.491       23.845       19.397       10.483      568.582      376.230      109.900        0.948        0.053      133.494        8.462        0.004      342.100       17.275      857.702
06/23/2013  02:20:00     -105.559      -18.758       -1.443       35.355       25.836       13.725     1249.994      667.515      188.380        0.680        0.105      107.213       14.135        0.017      341.980       17.070      857.709
06/23/2013  02:21:00      -67.591      -51.672        3.916       30.292       25.124       16.862      917.629      631.225      284.319        0.454        0.092       85.079       13.871        0.027      342.128       17.320      857.714
06/23/2013  02:22:00      -73.524      -55.634        4.271       48.342       29.544       19.539     2336.916      872.837      381.782        0.605        0.180       92.201       23.949        0.067      342.415       17.808      857.707
06/23/2013  02:23:00      -27.644      -49.495        1.338       31.612       27.116       20.890      999.322      735.292      436.397        0.269        0.109       56.691       18.508        0.107      342.238       17.506      857.694
06/23/2013  02:24:00      -77.574      -94.901        3.455       58.292       48.099       33.562     3397.913     2313.539     1126.439        1.094        0.342      122.572       37.651        0.094      342.213       17.464      857.681
06/23/2013  02:25:00      -98.591      -81.819       11.704       79.072       50.046       35.907     6252.425     2504.602     1289.311        1.330        0.502      128.120       46.634        0.132      342.234       17.499      857.666
06/23/2013  02:26:00     -104.689     -100.556        7.853       65.824       70.253       33.762     4332.774     4935.418     1139.847        1.577        0.520      145.160       34.800        0.057      342.417       17.809      857.658
06/23/2013  02:27:00     -146.165      -78.337        8.470       74.752       60.844       39.650     5587.830     3702.005     1572.105        1.922        0.543      165.834       32.383        0.038      342.382       17.751      857.660
06/23/2013  02:28:00      -89.785      -61.348       13.236       79.967       60.205       35.590     6394.766     3624.599     1266.658        1.164        0.564      108.743       39.287        0.131      342.418       17.812      857.651
06/23/2013  02:29:00      -87.500      -57.894        9.571       64.604       55.059       31.697     4173.666     3031.444     1004.690        0.965        0.410      104.919       31.324        0.089      342.357       17.710      857.652
06/23/2013  02:30:00     -117.154      -76.826        5.617       57.854       51.067       30.708     3347.098     2607.815      943.006        1.328        0.345      140.098       30.737        0.048      342.355       17.707      857.655
06/23/2013  02:31:00      -94.491      -69.869        7.539       59.441       47.993       34.013     3533.285     2303.318     1156.876        1.043        0.350      117.517       30.672        0.068      342.326       17.657      857.664
06/23/2013  02:32:00      -89.594      -41.706       -0.932       40.702       38.912       21.020     1656.624     1514.171      441.849        0.669        0.181       98.826       18.785        0.036      342.074       17.231      857.657
06/23/2013  02:33:00      -43.070      -42.011        9.105       52.552       31.963       20.229     2761.713     1021.612      409.197        0.395        0.210       60.166       26.446        0.193      342.101       17.275      857.643
06/23/2013  02:34:00      -43.557      -18.286        5.695       27.474       16.771       16.508      754.795      281.282      272.503        0.179        0.065       47.240       15.962        0.114      342.049       17.187      857.636
06/23/2013  02:35:00      -47.614       -4.709       -0.081       18.514       17.057       13.451      342.772      290.932      180.932        0.155        0.041       47.846        6.837        0.020      341.837       16.827      857.639
06/23/2013  02:36:00      -49.546      -25.630        1.351       26.886       18.045       11.768      722.878      325.627      138.492        0.215        0.059       55.783       13.492        0.059      341.959       17.033      857.639
06/23/2013  02:37:00      -13.737      -33.002       -4.223       17.454       16.301        6.777      304.647      265.708       45.923        0.096        0.031       35.747        4.360        0.015      342.055       17.197      857.631
06/23/2013  02:38:00      -26.446      -45.714       -2.556       19.150       37.106       13.132      366.725     1376.888      172.455        0.236        0.096       52.813        9.541        0.033      342.038       17.167      857.627
06/23/2013  02:39:00      -58.957      -60.111       -2.622       43.893       54.351       18.159     1926.570     2954.074      329.747        0.615        0.261       84.198       22.687        0.073      342.092       17.260      857.618
06/23/2013  02:40:00      -42.821      -23.343        9.904       26.199       26.315       16.362      686.363      692.493      267.717        0.206        0.082       48.770       15.984        0.107      341.814       16.786      857.617
06/23/2013  02:41:00      -58.066      -38.077        3.444       46.762       30.227       17.806     2186.672      913.669      317.056        0.412        0.171       69.437       21.819        0.099      341.850       16.849      857.615
06/23/2013  02:42:00      -96.115      -48.819        1.977       52.888       38.620       20.995     2797.105     1491.487      440.776        0.818        0.236      107.802       22.965        0.045      341.812       16.786      857.604
06/23/2013  02:43:00      -92.854      -67.384        4.293       47.092       33.683       22.778     2217.654     1134.574      518.837        0.853        0.194      114.727       25.585        0.050      341.819       16.797      857.585
06/23/2013  02:44:00     -116.176     -101.561        8.034       69.846       51.706       36.977     4878.465     2673.547     1367.289        1.640        0.446      154.309       36.541        0.056      341.833       16.819      857.563
06/23/2013  02:45:00     -167.546     -136.883       -2.068       80.040       53.702       36.734     6406.332     2883.948     1349.393        2.872        0.532      216.353       44.025        0.041      342.091       17.256      857.558
06/23/2013  02:46:00     -178.634     -126.503        3.780       85.358       58.326       50.354     7285.974     3401.894     2535.554        3.057        0.661      218.891       53.971        0.061      342.080       17.235      857.542
06/23/2013  02:47:00     -151.288     -124.995       -0.741       96.862       65.900       46.977     9382.166     4342.828     2206.825        2.722        0.797      196.244       56.095        0.082      342.009       17.114      857.525
06/23/2013  02:48:00     -131.328     -112.249       -5.610       59.800       53.747       32.455     3576.039     2888.713     1053.350        1.870        0.376      172.763       32.864        0.036      341.963       17.040      857.499
06/23/2013  02:49:00      -91.891      -59.360        9.377       47.288       42.334       26.516     2236.126     1792.139      703.107        0.839        0.237      109.397       21.995        0.040      341.898       16.930      857.476
06/23/2013  02:50:00      -96.766     -123.549       -5.904       64.393       52.904       30.672     4146.408     2798.792      940.743        1.627        0.394      156.933       30.282        0.037      341.849       16.847      857.459
06/23/2013  02:51:00     -128.514     -122.075       -7.425       46.040       50.221       28.418     2119.653     2522.175      807.592        1.846        0.272      177.252       23.077        0.017      341.788       16.741      857.439
06/23/2013  02:52:00     -153.759     -101.438      -11.116       41.065       46.650       26.628     1686.372     2176.227      709.051        1.931        0.229      184.205       21.227        0.013      341.808       16.777      857.419
06/23/2013  02:53:00     -115.776      -62.215       -4.161       50.826       50.118       23.666     2583.238     2511.781      560.059        1.147        0.283      131.433       24.670        0.035      341.717       16.623      857.421
06/23/2013  02:54:00      -83.002      -74.606        2.890       55.679       37.644       23.907     3100.149     1417.041      571.546        0.878        0.254      111.604       28.470        0.065      341.711       16.613      857.413
06/23/2013  02:55:00     -165.292      -70.388       -1.569       51.566       41.530       26.466     2659.005     1724.722      700.448        1.868        0.254      179.655       25.440        0.020      341.688       16.574      857.397
06/23/2013  02:56:00     -105.163      -68.283       10.572       51.869       54.715       30.098     2690.423     2993.758      905.890        1.121        0.330      125.387       34.845        0.077      341.729       16.645      857.379
06/23/2013  02:57:00      -96.162      -51.667       -0.737       44.276       30.908       16.790     1960.374      955.317      281.916        0.756        0.160      109.163       13.385        0.015      341.716       16.622      857.372
06/23/2013  02:58:00      -61.566      -30.214        0.440       26.425       29.683       15.563      698.269      881.058      242.211        0.326        0.091       68.581       10.644        0.024      341.649       16.508      857.366
06/23/2013  02:59:00      -83.220       -5.367       -3.134       33.522       27.717       17.550     1123.729      768.250      307.995        0.458        0.110       83.393       15.711        0.035      341.397       16.080      857.351
06/23/2013  03:00:00      -87.282      -11.559        2.896       43.434       30.615       21.666     1886.495      937.287      469.396        0.553        0.165       88.044       23.336        0.070      341.342       15.989      857.335
06/23/2013  03:01:00      -68.607       -5.373       -1.064       33.339       24.863       19.256     1111.468      618.150      370.800        0.342        0.105       68.817       13.570        0.039      341.318       15.946      857.339
06/23/2013  03:02:00      -77.300        2.669       -4.788       19.969       17.555        9.246      398.779      308.189       85.491        0.340        0.040       77.346        7.426        0.009      341.298       15.915      857.346
06/23/2013  03:03:00      -50.281      -19.430       -4.100       19.995       15.559       12.658      399.782      242.095      160.216        0.186        0.040       53.904        7.536        0.020      341.388       16.065      857.340
06/23/2013  03:04:00      -42.330      -23.622       -8.631       26.127       17.223       10.251      682.645      296.648      105.093        0.175        0.054       48.475       10.981        0.051      341.383       16.057      857.344
06/23/2013  03:05:00      -85.335      -46.281       -4.734       20.368       22.705       15.057      414.874      515.505      226.717        0.530        0.058       97.077       12.386        0.016      341.325       15.958      857.351
06/23/2013  03:06:00      -70.932      -52.098       -2.673       34.603       25.360       19.861     1197.399      643.144      394.444        0.499        0.112       88.009       18.267        0.043      341.304       15.925      857.355
06/23/2013  03:07:00      -97.967      -42.422       -2.521       22.005       16.240       11.491      484.221      263.727      132.043        0.614        0.044      106.758       11.773        0.012      341.238       15.813      857.354
06/23/2013  03:08:00      -81.549      -44.101       -7.902       38.410       26.617       16.878     1475.338      708.484      284.869        0.556        0.123       92.710       17.315        0.035      341.324       15.957      857.352
06/23/2013  03:09:00      -84.216      -63.395       -1.176       28.352       28.925       17.536      803.857      836.683      307.494        0.653        0.097      105.410       12.358        0.014      341.314       15.942      857.341
06/23/2013  03:10:00     -116.584      -32.175       -4.914       28.550       19.674       14.127      815.083      387.057      199.579        0.803        0.070      120.942       14.758        0.015      341.291       15.902      857.341
06/23/2013  03:11:00      -83.317      -70.860       -0.973       25.817       22.892       16.823      666.509      524.025      283.009        0.672        0.074      109.375       12.565        0.013      341.486       16.233      857.339
06/23/2013  03:12:00      -28.335      -25.365        8.535       38.642       21.376       16.080     1493.204      456.924      258.571        0.186        0.110       38.029       19.356        0.259      341.479       16.219      857.340
06/23/2013  03:13:00      -45.764      -47.095        0.891       24.902       29.895       15.255      620.120      893.683      232.725        0.303        0.087       65.668       15.399        0.055      341.395       16.077      857.345
06/23/2013  03:14:00      -38.985      -71.620       -2.647       22.046       32.997       20.337      486.040     1088.805      413.587        0.432        0.099       81.543       16.028        0.039      341.402       16.091      857.347
06/23/2013  03:15:00      -68.182      -52.673       -1.831       19.936       44.594       14.752      397.434     1988.606      217.611        0.501        0.130       86.158       11.320        0.017      341.389       16.067      857.349
06/23/2013  03:16:00      -72.649      -66.794       -4.994       52.053       49.324       24.052     2709.551     2432.906      578.491        0.774        0.286       98.688       18.854        0.036      341.413       16.108      857.350
06/23/2013  03:17:00      -66.055      -25.162        7.445       31.556       52.354       25.437      995.785     2740.972      647.018        0.472        0.219       70.685       21.465        0.092      341.342       15.989      857.338
06/23/2013  03:18:00     -106.852     -124.298       -4.788       69.632       48.114       28.837     4848.600     2314.996      831.595        1.744        0.400      163.913       36.705        0.050      341.247       15.828      857.360
06/23/2013  03:19:00      -55.757     -105.395        8.995       76.770       83.078       42.356     5893.558     6901.885     1794.058        1.444        0.729      119.234       41.842        0.123      341.155       15.670      857.360
06/23/2013  03:20:00      -60.930      -75.655       12.716       83.044       63.779       41.715     6896.388     4067.767     1740.129        1.115        0.635       97.140       36.255        0.139      341.109       15.594      857.352
06/23/2013  03:21:00      -10.003      -58.450       17.801       40.918       55.405       39.060     1674.320     3069.680     1525.712        0.505        0.313       59.300       26.435        0.199      341.093       15.567      857.353
06/23/2013  03:22:00       -6.456      -36.892       22.048       45.732       30.849       26.066     2091.378      951.641      679.445        0.280        0.186       37.452       22.409        0.358      341.084       15.552      857.358
06/23/2013  03:23:00      -28.113      -33.776       25.088       39.602       48.688       34.831     1568.279     2370.489     1213.217        0.386        0.258       43.945       28.154        0.410      341.136       15.639      857.337
06/23/2013  03:24:00        0.950      -55.775       14.963       36.811       66.235       28.052     1355.074     4387.070      786.919        0.493        0.326       55.784       20.866        0.140      341.204       15.755      857.327
06/23/2013  03:25:00      -59.702      -71.196       -4.735       69.365       50.421       23.673     4811.542     2542.280      560.418        0.828        0.396       92.915       23.236        0.063      341.330       15.969      857.318
06/23/2013  03:26:00      -31.029      -73.383       -1.190       54.466       42.265       23.658     2966.582     1786.370      559.705        0.583        0.266       79.674       17.597        0.049      341.216       15.776      857.318
06/23/2013  03:27:00      -57.038      -97.025       -6.335       45.556       39.604       23.185     2075.315     1568.471      537.567        0.844        0.209      112.549       13.418        0.014      341.359       16.016      857.295
06/23/2013  03:28:00      -33.908      -99.146       -8.034       33.529       44.632       19.966     1124.213     1992.033      398.650        0.728        0.176      104.784        6.290        0.004      341.344       15.990      857.283
06/23/2013  03:29:00      -21.093     -138.545        6.486       35.186       69.559       34.052     1238.041     4838.501     1159.546        1.346        0.362      140.141       27.939        0.040      341.301       15.919      857.275
06/23/2013  03:30:00      -46.543     -117.534        2.399       40.835       45.084       23.375     1667.537     2032.589      546.379        1.012        0.212      126.414       16.324        0.017      341.407       16.098      857.262
06/23/2013  03:31:00      -31.449      -32.412        7.076       34.482       28.467       22.490     1189.006      810.365      505.810        0.230        0.125       45.162       16.500        0.133      341.315       15.943      857.272
06/23/2013  03:32:00      -44.663      -37.988       -0.253       39.579       39.034       18.018     1566.500     1523.691      324.648        0.343        0.171       58.633       12.246        0.044      341.193       15.736      857.277
06/23/2013  03:33:00      -78.525      -92.040       -2.180       37.416       29.360       17.542     1399.965      862.035      307.735        0.861        0.128      120.986       16.196        0.018      341.228       15.795      857.266
06/23/2013  03:34:00      -88.995     -120.221       -7.863       32.181       44.153       19.736     1035.597     1949.466      389.522        1.290        0.169      149.577       18.007        0.014      341.217       15.776      857.255
06/23/2013  03:35:00      -80.533      -88.872       -3.925       42.692       39.292       25.127     1822.606     1543.875      631.370        0.920        0.200      119.932       23.189        0.037      341.268       15.863      857.239
06/23/2013  03:36:00      -77.224      -65.529        6.767       45.383       30.942       30.115     2059.640      957.426      906.924        0.711        0.196      101.280       27.707        0.075      341.242       15.821      857.230
06/23/2013  03:37:00     -105.522     -100.153        1.709       47.781       33.690       26.367     2283.048     1135.033      695.203        1.264        0.206      145.483       25.201        0.030      341.227       15.794      857.251
06/23/2013  03:38:00     -100.451      -43.544       -0.641       34.981       42.966       21.884     1223.645     1846.114      478.892        0.777        0.177      109.483       18.346        0.028      341.176       15.708      857.268
06/23/2013  03:39:00      -86.716        4.128       -2.328       41.088       28.208       24.796     1688.228      795.674      614.845        0.532        0.155       86.814       16.308        0.035      340.937       15.303      857.278
06/23/2013  03:40:00      -59.891      -27.107        0.975       36.785       25.786       18.196     1353.173      664.902      331.112        0.334        0.117       65.740       21.099        0.103      340.854       15.161      857.286
06/23/2013  03:41:00      -84.310       -8.585       -3.165       61.911       18.362       20.261     3832.913      337.153      410.494        0.589        0.229       84.746       29.407        0.120      340.974       15.366      857.298
06/23/2013  03:42:00     -109.770       -4.299       -1.855       48.847       32.171       26.331     2386.000     1034.942      693.329        0.809        0.206      109.854       26.575        0.059      341.004       15.417      857.296
06/23/2013  03:43:00      -73.844       -8.605        1.764       54.841       27.292       22.541     3007.494      744.874      508.083        0.489        0.213       74.343       25.427        0.117      340.922       15.278      857.279
06/23/2013  03:44:00     -130.636      -47.081       -4.558       37.139       42.986       20.420     1379.274     1847.825      416.976        1.147        0.182      138.861       20.904        0.023      341.036       15.470      857.269
06/23/2013  03:45:00     -117.788      -19.013       -3.431       33.597       31.441       19.788     1128.755      988.556      391.564        0.838        0.125      119.313       16.694        0.020      341.069       15.528      857.265
06/23/2013  03:46:00     -133.754      -46.103       -2.479       26.549       27.324       19.427      704.829      746.621      377.406        1.093        0.091      141.477       15.281        0.012      341.100       15.577      857.251
06/23/2013  03:47:00     -102.611      -39.931        1.330       45.983       28.469       15.051     2114.472      810.458      226.543        0.764        0.158      110.106       18.028        0.027      341.111       15.598      857.224
06/23/2013  03:48:00      -81.602      -68.729        7.963       45.465       37.226       24.794     2067.077     1385.785      614.757        0.776        0.203      106.690       24.480        0.053      341.127       15.624      857.216
06/23/2013  03:49:00      -77.051      -81.361        4.239       49.454       36.166       32.100     2445.718     1308.012     1030.435        0.868        0.239      112.056       27.200        0.059      341.021       15.446      857.200
06/23/2013  03:50:00     -101.081      -57.427        4.567       37.745       37.424       22.427     1424.713     1400.527      502.949        0.843        0.166      116.255       19.172        0.027      341.042       15.480      857.185
06/23/2013  03:51:00      -67.018      -50.237        0.260       49.355       38.451       22.904     2435.948     1478.487      524.615        0.573        0.222       83.757       19.840        0.056      341.047       15.489      857.177
06/23/2013  03:52:00      -51.154      -38.806        1.439       28.707       29.114       18.287      824.073      847.597      334.397        0.306        0.100       64.208       14.142        0.049      341.036       15.470      857.175
06/23/2013  03:53:00      -71.136      -25.032        3.800       26.159       17.621       16.058      684.281      310.513      257.859        0.348        0.063       75.411       12.367        0.027      341.057       15.506      857.177
06/23/2013  03:54:00      -53.453      -12.762       -1.236       24.200       19.451       11.656      585.654      378.359      135.872        0.206        0.055       54.955        5.084        0.009      340.997       15.404      857.168
06/23/2013  03:55:00      -58.638      -25.403       -4.149       26.707       29.336       14.209      713.285      860.610      201.886        0.294        0.089       63.904        8.619        0.018      341.004       15.417      857.154
06/23/2013  03:56:00      -75.524       12.840       -3.757       23.652       11.509       11.899      559.424      132.468      141.576        0.336        0.042       76.608        5.814        0.006      340.876       15.200      857.146
06/23/2013  03:57:00      -54.834       15.511       -0.902       19.801       15.427       13.341      392.060      237.982      177.979        0.203        0.040       56.985        6.795        0.014      340.807       15.081      857.135
06/23/2013  03:58:00      -71.253        0.182       -6.273       14.987       11.863        9.438      224.621      140.724       89.084        0.279        0.023       71.253        6.446        0.008      340.874       15.194      857.125
06/23/2013  03:59:00      -45.304      -12.104       -5.421        9.050       10.786        7.323       81.901      116.339       53.631        0.124        0.013       46.893        5.777        0.015      340.900       15.240      857.104
06/23/2013  04:00:00      -62.495      -29.915       -0.055       23.046       16.259       11.949      531.136      264.353      142.769        0.287        0.047       69.286        8.092        0.014      340.964       15.349      857.094
06/23/2013  04:01:00      -42.727      -38.729        5.643       44.763       35.106       27.318     2003.735     1232.407      746.255        0.367        0.199       57.667       26.351        0.209      340.828       15.119      857.094
06/23/2013  04:02:00      -76.261      -63.390        4.475       61.390       30.671       30.628     3768.776      940.705      938.051        0.775        0.282       99.167       33.573        0.115      340.752       14.988      857.105
06/23/2013  04:03:00      -70.592      -56.060        5.608       48.078       39.156       23.194     2311.537     1533.162      537.971        0.627        0.219       90.144       25.268        0.079      340.835       15.130      857.101
06/23/2013  04:04:00      -91.388      -41.066       -2.215       15.456       18.486       13.223      238.875      341.715      174.852        0.540        0.038      100.191        9.436        0.009      340.754       14.993      857.102
06/23/2013  04:05:00      -67.103      -32.337        5.382       34.807       22.988       19.695     1211.555      528.426      387.883        0.385        0.106       74.489       17.194        0.053      340.703       14.907      857.100
06/23/2013  04:06:00      -45.359      -40.753        2.499       53.305       32.967       22.865     2841.392     1086.836      522.805        0.409        0.223       60.978       24.920        0.167      340.711       14.920      857.101
06/23/2013  04:07:00     -108.420      -73.797       -5.507       43.900       26.239       20.105     1927.236      688.510      404.217        1.012        0.151      131.152       17.478        0.018      340.772       15.024      857.094
06/23/2013  04:08:00      -76.433      -52.212        2.695       42.657       34.601       26.947     1819.656     1197.250      726.143        0.616        0.187       92.564       17.799        0.037      340.702       14.906      857.085
06/23/2013  04:09:00      -72.121      -60.888        8.175       43.575       35.135       22.481     1898.750     1234.478      505.406        0.631        0.182       94.386       16.275        0.030      340.773       15.023      857.076
06/23/2013  04:10:00      -32.041      -59.023        3.981       32.046       34.660       22.038     1026.943     1201.336      485.690        0.362        0.136       67.159       17.028        0.064      340.873       15.193      857.074
06/23/2013  04:11:00      -21.084      -45.633       -0.297       35.769       28.642       17.033     1279.425      820.349      290.137        0.246        0.119       50.269       15.791        0.099      340.929       15.288      857.069
06/23/2013  04:12:00      -87.227      -58.601       -4.369       38.627       36.359       25.750     1492.030     1321.953      663.045        0.727        0.174      105.084       15.842        0.023      340.787       15.050      857.062
06/23/2013  04:13:00      -75.428      -52.137       -5.847       35.362       29.808       21.080     1250.457      888.517      444.364        0.551        0.129       91.693        9.489        0.011      340.825       15.112      857.052
06/23/2013  04:14:00      -73.898      -24.510       -7.827       31.269       13.622       13.478      977.772      185.554      181.660        0.373        0.067       77.856        9.989        0.016      340.839       15.135      857.056
06/23/2013  04:15:00     -120.353      -59.179       -6.862       36.154       24.451       20.919     1307.126      597.844      437.599        1.019        0.117      134.116       15.547        0.013      340.706       14.913      857.065
06/23/2013  04:16:00      -14.936      -31.751       15.746       33.724       28.768       23.523     1137.293      827.613      553.333        0.200        0.126       35.089       20.038        0.326      340.662       14.837      857.065
06/23/2013  04:17:00      -73.640      -57.502       -2.480       28.080       19.463       17.824      788.484      378.803      317.693        0.511        0.074       93.431       17.266        0.034      340.794       15.061      857.055
06/23/2013  04:18:00      -59.229      -62.091        2.026       38.525       33.994       19.661     1484.208     1155.567      386.569        0.520        0.151       85.810       17.829        0.043      340.759       15.002      857.057
06/23/2013  04:19:00     -100.310      -78.742        5.544       65.892       58.759       29.414     4341.777     3452.655      865.205        1.247        0.433      127.524       28.378        0.050      340.697       14.898      857.050
06/23/2013  04:20:00     -138.140      -61.998       -8.148       33.451       46.281       21.632     1118.980     2141.940      467.953        1.336        0.186      151.414       22.143        0.021      340.545       14.639      857.034
06/23/2013  04:21:00      -82.557      -48.366        6.846       48.172       31.012       16.609     2320.558      961.764      275.861        0.638        0.178       95.681       17.381        0.033      340.573       14.686      857.023
06/23/2013  04:22:00      -48.459      -56.333        6.293       46.415       24.737       19.676     2154.352      611.913      387.143        0.436        0.158       74.308       21.677        0.085      340.666       14.846      857.019
06/23/2013  04:23:00      -53.151      -68.915        5.962       59.963       59.079       22.582     3595.617     3490.310      509.935        0.760        0.380       87.030       20.103        0.053      340.648       14.814      857.015
06/23/2013  04:24:00      -33.529     -156.741        9.974       53.164       64.728       38.227     2826.453     4189.723     1461.277        1.713        0.424      160.287       36.638        0.052      340.782       15.039      857.010
06/23/2013  04:25:00      -23.588      -92.622       -5.349       57.117       65.371       36.030     3262.308     4273.387     1298.148        0.900        0.442       95.578       27.852        0.085      340.893       15.227      857.006
06/23/2013  04:26:00     -106.220      -62.623       -0.808       65.634       43.724       28.692     4307.784     1911.831      823.211        1.112        0.352      123.306       16.363        0.018      340.738       14.966      857.017
06/23/2013  04:27:00     -110.972       -8.452        5.730       42.619       47.402       27.780     1816.361     2246.941      771.744        0.863        0.242      111.294       21.499        0.037      340.471       14.516      857.015
06/23/2013  04:28:00      -83.767        0.222       -9.034       39.705       23.756       14.222     1576.455      564.337      202.262        0.472        0.117       83.768       15.880        0.036      340.380       14.360      856.994
06/23/2013  04:29:00      -95.740       -6.076       -0.168       36.526       26.527       19.038     1334.177      703.683      362.438        0.580        0.120       95.932       16.941        0.031      340.376       14.353      856.976
06/23/2013  04:30:00     -135.720      -56.514       -7.411       34.714       30.200       18.806     1205.036      912.055      353.647        1.207        0.124      147.016       15.821        0.012      340.433       14.450      856.959
06/23/2013  04:31:00      -43.951      -36.420        5.929       35.816       21.235       19.508     1282.787      450.919      380.556        0.270        0.106       57.080       22.664        0.158      340.436       14.453      856.942
06/23/2013  04:32:00      -98.408      -32.388       -2.151       49.156       38.990       17.203     2416.268     1520.248      295.939        0.748        0.212      103.601       22.744        0.048      340.437       14.458      856.922
06/23/2013  04:33:00     -143.212      -45.948      -11.978       24.443       26.377       12.134      597.455      695.732      147.240        1.210        0.072      150.402        7.567        0.003      340.489       14.545      856.920
06/23/2013  04:34:00      -88.352      -31.810       -0.864       45.432       25.813       15.967     2064.087      666.325      254.943        0.590        0.149       93.904       19.815        0.045      340.424       14.435      856.922
06/23/2013  04:35:00      -79.916      -38.395        3.325       27.036       24.985       14.795      730.938      624.262      218.882        0.472        0.079       88.661       13.043        0.022      340.422       14.431      856.924
06/23/2013  04:36:00      -86.689      -44.544        1.010       38.056       27.582       19.322     1448.254      760.760      373.356        0.604        0.129       97.464       20.055        0.042      340.418       14.425      856.917
06/23/2013  04:37:00     -107.427      -45.353       -2.213       39.302       25.545       22.451     1544.667      652.567      504.039        0.815        0.135      116.608       22.653        0.038      340.431       14.446      856.931
06/23/2013  04:38:00     -122.481      -39.142       -3.956       29.054       25.186       16.700      844.150      634.342      278.890        0.915        0.088      128.583       13.862        0.012      340.421       14.430      856.952
06/23/2013  04:39:00     -128.385      -55.176       -4.078       21.949       19.686       12.916      481.776      387.556      166.814        1.029        0.052      139.740        5.103        0.001      340.418       14.424      856.955
06/23/2013  04:40:00     -109.746      -49.282        0.322       36.366       17.603       20.820     1322.503      309.870      433.473        0.827        0.103      120.304       20.849        0.030      340.499       14.562      856.953
06/23/2013  04:41:00     -122.097      -57.110       -4.025       31.741       29.833       20.794     1007.474      890.010      432.382        1.026        0.116      134.793       20.255        0.023      340.529       14.613      856.948
06/23/2013  04:42:00     -117.193      -56.135       -1.923       39.463       26.822       20.736     1557.335      719.420      429.967        0.980        0.135      129.944       20.532        0.025      340.543       14.635      856.953
06/23/2013  04:43:00      -54.332      -70.308        6.749       47.429       34.273       25.112     2249.536     1174.612      630.626        0.600        0.203       88.854       22.808        0.066      340.535       14.623      856.947
06/23/2013  04:44:00      -57.751      -53.256       -1.780       36.322       21.187       18.481     1319.290      448.878      341.532        0.414        0.105       78.558       19.914        0.064      340.510       14.581      856.939
06/23/2013  04:45:00      -50.168      -98.532       -7.212       30.998       29.383       15.986      960.855      863.375      255.556        0.718        0.104      110.569       14.420        0.017      340.490       14.543      856.947
06/23/2013  04:46:00      -39.719      -63.762       -0.285       41.254       34.990       20.027     1701.928     1224.277      401.093        0.448        0.166       75.121       14.110        0.035      340.516       14.590      856.959
06/23/2013  04:47:00      -47.686      -64.855       -1.610       61.521       31.235       28.175     3784.819      975.639      793.839        0.602        0.278       80.499       24.993        0.096      340.528       14.610      856.967
06/23/2013  04:48:00      -79.771      -61.758        3.943       75.964       52.308       30.024     5770.521     2736.115      901.468        0.980        0.470      100.883       30.788        0.093      340.420       14.427      856.971
06/23/2013  04:49:00      -25.287      -64.325       17.078       52.024       45.570       34.232     2706.472     2076.656     1171.830        0.551        0.298       69.117       31.286        0.205      340.389       14.376      856.968
06/23/2013  04:50:00      -69.645      -97.698      -11.537       43.483       59.529       24.877     1890.796     3543.741      618.847        1.029        0.303      119.980       20.466        0.029      340.345       14.303      856.961
06/23/2013  04:51:00      -69.906      -40.054        6.471       64.346       32.620       28.692     4140.440     1064.087      823.233        0.628        0.301       80.568       28.789        0.128      340.250       14.139      856.952
06/23/2013  04:52:00     -111.170      -58.764       -2.541       53.220       32.994       27.905     2832.324     1088.581      778.694        1.026        0.235      125.746       28.275        0.051      340.149       13.970      856.945
06/23/2013  04:53:00     -107.909        8.732       -9.214       30.665       28.813       17.815      940.331      830.171      317.390        0.695        0.104      108.262       16.017        0.022      340.100       13.887      856.923
06/23/2013  04:54:00      -99.034        7.865       -2.178       34.222       23.866       15.414     1171.142      569.567      237.588        0.593        0.099       99.346        7.074        0.005      340.072       13.839      856.894
06/23/2013  04:55:00      -86.716      -17.374       -2.718       30.268       29.718       18.602      916.176      883.153      346.023        0.499        0.107       88.439       15.978        0.033      340.070       13.836      856.885
06/23/2013  04:56:00      -91.555      -53.490        0.318       35.427       24.693       20.108     1255.103      609.758      404.326        0.676        0.113      106.035       19.957        0.035      340.123       13.926      856.882
06/23/2013  04:57:00     -132.204      -50.597       -9.347       29.886       27.074       14.498      893.173      732.997      210.206        1.098        0.092      141.555       12.364        0.008      340.175       14.013      856.874
06/23/2013  04:58:00     -106.059      -29.006       -6.740       40.575       42.296       23.336     1646.331     1788.972      544.579        0.806        0.199      109.954       23.018        0.044      340.089       13.870      856.862
06/23/2013  04:59:00      -58.750      -15.835        6.240       44.294       34.343       23.132     1961.929     1179.447      535.084        0.371        0.184       60.847       20.825        0.117      339.939       13.616      856.865
06/23/2013  05:00:00      -74.427      -19.885       -1.371       48.146       31.413       21.118     2317.996      986.795      445.962        0.484        0.188       77.038       20.474        0.071      339.963       13.658      856.851
06/23/2013  05:01:00     -118.393       15.366       -9.175       39.535       32.067       19.519     1562.984     1028.276      380.994        0.865        0.149      119.386       16.716        0.020      340.044       13.792      856.832
06/23/2013  05:02:00      -65.285      -18.111       -6.445       25.165       21.088       14.438      633.281      444.707      208.454        0.296        0.064       67.750       13.833        0.042      340.022       13.757      856.817
06/23/2013  05:03:00      -68.166      -12.590        4.807       28.191       26.679       18.504      794.732      711.783      342.383        0.334        0.092       69.319       17.173        0.061      340.069       13.836      856.799
06/23/2013  05:04:00      -56.884      -17.273        4.910       36.518       33.279       24.156     1333.584     1107.517      583.527        0.329        0.151       59.449       20.158        0.115      340.101       13.891      856.784
06/23/2013  05:05:00      -14.761      -40.877       12.727       65.699       24.703       30.665     4316.350      610.236      940.359        0.396        0.293       43.460       37.876        0.760      340.131       13.939      856.779
06/23/2013  05:06:00      -41.098      -23.634        7.983       39.445       24.846       16.572     1555.890      617.338      274.634        0.238        0.122       47.409       18.998        0.161      340.039       13.785      856.780
06/23/2013  05:07:00      -63.801      -38.673        1.351       34.674       14.848       15.022     1202.277      220.463      225.665        0.361        0.082       74.607        7.279        0.010      340.006       13.729      856.787
06/23/2013  05:08:00      -95.820      -29.262       -3.871       23.247       25.554       16.440      540.439      653.018      270.264        0.576        0.073      100.189       12.445        0.015      339.871       13.502      856.791
06/23/2013  05:09:00      -53.656      -49.704        6.251       37.344       26.210       16.934     1394.568      686.962      286.761        0.388        0.118       73.140       14.130        0.037      340.017       13.749      856.793
06/23/2013  05:10:00      -56.476      -56.133        9.865       45.355       33.160       26.032     2057.067     1099.561      677.653        0.514        0.192       79.627       24.347        0.093      339.989       13.701      856.792
06/23/2013  05:11:00     -125.053      -85.610       -9.195       41.298       46.402       28.421     1705.552     2153.151      807.770        1.386        0.233      151.549       19.961        0.017      339.988       13.699      856.807
06/23/2013  05:12:00     -136.507      -85.678        3.822       48.855       29.806       27.909     2386.768      888.398      778.935        1.502        0.203      161.167       26.192        0.026      339.960       13.651      856.811
06/23/2013  05:13:00     -110.788      -60.018        4.397       54.204       32.757       19.531     2938.037     1072.990      381.473        1.014        0.220      126.001       18.362        0.021      339.942       13.621      856.804
06/23/2013  05:14:00     -118.417      -69.506       -1.994       46.118       40.239       23.096     2126.884     1619.189      533.440        1.157        0.214      137.309       16.013        0.014      339.923       13.589      856.800
06/23/2013  05:15:00      -96.219      -77.917        3.234       42.394       31.084       25.238     1797.243      966.211      636.958        0.937        0.170      123.810       24.630        0.040      339.912       13.572      856.802
06/23/2013  05:16:00     -101.997      -38.424       -3.991       29.788       30.387       20.116      887.299      923.384      404.646        0.706        0.111      108.994       18.628        0.029      339.889       13.532      856.782
06/23/2013  05:17:00     -122.439      -19.592       -2.627       42.977       26.253       21.297     1847.034      689.216      453.583        0.919        0.149      123.997       23.923        0.037      339.807       13.396      856.759
06/23/2013  05:18:00     -146.390      -51.102       -9.648       30.297       20.376       16.919      917.897      415.178      286.242        1.288        0.081      155.053       15.711        0.010      339.817       13.410      856.743
06/23/2013  05:19:00     -115.872      -48.620       -6.406       32.963       32.996       18.145     1086.532     1088.705      329.240        0.917        0.125      125.659       13.169        0.011      339.795       13.373      856.735
06/23/2013  05:20:00     -160.713        1.393      -20.343       30.212       23.839       19.996      912.771      568.281      399.855        1.406        0.094      160.719       16.838        0.011      339.758       13.311      856.738
06/23/2013  05:21:00     -131.409        4.713      -14.392       43.129       34.243       20.946     1860.140     1172.597      438.719        1.048        0.174      131.494       18.531        0.020      339.669       13.160      856.725
06/23/2013  05:22:00     -129.090        6.041      -13.750       49.405       40.171       28.451     2440.842     1613.708      809.487        1.088        0.243      129.232       28.200        0.048      339.786       13.358      856.716
06/23/2013  05:23:00     -110.051      -12.734       -7.018       44.655       41.574       27.419     1994.108     1728.358      751.805        0.840        0.224      110.785       23.132        0.044      339.878       13.513      856.704
06/23/2013  05:24:00     -124.775       33.917       -3.010       57.833       36.999       28.853     3344.628     1368.909      832.515        1.114        0.277      129.303       23.896        0.034      339.937       13.612      856.703
06/23/2013  05:25:00      -85.546       18.342       -6.903       51.418       27.365       20.035     2643.816      748.824      401.381        0.575        0.190       87.490       21.381        0.060      339.903       13.555      856.699
06/23/2013  05:26:00      -98.614       -5.307       -8.481       22.920       35.489       20.874      525.321     1259.436      435.734        0.602        0.111       98.757       15.074        0.023      340.007       13.731      856.694
06/23/2013  05:27:00      -83.528      -34.382       -1.613       39.006       31.478       16.979     1521.487      990.844      288.281        0.548        0.140       90.327        7.906        0.008      339.907       13.563      856.696
06/23/2013  05:28:00     -102.609      -25.649        0.384       39.934       19.937       15.592     1594.749      397.500      243.105        0.671        0.112      105.766        8.956        0.007      339.865       13.491      856.717
06/23/2013  05:29:00     -102.192      -45.057       -4.669       29.098       30.019       16.251      846.674      901.143      264.097        0.725        0.101      111.684        7.725        0.005      339.889       13.531      856.728
06/23/2013  05:30:00     -102.305      -49.612       -7.743       40.888       29.153       23.963     1671.820      849.888      574.203        0.804        0.155      113.700       11.015        0.009      339.828       13.429      856.728
06/23/2013  05:31:00      -71.926      -40.226        3.410       37.662       27.748       20.295     1418.431      769.937      411.884        0.470        0.130       82.410       16.937        0.042      339.881       13.519      856.729
06/23/2013  05:32:00      -54.382      -41.774        0.316       37.407       33.632       25.610     1399.271     1131.120      655.877        0.394        0.159       68.575       27.195        0.157      339.995       13.710      856.724
06/23/2013  05:33:00      -45.772      -38.185        2.559       33.414       26.547       20.622     1116.524      704.742      425.250        0.290        0.112       59.608       19.575        0.108      340.026       13.762      856.719
06/23/2013  05:34:00      -74.469      -79.267       13.620       54.522       43.993       29.337     2972.687     1935.392      860.635        0.889        0.288      108.761       27.714        0.065      340.018       13.749      856.709
06/23/2013  05:35:00     -118.354      -69.170        3.702       56.992       37.739       29.311     3248.116     1424.207      859.120        1.217        0.277      137.084       29.557        0.046      340.026       13.764      856.703
06/23/2013  05:36:00      -89.125      -60.310        2.724       36.358       33.829       24.443     1321.939     1144.377      597.458        0.733        0.153      107.613       22.664        0.044      339.951       13.637      856.698
06/23/2013  05:37:00      -88.872      -52.614       -1.874       32.322       33.240       20.328     1044.721     1104.911      413.245        0.662        0.128      103.279       16.175        0.025      339.970       13.668      856.701
06/23/2013  05:38:00      -76.596      -56.063       -0.598       42.676       29.766       21.874     1821.211      885.998      478.468        0.610        0.159       94.921       18.665        0.039      339.893       13.540      856.698
06/23/2013  05:39:00      -44.506      -21.746        8.767       31.646       19.052       18.144     1001.486      362.974      329.202        0.211        0.085       49.534       17.535        0.125      339.929       13.598      856.693
06/23/2013  05:40:00      -77.151       -7.605       -5.996       27.722       30.220       18.028      768.507      913.240      325.001        0.403        0.100       77.525       15.530        0.040      339.859       13.479      856.695
06/23/2013  05:41:00      -91.656      -25.254       -0.655       35.184       30.771       20.408     1237.899      946.867      416.475        0.582        0.130       95.072       19.646        0.043      339.744       13.287      856.701
06/23/2013  05:42:00      -78.325      -56.661       -1.555       34.899       27.845       15.948     1217.926      775.346      254.327        0.580        0.112       96.671       11.854        0.015      339.873       13.506      856.688
06/23/2013  05:43:00      -16.666      -36.485       10.663       29.186       14.243       16.759      851.802      202.868      280.849        0.153        0.067       40.111       16.644        0.172      339.974       13.676      856.676
06/23/2013  05:44:00      -37.118      -48.276        8.970       43.059       36.356       21.776     1854.096     1321.750      474.181        0.372        0.183       60.896       22.290        0.134      340.070       13.836      856.668
06/23/2013  05:45:00     -100.496      -87.000      -10.419       29.620       29.141       14.247      877.361      849.176      202.987        0.985        0.096      132.923       13.389        0.010      340.085       13.861      856.664
06/23/2013  05:46:00      -97.516      -63.030        2.137       54.247       29.667       19.593     2942.760      880.107      383.888        0.885        0.210      116.113       23.003        0.039      340.103       13.892      856.666
06/23/2013  05:47:00     -126.224      -92.522       -4.288       52.623       42.207       30.076     2769.138     1781.430      904.589        1.498        0.273      156.502       21.604        0.019      340.074       13.844      856.685
06/23/2013  05:48:00     -100.845      -51.431       -8.156       34.381       40.946       26.350     1182.053     1676.594      694.310        0.822        0.178      113.202       24.478        0.047      340.011       13.739      856.694
06/23/2013  05:49:00     -119.563      -43.766       -6.671       21.892       20.834       14.976      479.273      434.051      224.289        0.870        0.057      127.322       12.471        0.010      339.995       13.710      856.692
06/23/2013  05:50:00      -59.924      -53.697        7.999       44.429       24.835       24.397     1973.929      616.801      595.211        0.486        0.159       80.463       26.564        0.109      340.005       13.727      856.690
06/23/2013  05:51:00      -60.314      -44.897       -3.332       31.021       18.177       15.672      962.318      330.409      245.599        0.360        0.077       75.190       10.937        0.021      340.010       13.735      856.686
06/23/2013  05:52:00      -27.753      -32.401       13.808       34.834       20.701       20.465     1213.436      428.520      418.808        0.204        0.103       42.662       17.844        0.175      340.180       14.022      856.684
06/23/2013  05:53:00      -40.270      -32.807        6.921       31.583       28.629       21.312      997.510      819.638      454.181        0.251        0.114       51.943       18.394        0.125      340.115       13.914      856.676
06/23/2013  05:54:00      -60.784      -45.795        5.659       50.325       31.799       23.209     2532.583     1011.159      538.652        0.495        0.204       76.104       27.175        0.128      340.143       13.960      856.669
06/23/2013  05:55:00      -78.800      -53.623        3.232       41.634       26.230       17.760     1733.424      688.037      315.433        0.592        0.137       95.315       21.450        0.051      340.049       13.800      856.674
06/23/2013  05:56:00      -83.988      -52.769        0.064       49.216       26.888       18.893     2422.199      722.986      356.959        0.667        0.175       99.190       22.977        0.054      340.096       13.883      856.671
06/23/2013  05:57:00     -114.532      -59.281       -2.397       20.792       20.733       14.023      432.314      429.842      196.644        0.885        0.053      128.964        9.973        0.006      340.015       13.743      856.684
06/23/2013  05:58:00     -105.129      -35.103       -4.817       20.579       18.176       13.557      423.505      330.355      183.805        0.662        0.047      110.835        9.931        0.008      339.965       13.660      856.699
06/23/2013  05:59:00      -70.568      -33.759        3.543       50.596       21.617       17.036     2559.969      467.310      290.240        0.472        0.166       78.227       20.680        0.070      339.975       13.678      856.703
06/23/2013  06:00:00     -109.280      -33.630       -1.254       25.958       27.693       15.830      673.829      766.917      250.587        0.738        0.085      114.337       13.490        0.014      339.954       13.641      856.694
06/23/2013  06:01:00      -34.517      -23.180       10.678       37.099       17.085       15.200     1376.314      291.881      231.050        0.187        0.095       41.578       16.972        0.167      339.989       13.700      856.681
06/23/2013  06:02:00      -51.877      -35.541       -0.665       38.476       19.950       14.720     1480.411      397.993      216.672        0.302        0.105       62.884        9.506        0.023      340.023       13.756      856.673
06/23/2013  06:03:00      -82.285      -42.758       -6.100       23.958       20.352       13.975      573.971      414.207      195.308        0.491        0.059       92.731        8.309        0.008      339.999       13.717      856.669
06/23/2013  06:04:00      -97.786      -59.598      -12.467       18.375       17.744       15.415      337.643      314.861      237.610        0.708        0.045      114.516       11.054        0.009      339.990       13.703      856.667
06/23/2013  06:05:00      -82.939      -65.489       -3.839       28.364       18.973       18.013      804.505      359.982      324.456        0.634        0.074      105.677       14.419        0.019      339.938       13.615      856.668
06/23/2013  06:06:00      -68.879      -36.286       -1.001       16.981       18.314       12.484      288.353      335.391      155.841        0.342        0.039       77.852        6.351        0.007      340.037       13.782      856.673
06/23/2013  06:07:00      -82.622      -17.803       -1.650       27.198       27.803       16.530      739.730      772.985      273.245        0.447        0.089       84.518       13.312        0.025      339.942       13.621      856.685
06/23/2013  06:08:00      -79.280      -15.885       -3.859       21.305       18.848       15.738      453.904      355.234      247.684        0.380        0.053       80.856       11.213        0.019      339.979       13.683      856.699
06/23/2013  06:09:00      -98.020      -25.955       -2.294       15.459       14.709       10.642      238.977      216.348      113.254        0.543        0.028      101.398        6.604        0.004      339.963       13.658      856.716
06/23/2013  06:10:00      -96.436      -29.601        2.967       17.507       18.176       10.495      306.492      330.375      110.146        0.547        0.037      100.876        4.626        0.002      340.004       13.727      856.717
06/23/2013  06:11:00      -65.302      -31.028       -7.706       31.187       16.412       13.620      972.631      269.362      185.493        0.336        0.071       72.299       11.719        0.026      339.971       13.670      856.722
06/23/2013  06:12:00      -62.268      -40.436       -0.540       27.797       21.549       12.171      772.652      464.350      148.125        0.345        0.069       74.246       13.785        0.034      339.967       13.663      856.726
06/23/2013  06:13:00      -72.773      -35.583       -5.183       22.482       15.681       12.632      505.434      245.880      159.564        0.375        0.046       81.007        6.878        0.007      340.019       13.752      856.721
06/23/2013  06:14:00      -70.350      -33.644       -7.160       20.585       14.838       10.481      423.733      220.153      109.847        0.344        0.038       77.981        9.500        0.015      340.013       13.741      856.706
06/23/2013  06:15:00      -81.284      -19.746       -3.907       17.256       12.893       11.065      297.766      166.235      122.432        0.380        0.029       83.648       10.086        0.015      339.907       13.563      856.696
06/23/2013  06:16:00      -94.525      -10.115       -8.068       17.200       18.218       13.312      295.838      331.903      177.222        0.495        0.040       95.065        7.800        0.007      339.916       13.576      856.685
06/23/2013  06:17:00      -98.452      -34.708       -4.819       20.108       16.549       10.356      404.329      273.863      107.257        0.585        0.039      104.391        6.859        0.004      339.934       13.609      856.671
06/23/2013  06:18:00      -53.350      -31.476        8.284       48.090       16.671       18.393     2312.659      277.912      338.320        0.342        0.146       61.944       25.284        0.167      339.904       13.559      856.672
06/23/2013  06:19:00      -67.803      -72.864        0.107       36.971       23.011       20.030     1366.891      529.513      401.198        0.610        0.115       99.531       19.249        0.037      339.927       13.596      856.667
06/23/2013  06:20:00      -94.078      -83.722       -2.170       24.814       26.703       20.098      615.716      713.049      403.923        0.880        0.087      125.937       17.444        0.019      339.903       13.555      856.661
06/23/2013  06:21:00      -89.691      -79.925       -6.109       29.533       40.106       17.298      872.183     1608.476      299.206        0.862        0.139      120.135       13.430        0.012      339.897       13.545      856.657
06/23/2013  06:22:00      -91.197      -70.229       -3.447       25.672       33.459       20.672      659.068     1119.526      427.322        0.773        0.110      115.104       13.747        0.014      339.881       13.518      856.654
06/23/2013  06:23:00      -81.811      -61.954       -5.368       38.292       33.739       16.421     1466.314     1138.290      269.662        0.672        0.144      102.622       19.639        0.037      339.853       13.471      856.650
06/23/2013  06:24:00      -94.396      -63.712       -2.242       35.871       32.376       23.958     1286.741     1048.176      574.003        0.794        0.145      113.885       20.644        0.033      339.796       13.376      856.639
06/23/2013  06:25:00      -84.706      -41.122        3.423       38.596       28.859       22.613     1489.648      832.829      511.352        0.586        0.142       94.160       19.605        0.043      339.824       13.423      856.636
06/23/2013  06:26:00      -54.481      -34.446        5.749       41.972       23.655       17.579     1761.626      559.571      309.027        0.341        0.132       64.457       12.013        0.035      339.834       13.440      856.635
06/23/2013  06:27:00      -22.430      -19.583        7.401       30.648       22.147       17.638      939.290      490.489      311.087        0.134        0.087       29.776       14.115        0.225      339.919       13.584      856.638
06/23/2013  06:28:00      -51.246      -37.068        3.651       38.133       25.523       18.781     1454.137      651.447      352.734        0.324        0.123       63.247       19.456        0.095      339.924       13.592      856.630
06/23/2013  06:29:00      -89.676      -74.174       -8.774       23.399       26.665       16.415      547.510      711.036      269.463        0.757        0.076      116.377       10.846        0.009      339.904       13.557      856.626
06/23/2013  06:30:00      -37.800      -43.729        2.846       21.322       18.862       15.570      454.627      355.761      242.429        0.220        0.053       57.802       11.123        0.037      339.936       13.612      856.616
06/23/2013  06:31:00      -64.351      -65.545      -12.822       26.328       20.158       17.385      693.169      406.360      302.245        0.500        0.070       91.854       10.299        0.013      339.931       13.604      856.608
06/23/2013  06:32:00      -68.487      -72.451       -6.495       23.631       21.574       18.027      558.406      465.417      324.961        0.567        0.067       99.698       13.415        0.018      339.891       13.535      856.611
06/23/2013  06:33:00      -61.817      -67.000        0.894       36.148       28.028       23.662     1306.681      785.563      559.913        0.548        0.133       91.161       23.544        0.067      339.914       13.574      856.612
06/23/2013  06:34:00      -58.356      -47.676        3.556       26.045       27.830       20.972      678.318      774.508      439.804        0.379        0.095       75.355       17.474        0.054      340.010       13.737      856.614
06/23/2013  06:35:00      -57.148      -54.646       -0.127       21.736       20.580       16.307      472.440      423.523      265.905        0.371        0.058       79.070        9.182        0.013      340.029       13.768      856.625
06/23/2013  06:36:00      -50.841      -51.102       -5.394       26.922       21.761       15.548      724.814      473.555      241.739        0.333        0.072       72.085       10.102        0.020      340.070       13.837      856.630
06/23/2013  06:37:00      -56.029      -54.551       -3.354       27.834       30.556       17.330      774.754      933.689      300.339        0.407        0.100       78.199       16.038        0.042      340.067       13.833      856.647
06/23/2013  06:38:00      -70.816      -51.030        0.801       27.102       18.477       15.420      734.521      341.393      237.783        0.447        0.066       87.287       11.627        0.018      340.131       13.939      856.659
06/23/2013  06:39:00      -71.471      -26.495       -2.342       13.575       16.704       11.759      184.273      279.017      138.273        0.321        0.030       76.224        7.200        0.009      340.184       14.029      856.667
06/23/2013  06:40:00      -27.971      -22.735        0.258       27.070       19.946       15.173      732.760      397.859      230.234        0.133        0.068       36.045       15.893        0.194      340.334       14.281      856.663
06/23/2013  06:41:00      -10.994      -32.572        2.216       20.739       22.695       13.342      430.109      515.062      178.000        0.115        0.056       34.378       11.158        0.105      340.276       14.184      856.660
06/23/2013  06:42:00      -30.492      -38.515        4.636       26.821       20.633       15.539      719.370      425.720      241.475        0.191        0.069       49.123       14.693        0.089      340.311       14.244      856.658
06/23/2013  06:43:00      -33.406      -60.263        6.103       22.510       30.098       17.286      506.717      905.874      298.800        0.325        0.086       68.903       15.332        0.050      340.284       14.198      856.648
06/23/2013  06:44:00      -21.580      -43.673        3.925       21.800       30.392       14.353      475.238      923.673      206.002        0.200        0.080       48.713       13.125        0.073      340.394       14.385      856.652
06/23/2013  06:45:00      -14.994      -22.828        6.845       22.207       26.923       14.343      493.145      724.821      205.708        0.111        0.071       27.312        8.756        0.103      340.485       14.537      856.654
06/23/2013  06:46:00      -27.738        0.494        7.064       16.463       19.724       12.750      271.041      389.047      162.558        0.082        0.041       27.743        8.040        0.084      340.543       14.637      856.655
06/23/2013  06:47:00      -19.577      -32.711       -0.412       13.664       23.067       14.977      186.703      532.100      224.297        0.120        0.047       38.122        8.626        0.051      340.595       14.724      856.642
06/23/2013  06:48:00      -20.821       -1.434       18.835       13.695       16.299       12.915      187.553      265.667      166.787        0.071        0.031       20.871        9.873        0.224      340.976       15.369      856.641
06/23/2013  06:49:00      -13.736        2.095       16.003       13.397       15.154       17.129      179.478      229.657      293.391        0.058        0.035       13.895        9.827        0.500      341.114       15.602      856.625
06/23/2013  06:50:00      -34.212       -0.888        1.564        9.915       11.637       11.919       98.301      135.426      142.060        0.077        0.019       34.224       10.266        0.090      340.539       14.629      856.614
06/23/2013  06:51:00      -23.481       -9.200        4.379       13.874       16.101       11.964      192.485      259.254      143.128        0.062        0.030       25.219        9.191        0.133      340.749       14.984      856.595
06/23/2013  06:52:00      -24.754      -10.408        4.463       12.774       12.303       10.372      163.166      151.355      107.571        0.058        0.021       26.853        4.592        0.029      340.745       14.978      856.580
06/23/2013  06:53:00      -26.461      -24.198        8.095       18.567       15.034       10.684      344.747      226.021      114.142        0.102        0.034       35.857        9.530        0.071      340.705       14.911      856.575
06/23/2013  06:54:00      -50.658      -29.324        1.621       29.850       18.137       13.808      891.045      328.959      190.670        0.242        0.071       58.533        9.372        0.026      340.591       14.717      856.574
06/23/2013  06:55:00        0.327       -7.710       19.805       18.462       11.140       15.101      340.852      124.089      228.045        0.057        0.035        7.717        9.000        1.360      341.120       15.613      856.576
06/23/2013  06:56:00      -33.426      -36.476        0.329       25.603       26.841       15.564      655.529      720.432      242.254        0.203        0.081       49.476       13.363        0.073      340.637       14.795      856.572
06/23/2013  06:57:00      -23.714       -9.237       -2.233       19.034       19.498       10.874      362.287      380.156      118.238        0.076        0.043       25.449        8.469        0.111      340.704       14.909      856.565
06/23/2013  06:58:00      -13.413       -2.206       -3.739       25.093       23.026       14.111      629.678      530.177      199.116        0.078        0.068       13.593       10.726        0.623      340.834       15.129      856.567
06/23/2013  06:59:00      -43.876      -19.028        5.937       21.987       21.719       18.472      483.426      471.722      341.221        0.181        0.065       47.824       14.321        0.090      340.774       15.028      856.575
06/23/2013  07:00:00      -52.356      -38.746        1.295       37.110       24.992       18.269     1377.161      624.586      333.751        0.329        0.117       65.134       20.532        0.099      340.883       15.212      856.580
06/23/2013  07:01:00      -23.574      -39.866        9.613       27.187       22.659       19.938      739.160      513.432      397.528        0.194        0.083       46.314       18.540        0.160      341.031       15.462      856.579
06/23/2013  07:02:00      -33.810      -33.795       -1.569       18.065       19.768       11.284      326.327      390.791      127.327        0.157        0.042       47.804       10.255        0.046      340.812       15.089      856.567
06/23/2013  07:03:00      -59.990      -59.051       -5.523       20.913       15.693       13.477      437.363      246.279      181.617        0.399        0.043       84.177       11.077        0.017      340.825       15.111      856.558
06/23/2013  07:04:00      -45.497      -61.436       -1.150       31.907       26.169       16.601     1018.077      684.824      275.598        0.391        0.099       76.448       12.609        0.027      340.886       15.218      856.549
06/23/2013  07:05:00      -79.306      -53.655      -11.643       33.941       38.356       18.998     1151.962     1471.177      360.926        0.614        0.149       95.752       21.684        0.051      340.894       15.230      856.530
06/23/2013  07:06:00      -75.801      -26.223       -2.911       34.299       28.526       18.810     1176.445      813.715      353.817        0.439        0.117       80.208       10.501        0.017      341.007       15.419      856.513
06/23/2013  07:07:00      -54.728      -25.193       10.172       35.836       34.635       19.500     1284.201     1199.570      380.241        0.330        0.143       60.248       18.840        0.098      341.161       15.681      856.492
06/23/2013  07:08:00      -12.705       24.761       41.627       25.375       23.739       15.681      643.913      563.553      245.879        0.198        0.073       27.830        7.418        0.071      341.569       16.372      856.465
06/23/2013  07:09:00      -13.889       10.101       34.480       13.375       21.402       15.458      178.904      458.033      238.951        0.118        0.044       17.173       11.578        0.454      341.713       16.616      856.463
06/23/2013  07:10:00      -43.535      -18.555        2.056       15.829       16.185       10.966      250.542      261.963      120.258        0.144        0.032       47.325        8.300        0.031      341.216       15.776      856.476
06/23/2013  07:11:00      -22.403      -12.539       10.126       19.237       18.416       17.141      370.067      339.131      293.824        0.088        0.050       25.673       11.148        0.189      341.603       16.431      856.474
06/23/2013  07:12:00       -3.564       -1.209       14.112       20.404       26.232       22.068      416.318      688.107      487.004        0.090        0.080        3.764        9.571        6.467      341.793       16.755      856.453
06/23/2013  07:13:00      -22.294       13.256       14.822       17.519       18.466       20.593      306.926      340.994      424.088        0.098        0.054       25.937       14.039        0.293      341.629       16.476      856.442
06/23/2013  07:14:00      -16.644       19.671       28.929       15.026       25.258       29.852      225.795      637.970      891.133        0.163        0.088       25.767       17.563        0.465      341.960       17.036      856.455
06/23/2013  07:15:00       -1.295       14.842       58.151       16.532       26.361       16.477      273.299      694.928      271.490        0.242        0.062       14.899       13.555        0.828      342.105       17.282      856.453
06/23/2013  07:16:00        1.417       44.910       72.058       23.911       38.443       17.340      571.749     1477.883      300.692        0.478        0.118       44.933       20.438        0.207      341.976       17.064      856.436
06/23/2013  07:17:00       -8.493       12.093       46.881       14.054       29.823       22.106      197.518      889.384      488.691        0.200        0.079       14.778       19.275        1.701      342.065       17.215      856.440
06/23/2013  07:18:00       -9.252       11.120       43.374       10.349       20.365       12.598      107.103      414.714      158.702        0.139        0.034       14.466        8.867        0.376      342.431       17.838      856.443
06/23/2013  07:19:00       12.968       13.245       40.234       29.857       29.534       24.935      891.434      872.285      621.765        0.217        0.119       18.537       20.591        1.234      341.986       17.081      856.439
06/23/2013  07:20:00       -2.876       12.689       51.964       31.865       30.786       25.831     1015.398      947.769      667.226        0.275        0.132       13.011       15.822        1.479      341.938       16.999      856.427
06/23/2013  07:21:00        0.967       -7.894       19.132       32.276       28.218       26.850     1041.730      796.279      720.942        0.149        0.128        7.953       20.486        6.635      341.559       16.357      856.428
06/23/2013  07:22:00        8.351       26.414       28.843       25.921       25.640       21.155      671.882      657.416      447.524        0.169        0.089       27.702       20.024        0.522      341.776       16.723      856.437
06/23/2013  07:23:00       12.454       20.758       21.360       21.733       14.646       17.908      472.316      214.498      320.684        0.102        0.050       24.208        9.774        0.163      341.823       16.804      856.450
06/23/2013  07:24:00       33.677        4.328        9.913       33.780       26.176       22.373     1141.101      685.196      500.562        0.179        0.116       33.954       13.215        0.151      341.732       16.650      856.453
06/23/2013  07:25:00       41.230      -44.463       -1.959       27.097       22.885       20.836      734.255      523.705      434.128        0.269        0.085       60.638        8.442        0.019      341.404       16.093      856.458
06/23/2013  07:26:00       12.621       -9.110       23.645       27.834       22.226       19.162      774.714      493.996      367.166        0.122        0.082       15.565       15.135        0.945      342.182       17.414      856.460
06/23/2013  07:27:00       18.201      -26.147        7.853       17.633       24.921       25.749      310.935      621.032      662.989        0.134        0.080       31.858       15.125        0.225      341.738       16.659      856.470
06/23/2013  07:28:00       14.200       -5.275        5.196       18.807       26.269       22.774      353.688      690.068      518.674        0.091        0.078       15.148       14.739        0.947      341.847       16.846      856.488
06/23/2013  07:29:00       27.390      -20.834        7.111       33.539       37.829       38.106     1124.848     1431.032     1452.089        0.262        0.200       34.413       30.257        0.773      341.529       16.305      856.478
06/23/2013  07:30:00       49.811      -15.193       21.158       34.355       26.107       32.789     1180.260      681.586     1075.105        0.305        0.147       52.077       22.918        0.194      341.563       16.363      856.466
06/23/2013  07:31:00       17.469        2.824       28.117       31.231       21.540       23.283      975.356      463.966      542.095        0.154        0.099       17.696       11.012        0.387      341.774       16.723      856.462
06/23/2013  07:32:00       11.748        6.073       14.592       17.548       15.128       14.847      307.930      228.855      220.441        0.057        0.038       13.225       10.452        0.625      341.819       16.797      856.460
06/23/2013  07:33:00      -31.023      -14.821        3.801       20.739       11.845       12.561      430.099      140.309      157.787        0.096        0.036       34.381       12.350        0.129      341.593       16.413      856.467
06/23/2013  07:34:00      -19.033        2.104       23.518       26.065       12.553       16.215      679.408      157.581      262.912        0.101        0.055       19.149       16.977        0.786      342.071       17.226      856.466
06/23/2013  07:35:00       15.268       25.775       21.357       23.879       18.929       24.578      570.223      358.310      604.059        0.144        0.077       29.958       16.521        0.304      341.722       16.632      856.462
06/23/2013  07:36:00       55.852       30.419       13.333       30.464       20.169       21.837      928.076      406.802      476.858        0.302        0.091       63.598       11.785        0.034      341.683       16.566      856.446
06/23/2013  07:37:00        1.233       54.527        1.780       24.122       28.462       17.170      581.876      810.084      294.803        0.233        0.084       54.541       10.915        0.040      342.109       17.289      856.454
06/23/2013  07:38:00       44.086       49.940       11.919       31.455       36.480       28.432      989.386     1330.824      808.375        0.385        0.156       66.615       25.656        0.148      342.191       17.428      856.443
06/23/2013  07:39:00       78.401       56.729        8.911       31.120       24.365       29.264      968.464      593.629      856.354        0.593        0.121       96.772       15.809        0.027      342.002       17.107      856.425
06/23/2013  07:40:00       56.531       41.870       34.714       30.094       27.248       24.470      905.650      742.439      598.785        0.420        0.112       70.348       11.016        0.025      341.967       17.049      856.418
06/23/2013  07:41:00       38.533       17.279       26.942       31.616       22.318       21.280      999.564      498.099      452.839        0.223        0.098       42.230       15.163        0.129      342.146       17.352      856.421
06/23/2013  07:42:00       62.325       45.906       14.437       19.940       21.712       21.930      397.592      471.428      480.937        0.377        0.067       77.407       15.897        0.042      341.903       16.939      856.419
06/23/2013  07:43:00       30.464       35.638        0.499       28.195       18.559       19.704      794.952      344.422      388.253        0.186        0.076       46.884        9.123        0.038      341.954       17.024      856.432
06/23/2013  07:44:00       26.695       18.212       20.475       25.539       23.708       19.716      652.246      562.082      388.712        0.153        0.080       32.316       14.808        0.210      342.348       17.695      856.450
06/23/2013  07:45:00       49.279       12.337       18.151       24.916       29.745       18.324      620.819      884.762      335.787        0.238        0.092       50.800       12.344        0.059      341.929       16.983      856.447
06/23/2013  07:46:00       25.508      -12.482       14.106       28.590       21.857       19.382      817.387      477.742      375.671        0.134        0.084       28.398       11.342        0.160      341.975       17.062      856.441
06/23/2013  07:47:00       52.614        6.142       25.513       42.414       45.340       26.460     1798.932     2055.693      700.149        0.400        0.228       52.972       19.637        0.137      341.748       16.676      856.404
06/23/2013  07:48:00       23.412      -34.135       26.935       33.169       38.805       29.983     1100.197     1505.853      898.986        0.297        0.175       41.392       18.429        0.198      341.946       17.013      856.407
06/23/2013  07:49:00       41.409       -2.826       33.312       52.839       52.353       30.323     2791.986     2740.867      919.493        0.464        0.323       41.505       38.272        0.850      341.993       17.093      856.404
06/23/2013  07:50:00       17.962       32.183       32.722       32.897       46.466       23.421     1082.180     2159.130      548.554        0.311        0.189       36.856       18.989        0.265      342.230       17.494      856.407
06/23/2013  07:51:00       93.359       78.725       15.810       37.268       31.014       26.220     1388.888      961.841      687.495        0.910        0.152      122.121       21.071        0.030      341.971       17.054      856.402
06/23/2013  07:52:00      117.172       59.734       17.611       50.914       43.952       38.696     2592.239     1931.758     1497.348        1.181        0.301      131.519       28.701        0.048      342.226       17.486      856.389
06/23/2013  07:53:00      118.671       81.726       30.922       47.897       39.696       41.896     2294.145     1575.794     1755.248        1.367        0.281      144.090       17.543        0.015      342.254       17.535      856.368
06/23/2013  07:54:00       36.896       63.569       27.001       57.538       48.870       45.180     3310.670     2388.316     2041.263        0.693        0.387       73.501       34.968        0.226      342.461       17.887      856.355
06/23/2013  07:55:00       85.276       64.740       20.933       50.849       46.606       43.279     2585.639     2172.119     1873.034        0.926        0.332      107.067       32.179        0.090      342.487       17.932      856.335
06/23/2013  07:56:00      156.753       81.944       13.251       58.746       50.553       41.084     3451.086     2555.574     1687.877        1.958        0.385      176.879       28.591        0.026      342.257       17.538      856.313
06/23/2013  07:57:00      177.332      118.290       22.664       58.030       45.888       54.034     3367.440     2105.720     2919.629        2.717        0.420      213.165       31.022        0.021      342.247       17.519      856.303
06/23/2013  07:58:00      126.177       83.343       21.451       63.192       50.068       46.015     3993.258     2506.800     2117.401        1.597        0.431      151.217       29.840        0.039      342.410       17.799      856.301
06/23/2013  07:59:00      134.276       89.520       15.986       57.276       49.450       43.758     3280.490     2445.283     1914.746        1.697        0.382      161.382       27.348        0.029      342.392       17.768      856.309
06/23/2013  08:00:00      122.818       85.494       12.059       57.392       54.563       42.802     3293.843     2977.069     1832.045        1.532        0.405      149.645       27.305        0.033      342.443       17.855      856.301
06/23/2013  08:01:00       86.137       39.256       20.073       60.647       51.937       44.467     3678.084     2697.419     1977.287        0.886        0.418       94.661       14.405        0.023      342.683       18.264      856.314
06/23/2013  08:02:00       95.757       67.886       15.252       49.237       49.402       35.739     2424.282     2440.551     1277.256        1.008        0.307      117.379       17.931        0.023      342.718       18.322      856.309
06/23/2013  08:03:00       97.203       63.561       44.879       73.725       43.545       41.942     5435.303     1896.148     1759.103        1.229        0.455      116.140       23.664        0.042      342.696       18.286      856.315
06/23/2013  08:04:00       96.696       69.697       36.352       69.932       46.447       40.950     4890.434     2157.361     1676.918        1.213        0.436      119.197       21.501        0.033      342.636       18.183      856.307
06/23/2013  08:05:00      116.508      108.399       47.853       67.421       35.512       42.694     4545.524     1261.107     1822.789        1.762        0.381      159.136       34.739        0.048      342.585       18.096      856.301
06/23/2013  08:06:00       48.611       84.698       75.176       45.881       40.186       34.066     2105.101     1614.907     1160.526        1.003        0.244       97.657       22.254        0.052      342.634       18.182      856.291
06/23/2013  08:07:00       12.218       25.554       46.044       40.533       41.664       34.187     1642.922     1735.890     1168.781        0.373        0.227       28.325       20.784        0.538      342.708       18.307      856.284
06/23/2013  08:08:00       62.497       64.064       66.097       86.674       86.476       46.420     7512.445     7478.107     2154.849        1.476        0.857       89.500       51.588        0.332      342.444       17.856      856.270
06/23/2013  08:09:00      121.615       88.666       58.933       45.132       31.634       37.314     2036.939     1000.718     1392.353        1.528        0.222      150.505       16.219        0.012      342.605       18.132      856.274
06/23/2013  08:10:00      139.961       95.606       40.138       42.110       42.918       56.730     1773.232     1841.990     3218.300        1.859        0.342      169.498       28.861        0.029      342.471       17.902      856.262
06/23/2013  08:11:00      147.677      110.589       64.628       73.626       48.645       52.917     5420.761     2366.371     2800.222        2.440        0.529      184.495       38.988        0.045      342.424       17.821      856.253
06/23/2013  08:12:00      116.353       55.014       33.575       72.405       51.352       40.268     5242.433     2637.011     1621.519        1.359        0.475      128.703       31.580        0.060      342.711       18.312      856.254
06/23/2013  08:13:00       76.014       83.085       59.407       67.874       45.431       42.167     4606.816     2063.998     1778.058        1.233        0.422      112.611       39.926        0.126      342.750       18.378      856.266
06/23/2013  08:14:00      121.622       71.401        5.585       61.913       36.368       33.716     3833.209     1322.605     1136.774        1.311        0.315      141.032       24.658        0.031      342.687       18.269      856.273
06/23/2013  08:15:00      122.350       80.870       36.419       62.300       36.394       46.197     3881.321     1324.537     2134.161        1.509        0.367      146.661       41.185        0.079      342.576       18.081      856.270
06/23/2013  08:16:00       92.595       74.608       36.474       53.795       44.529       45.735     2893.857     1982.854     2091.689        1.122        0.348      118.913       24.001        0.041      342.713       18.315      856.267
06/23/2013  08:17:00       68.759       76.577       80.896       71.309       61.387       53.997     5085.011     3768.378     2915.694        1.445        0.588      102.917       49.561        0.232      342.562       18.057      856.252
06/23/2013  08:18:00      162.185       92.962       63.657      120.895       56.086       64.154    14615.689     3145.612     4115.746        3.043        1.094      186.938       54.773        0.086      342.356       17.706      856.248
06/23/2013  08:19:00      109.380      120.472       87.238       81.797       49.614       61.491     6690.672     2461.540     3781.128        2.351        0.647      162.720       54.116        0.111      342.357       17.709      856.240
06/23/2013  08:20:00      137.405      103.752       67.940       89.050       56.307       58.110     7929.837     3170.522     3376.789        2.437        0.724      172.176       39.196        0.052      342.484       17.923      856.229
06/23/2013  08:21:00       89.638       96.984       76.306       66.710       66.993       47.229     4450.261     4488.059     2230.599        1.721        0.558      132.064       36.841        0.078      342.439       17.849      856.231
06/23/2013  08:22:00       37.090       31.505       72.315       49.014       59.036       34.988     2402.355     3485.199     1224.174        0.735        0.356       48.664       31.082        0.408      342.521       17.989      856.245
06/23/2013  08:23:00       70.896       84.104       86.484       57.302       67.448       38.884     3283.462     4549.291     1511.943        1.446        0.467      109.998       16.798        0.023      342.473       17.906      856.237
06/23/2013  08:24:00      127.684       94.795       54.909       64.816       43.662       41.493     4201.142     1906.412     1721.632        1.807        0.391      159.026       32.269        0.041      342.479       17.915      856.233
06/23/2013  08:25:00       83.416       65.653       40.523       66.092       41.759       42.418     4368.127     1743.792     1799.273        1.041        0.396      106.153       27.823        0.069      342.583       18.095      856.240
06/23/2013  08:26:00      107.303       83.005       24.994       60.570       33.691       32.955     3668.669     1135.095     1086.034        1.246        0.294      135.661       20.325        0.022      342.398       17.779      856.244
06/23/2013  08:27:00       44.531       78.923       66.651       60.100       50.040       29.220     3611.966     2503.977      853.787        0.981        0.348       90.619       28.481        0.099      342.520       17.987      856.221
06/23/2013  08:28:00      125.103       70.551       44.352       70.430       55.761       47.117     4960.347     3109.284     2220.030        1.644        0.514      143.625       38.344        0.071      342.443       17.855      856.211
06/23/2013  08:29:00       55.380       45.076       44.074       41.070       44.912       39.404     1686.706     2017.054     1552.692        0.615        0.263       71.405       29.600        0.172      342.643       18.196      856.214
06/23/2013  08:30:00      130.996       99.170       50.276       68.083       38.496       41.769     4635.287     1481.927     1744.618        1.869        0.393      164.300       32.773        0.040      342.584       18.094      856.215
06/23/2013  08:31:00       64.519       77.364       66.009       37.651       33.345       26.282     1417.583     1111.870      690.717        0.886        0.161      100.737       16.225        0.026      342.677       18.253      856.211
06/23/2013  08:32:00       50.460       67.583       61.110       49.214       36.244       32.722     2421.970     1313.606     1070.724        0.783        0.240       84.343       14.316        0.029      342.731       18.345      856.193
06/23/2013  08:33:00       98.731       61.735       33.487       65.381       44.279       44.517     4274.615     1960.654     1981.806        1.145        0.411      116.443       31.052        0.071      342.634       18.181      856.192
06/23/2013  08:34:00      139.845       78.747       38.455       47.524       38.657       41.482     2258.503     1494.330     1720.797        1.635        0.274      160.492       14.442        0.008      342.591       18.107      856.181
06/23/2013  08:35:00      124.183       99.863       55.206       65.291       49.952       53.254     4262.915     2495.188     2835.954        1.902        0.480      159.355       43.460        0.074      342.726       18.335      856.162
06/23/2013  08:36:00      159.014       96.630       54.830       94.194       61.664       59.677     8872.588     3802.409     3561.370        2.693        0.812      186.072       58.999        0.101      342.610       18.137      856.141
06/23/2013  08:37:00      157.898      117.881       15.899       53.371       46.010       45.366     2848.459     2116.965     2058.118        2.305        0.351      197.048       15.405        0.006      342.727       18.336      856.111
06/23/2013  08:38:00      128.978       70.274       20.584       81.318       50.216       44.007     6612.564     2521.682     1936.580        1.653        0.554      146.880       35.050        0.057      342.681       18.260      856.120
06/23/2013  08:39:00      117.545       85.956       12.635       64.864       42.861       38.286     4207.341     1837.067     1465.805        1.444        0.376      145.621       24.757        0.029      342.678       18.257      856.146
06/23/2013  08:40:00      135.688      104.442       28.661       61.999       32.119       36.425     3843.883     1031.615     1326.777        1.817        0.310      171.229       36.409        0.045      342.666       18.235      856.139
06/23/2013  08:41:00      140.701       83.995       38.834       48.322       38.328       43.097     2335.012     1469.015     1857.351        1.701        0.283      163.865       31.889        0.038      342.642       18.193      856.133
06/23/2013  08:42:00       97.767       61.269       -1.933       54.324       48.143       35.660     2951.139     2317.791     1271.665        0.993        0.327      115.379       28.387        0.061      342.765       18.402      856.132
06/23/2013  08:43:00       92.728       58.395       10.574       43.670       40.169       29.028     1907.065     1613.547      842.629        0.824        0.218      109.583       24.664        0.051      342.841       18.533      856.131
06/23/2013  08:44:00       61.136       45.973       12.298       48.593       25.734       31.148     2361.296      662.245      970.216        0.500        0.200       76.493        9.628        0.016      342.964       18.743      856.134
06/23/2013  08:45:00       66.399       55.264       19.060       49.645       37.444       40.225     2464.583     1402.044     1618.040        0.665        0.274       86.388       27.099        0.098      342.962       18.738      856.124
06/23/2013  08:46:00      118.879       81.479       31.313       35.392       28.531       37.688     1252.564      814.011     1420.383        1.262        0.174      144.122       17.499        0.015      342.884       18.605      856.114
06/23/2013  08:47:00       81.479       26.134       18.306       58.446       45.744       28.930     3415.970     2092.538      836.923        0.700        0.317       85.568       11.148        0.017      342.963       18.741      856.101
06/23/2013  08:48:00        6.037        8.522        8.159       29.060       31.252       24.301      844.485      976.682      590.534        0.129        0.121       10.444       16.249        2.421      343.184       19.116      856.096
06/23/2013  08:49:00       45.832       15.487        8.552       25.984       33.263       22.127      675.190     1106.454      489.596        0.234        0.114       48.377       10.984        0.052      343.120       19.008      856.106
06/23/2013  08:50:00       83.640       80.404        6.042       32.049       27.863       32.885     1027.107      776.322     1081.397        0.819        0.144      116.019       15.881        0.019      342.880       18.597      856.112
06/23/2013  08:51:00       76.472       42.551       25.036       37.185       21.867       31.057     1382.723      478.146      964.507        0.555        0.141       87.513       17.064        0.038      342.798       18.459      856.120
06/23/2013  08:52:00       73.382       59.017       22.823       35.415       24.804       32.637     1254.210      615.215     1065.167        0.616        0.147       94.170       18.835        0.040      342.795       18.456      856.109
06/23/2013  08:53:00       22.589       16.661       22.358       32.169       23.641       22.195     1034.819      558.883      492.601        0.169        0.104       28.069       23.058        0.675      343.435       19.545      856.105
06/23/2013  08:54:00       49.382        6.449       15.414       24.118       40.824       30.703      581.668     1666.590      942.657        0.295        0.160       49.801       22.787        0.209      342.920       18.667      856.084
06/23/2013  08:55:00       93.060       63.265       41.626       33.706       22.691       30.103     1136.074      514.862      906.170        0.848        0.128      112.529       23.960        0.045      343.152       19.062      856.055
06/23/2013  08:56:00       50.411       56.951       50.147       42.156       40.809       27.281     1777.120     1665.335      744.247        0.624        0.209       76.057       14.194        0.035      343.380       19.451      856.025
06/23/2013  08:57:00       44.734       29.132       19.597       50.714       40.583       26.793     2571.898     1646.956      717.873        0.408        0.247       53.384       17.434        0.107      343.298       19.312      856.025
06/23/2013  08:58:00       23.314      -34.878       -6.859       34.640       33.162       20.982     1199.919     1099.717      440.253        0.227        0.137       41.952       19.696        0.220      342.857       18.561      856.011
06/23/2013  08:59:00       68.216       48.506       24.258       37.600       37.296       33.687     1413.744     1391.014     1134.828        0.577        0.197       83.704       18.155        0.047      343.042       18.874      855.991
06/23/2013  09:00:00       38.622       53.452       44.425       38.225       37.170       22.805     1461.118     1381.610      520.070        0.484        0.168       65.946       18.391        0.078      343.088       18.953      855.983
06/23/2013  09:01:00      -22.333      -15.371       18.975       18.525       21.547       19.126      343.193      464.274      365.789        0.113        0.059       27.111       14.706        0.294      343.300       19.315      855.982
06/23/2013  09:02:00       10.853        3.827       28.880       20.952       20.406       11.986      439.001      416.409      143.655        0.098        0.050       11.508        4.890        0.181      343.577       19.787      855.972
06/23/2013  09:03:00       32.920        6.141        4.180       26.274       26.289       27.210      690.311      691.127      740.381        0.163        0.106       33.488        9.481        0.080      342.940       18.702      855.962
06/23/2013  09:04:00       33.102       18.587        0.351       31.209       30.441       18.316      974.016      926.645      335.466        0.184        0.112       37.963       19.478        0.263      343.294       19.305      855.927
06/23/2013  09:05:00       31.170       12.908        9.672       35.067       37.271       28.928     1229.704     1389.151      836.814        0.234        0.173       33.737       26.511        0.618      343.264       19.253      855.904
06/23/2013  09:06:00       54.682      -27.806       10.680       30.149       28.760       26.548      908.966      827.156      704.779        0.316        0.122       61.346       22.117        0.130      342.944       18.709      855.903
06/23/2013  09:07:00        7.926      -27.065       18.569       23.324       32.005       30.344      544.031     1024.301      920.759        0.181        0.124       28.202       19.335        0.470      343.582       19.795      855.896
06/23/2013  09:08:00       12.906       15.428       16.929       19.832       20.550       18.395      393.314      422.314      338.367        0.092        0.058       20.115       11.931        0.352      343.556       19.751      855.889
06/23/2013  09:09:00       15.613      -41.962       29.421       44.248       61.967       30.151     1957.923     3839.910      909.081        0.479        0.335       44.773       19.173        0.183      342.977       18.766      855.885
06/23/2013  09:10:00       79.041       22.908       33.215       59.861       71.046       36.694     3583.320     5047.562     1346.461        0.892        0.499       82.294       38.993        0.225      343.031       18.856      855.887
06/23/2013  09:11:00      124.648       86.489       19.584       44.565       35.695       35.905     1986.011     1274.159     1289.164        1.397        0.227      151.715       22.716        0.022      343.328       19.362      855.889
06/23/2013  09:12:00      107.653       89.508       38.863       39.187       29.656       38.704     1535.625      879.456     1498.028        1.251        0.196      140.003       23.065        0.027      343.315       19.342      855.889
06/23/2013  09:13:00       31.488       57.667       53.979       34.472       38.376       22.453     1188.312     1472.754      504.158        0.520        0.158       65.704       11.273        0.029      343.429       19.534      855.878
06/23/2013  09:14:00      108.592       61.680       26.837       58.544       33.924       32.988     3427.364     1150.845     1088.202        1.099        0.283      124.887       22.405        0.032      343.301       19.317      855.868
06/23/2013  09:15:00       72.322       21.913       12.341       79.084       52.819       40.813     6254.342     2789.829     1665.739        0.828        0.535       75.569       32.138        0.181      343.631       19.878      855.847
06/23/2013  09:16:00       22.447       35.874       15.078       29.816       37.886       22.193      888.997     1435.355      492.539        0.242        0.141       42.318       16.536        0.153      343.684       19.969      855.840
06/23/2013  09:17:00       38.512       41.485       16.997       32.653       28.752       28.354     1066.194      826.658      803.932        0.309        0.135       56.605       16.685        0.087      343.660       19.929      855.825
06/23/2013  09:18:00       49.247       76.073       60.957       46.471       41.764       24.756     2159.588     1744.200      612.850        0.822        0.226       90.622       12.793        0.020      343.911       20.357      855.814
06/23/2013  09:19:00      155.103      100.678       69.928       61.694       45.911       38.074     3806.130     2107.775     1449.654        2.322        0.368      184.914       27.251        0.022      343.571       19.775      855.794
06/23/2013  09:20:00       46.717       64.905       56.932       59.808       54.419       38.378     3577.030     2961.405     1472.870        0.882        0.401       79.969       14.627        0.033      343.407       19.497      855.796
06/23/2013  09:21:00       33.943       65.822       58.321       48.120       55.316       42.117     2315.515     3059.861     1773.808        0.802        0.357       74.059       29.919        0.163      343.516       19.682      855.784
06/23/2013  09:22:00       25.945       40.851       51.038       42.914       34.282       35.967     1841.577     1175.245     1293.651        0.463        0.216       48.393       21.940        0.206      343.630       19.876      855.791
06/23/2013  09:23:00       14.838       16.583       22.896       35.545       25.546       22.975     1263.421      652.615      527.828        0.173        0.122       22.252       18.035        0.657      343.692       19.981      855.791
06/23/2013  09:24:00      -11.853        1.736        4.371       23.989       13.950       16.758      575.455      194.611      280.835        0.061        0.053       11.980       13.662        1.301      343.898       20.334      855.786
06/23/2013  09:25:00       50.036        9.897       35.073       53.338       49.583       37.314     2844.994     2458.432     1392.356        0.526        0.335       51.005       42.686        0.700      343.569       19.773      855.773
06/23/2013  09:26:00       34.870      -32.297       27.554       45.245       73.630       39.052     2047.145     5421.445     1525.056        0.600        0.450       47.529       24.950        0.276      343.542       19.726      855.745
06/23/2013  09:27:00       66.618       12.676       33.496       71.194       73.848       28.505     5068.650     5453.501      812.534        0.853        0.567       67.813       29.157        0.185      343.568       19.772      855.734
06/23/2013  09:28:00      134.440      107.509       17.399       50.408       39.002       35.918     2540.920     1521.132     1290.121        1.764        0.268      172.140       27.522        0.026      343.707       20.007      855.712
06/23/2013  09:29:00      101.114       59.417       16.348       73.391       45.901       34.916     5386.248     2106.902     1219.119        1.137        0.436      117.279       31.515        0.072      343.749       20.080      855.696
06/23/2013  09:30:00      126.102       75.637       29.269       41.297       34.344       41.904     1705.461     1179.496     1755.918        1.356        0.232      147.047       24.681        0.028      343.771       20.117      855.682
06/23/2013  09:31:00      107.908       84.193       12.760       47.955       34.888       30.549     2299.658     1217.143      933.232        1.167        0.223      136.867        8.881        0.004      343.776       20.126      855.666
06/23/2013  09:32:00      111.091       70.328       33.119       38.063       23.501       27.056     1448.797      552.283      732.036        1.056        0.137      131.481       22.511        0.029      343.734       20.055      855.647
06/23/2013  09:33:00       79.038       61.447       34.119       29.615       21.511       19.180      877.039      462.722      367.860        0.645        0.085      100.114       10.394        0.011      343.612       19.847      855.656
06/23/2013  09:34:00       38.837        7.336       12.771       35.641       37.627       28.334     1270.289     1415.759      802.841        0.261        0.174       39.524       15.012        0.144      343.860       20.270      855.649
06/23/2013  09:35:00       57.745      -60.822       -7.273       48.289       46.884       36.396     2331.863     2198.086     1324.663        0.647        0.293       83.868       31.212        0.138      343.930       20.388      855.642
06/23/2013  09:36:00       55.206     -122.626      -30.450       61.846       70.115       38.612     3824.936     4916.074     1490.909        1.462        0.512      134.479       32.136        0.057      343.869       20.284      855.631
06/23/2013  09:37:00        1.944      -29.884       14.755       30.523       52.047       42.784      931.656     2708.922     1830.495        0.329        0.274       29.947       24.261        0.656      344.123       20.719      855.625
06/23/2013  09:38:00        2.561      -38.076       28.143       29.366       70.321       40.034      862.357     4945.004     1602.704        0.483        0.371       38.162       27.895        0.534      344.157       20.776      855.628
06/23/2013  09:39:00      -14.675        8.335       48.732       18.049       37.393       21.409      325.773     1398.205      458.361        0.242        0.109       16.876       10.210        0.366      344.142       20.753      855.611
06/23/2013  09:40:00       -7.188      -41.637       23.916       31.651       53.076       33.311     1001.757     2817.037     1109.611        0.364        0.246       42.253       19.304        0.209      344.177       20.811      855.597
06/23/2013  09:41:00      -12.493      -34.403       32.204       35.472       64.115       42.407     1258.250     4110.704     1798.362        0.477        0.358       36.601       25.667        0.492      344.149       20.764      855.562
06/23/2013  09:42:00       33.788     -152.190      -16.489       80.043       61.346       41.815     6406.880     3763.368     1748.492        1.824        0.596      155.896       34.676        0.049      344.161       20.781      855.555
06/23/2013  09:43:00       23.323      -41.706       12.563       48.791       51.090       35.503     2380.514     2610.164     1260.438        0.434        0.313       47.785       29.745        0.387      344.172       20.801      855.560
06/23/2013  09:44:00       42.603      -54.438       12.869       55.241       65.987       36.083     3051.601     4354.219     1301.954        0.682        0.435       69.127       42.572        0.379      344.023       20.549      855.559
06/23/2013  09:45:00       90.397      -96.601      -11.384       56.500       77.669       40.739     3192.226     6032.447     1659.668        1.426        0.544      132.301       43.083        0.106      344.101       20.678      855.585
06/23/2013  09:46:00      -36.596      -67.868        7.346       82.567       59.375       44.910     6817.331     3525.399     2016.884        0.918        0.618       77.106       32.138        0.174      344.316       21.048      855.588
06/23/2013  09:47:00      -47.888      -50.043        6.733       40.344       31.442       24.178     1627.650      988.576      584.564        0.402        0.160       69.264       23.651        0.117      344.162       20.784      855.593
06/23/2013  09:48:00      -23.451       15.070       26.187       14.771       36.333       36.793      218.182     1320.083     1353.750        0.218        0.145       27.876       25.152        0.814      344.268       20.969      855.588
06/23/2013  09:49:00       20.277        9.520       33.153       33.523       30.736       22.393     1123.783      944.682      501.452        0.208        0.128       22.400       22.072        0.971      343.959       20.439      855.562
06/23/2013  09:50:00       30.448      -20.268       23.622       43.415       49.385       39.646     1884.874     2438.907     1571.803        0.389        0.295       36.577       39.080        1.142      343.941       20.409      855.534
06/23/2013  09:51:00        8.009       15.626       39.849       23.908       28.888       18.616      571.589      834.504      346.547        0.182        0.088       17.559       14.002        0.636      344.298       21.017      855.519
06/23/2013  09:52:00        5.189      -31.769       29.457       33.404       32.465       29.390     1115.818     1053.990      863.776        0.247        0.152       32.190       21.632        0.452      344.324       21.063      855.514
06/23/2013  09:53:00      -46.189      -13.248        7.254       31.548       22.315       17.227      995.272      497.942      296.761        0.208        0.089       48.051       19.834        0.170      344.388       21.172      855.517
06/23/2013  09:54:00      -14.965      -13.893       23.898       16.122       26.410       22.226      259.934      697.485      493.983        0.122        0.073       20.420       18.684        0.837      344.579       21.498      855.522
06/23/2013  09:55:00        0.072        2.477       15.959       24.659       31.905       29.517      608.070     1017.911      871.245        0.138        0.125        2.478       24.310       96.206      344.599       21.532      855.507
06/23/2013  09:56:00        2.005      -15.288       17.673       28.309       27.296       25.597      801.394      745.056      655.212        0.138        0.110       15.419       10.051        0.425      344.190       20.834      855.505
06/23/2013  09:57:00        6.112       -1.987       34.747       16.183       17.936       17.205      261.875      321.690      296.003        0.106        0.044        6.427        3.496        0.296      344.908       22.060      855.497
06/23/2013  09:58:00       32.001      -50.778        6.654       38.923       46.968       36.486     1514.975     2206.012     1331.264        0.435        0.253       60.021       35.168        0.343      344.486       21.339      855.478
06/23/2013  09:59:00       39.054      -23.939       40.956       52.352       55.066       30.121     2740.694     3032.235      907.294        0.523        0.334       45.807       28.862        0.397      344.637       21.598      855.473
06/23/2013  10:00:00      -13.078     -113.545        5.996       34.767       65.463       32.157     1208.769     4285.339     1034.079        0.981        0.326      114.295       17.131        0.022      344.269       20.969      855.473
06/23/2013  10:01:00       -0.028       -7.247       32.388       43.888       35.716       23.250     1926.199     1275.657      540.560        0.242        0.187        7.248       18.759        6.700      344.748       21.787      855.457
06/23/2013  10:02:00        3.750      -23.654       31.379       32.626       71.139       41.796     1064.455     5060.782     1746.904        0.471        0.394       23.950       40.379        2.843      344.574       21.490      855.446
06/23/2013  10:03:00       -4.192     -114.136       -2.831       50.024       99.244       45.111     2502.408     9849.286     2035.007        1.372        0.719      114.213       47.721        0.175      344.465       21.304      855.452
06/23/2013  10:04:00      -50.695      -71.054       10.760       88.406       46.827       30.838     7815.578     2192.787      950.999        0.934        0.548       87.284       25.259        0.084      344.343       21.095      855.446
06/23/2013  10:05:00      -75.586      -23.724       14.307       59.840       49.068       29.768     3580.787     2407.714      886.155        0.668        0.344       79.221       34.490        0.190      344.512       21.383      855.435
06/23/2013  10:06:00      -49.276      -36.856        9.231       41.682       53.773       21.044     1737.403     2891.489      442.838        0.447        0.254       61.535       20.299        0.109      344.590       21.516      855.440
06/23/2013  10:07:00      -50.299      -37.338      -15.242       21.114       21.021       20.557      445.821      441.893      422.578        0.273        0.066       62.643       17.827        0.081      344.370       21.140      855.425
06/23/2013  10:08:00       29.652      -28.668       15.966       46.623       49.823       40.158     2173.729     2482.352     1612.662        0.411        0.313       41.245       27.110        0.432      344.217       20.880      855.416
06/23/2013  10:09:00       41.191     -134.143       -9.552       44.129       50.230       35.486     1947.376     2523.103     1259.287        1.275        0.286      140.324       15.770        0.013      344.460       21.294      855.436
06/23/2013  10:10:00      -56.611      -34.804       12.636       73.088       40.581       25.596     5341.815     1646.845      655.136        0.611        0.382       66.454       32.555        0.240      344.745       21.783      855.438
06/23/2013  10:11:00      -55.156      -70.518       27.678       96.280       45.522       42.959     9269.829     2072.218     1845.470        1.098        0.659       89.527       48.959        0.299      344.618       21.564      855.443
06/23/2013  10:12:00      -94.264      -76.227       -0.131       55.477       58.812       32.294     3077.675     3458.809     1042.906        1.114        0.379      121.228       33.521        0.076      344.497       21.358      855.437
06/23/2013  10:13:00      -16.060      -37.241        2.330       69.347       56.163       42.977     4808.973     3154.323     1847.041        0.573        0.491       40.556       42.776        1.112      344.478       21.327      855.435
06/23/2013  10:14:00      -12.147      -21.703       -1.688       43.460       37.926       27.859     1888.790     1438.359      776.132        0.236        0.205       24.871       10.842        0.190      344.613       21.556      855.422
06/23/2013  10:15:00       59.064      -25.146       34.929       71.944       60.406       38.250     5176.001     3648.842     1463.060        0.781        0.514       64.194       28.289        0.194      344.735       21.765      855.425
06/23/2013  10:16:00        8.984       39.292       68.112       45.141       57.381       50.398     2037.676     3292.571     2539.935        0.707        0.394       40.306       42.814        1.128      344.529       21.414      855.426
06/23/2013  10:17:00       11.387       -8.857       55.838       49.198       52.219       39.253     2420.426     2726.865     1540.828        0.501        0.334       14.426       17.397        1.454      344.632       21.588      855.416
06/23/2013  10:18:00       57.481       -7.446       30.321       42.344       48.814       38.270     1793.026     2382.782     1464.603        0.496        0.282       57.962       31.443        0.294      344.017       20.539      855.423
06/23/2013  10:19:00       51.120       13.029       13.535       42.309       61.450       36.538     1790.076     3776.094     1335.059        0.493        0.345       52.754       30.501        0.334      344.084       20.652      855.409
06/23/2013  10:20:00       55.074       18.483       50.981       92.703       90.953       53.555     8593.842     8272.395     2868.174        1.285        0.987       58.093       46.955        0.653      344.145       20.755      855.397
06/23/2013  10:21:00       33.486      -53.369       21.269       73.132       73.620       37.666     5348.272     5419.900     1418.730        0.830        0.609       63.005       48.539        0.594      344.510       21.379      855.403
06/23/2013  10:22:00       43.372      -89.429        2.802       59.901      108.047       48.502     3588.098    11674.123     2352.461        1.375        0.881       99.392       49.536        0.248      344.693       21.691      855.405
06/23/2013  10:23:00       31.588      -30.626       41.098       50.706       53.281       33.977     2571.149     2838.851     1154.422        0.509        0.328       43.997       37.710        0.735      344.596       21.527      855.401
06/23/2013  10:24:00       14.139       -6.919       32.356       56.416       35.091       23.576     3182.720     1231.380      555.823        0.313        0.248       15.741       16.048        1.039      344.713       21.727      855.404
06/23/2013  10:25:00        7.651        1.809       34.595       35.907       24.969       28.759     1289.315      623.453      827.077        0.200        0.137        7.862       22.392        8.111      344.656       21.630      855.397
06/23/2013  10:26:00       50.561      -88.420       -8.946       44.252       57.628       34.241     1958.203     3320.957     1172.474        0.845        0.323      101.855       34.430        0.114      344.397       21.188      855.408
06/23/2013  10:27:00       51.605      -58.816       26.716       54.165       86.017       36.415     2933.813     7398.868     1326.079        0.925        0.583       78.246       33.741        0.186      344.765       21.815      855.418
06/23/2013  10:28:00       29.540      -56.239       15.088       44.445       80.606       36.573     1975.343     6497.345     1337.605        0.703        0.491       63.525       45.309        0.509      344.533       21.419      855.418
06/23/2013  10:29:00       23.234      -75.118        8.247       39.970       78.465       48.173     1597.616     6156.696     2320.614        0.816        0.504       78.629       40.493        0.265      344.564       21.473      855.424
06/23/2013  10:30:00      -20.677      -73.893       12.204       53.442       53.405       43.669     2856.074     2852.131     1907.019        0.682        0.381       76.732       29.196        0.145      344.732       21.760      855.439
06/23/2013  10:31:00      -10.893      -50.350        0.054       40.310       41.453       30.406     1624.918     1718.390      924.535        0.346        0.213       51.515       27.046        0.276      344.820       21.911      855.427
06/23/2013  10:32:00       17.167      -34.818       -3.876       27.803       28.492       27.512      772.983      811.777      756.937        0.193        0.117       38.820        4.435        0.013      344.735       21.765      855.432
06/23/2013  10:33:00       38.058      -73.901        3.574       58.873       80.986       47.461     3466.049     6558.794     2252.582        0.960        0.614       83.125       43.088        0.269      344.802       21.880      855.434
06/23/2013  10:34:00       22.035      -59.547       -7.795       49.759       59.737       42.938     2475.927     3568.521     1843.698        0.599        0.394       63.493       30.914        0.237      344.634       21.592      855.415
06/23/2013  10:35:00       32.410      -13.773       33.749       52.004       43.235       33.092     2704.418     1869.268     1095.081        0.402        0.283       35.215       22.352        0.403      344.445       21.269      855.414
06/23/2013  10:36:00       -6.828      -51.794        6.801       37.097       39.616       34.444     1376.196     1569.439     1186.419        0.345        0.207       52.242       23.183        0.197      344.667       21.649      855.432
06/23/2013  10:37:00      -33.143        9.571       14.112       50.572       25.218       25.393     2557.549      635.966      644.815        0.261        0.192       34.497       23.016        0.445      344.809       21.891      855.452
06/23/2013  10:38:00      -69.519      -40.079       18.781       61.747       61.490       42.506     3812.713     3781.010     1806.800        0.809        0.470       80.245       41.481        0.267      344.868       21.992      855.452
06/23/2013  10:39:00      -26.197       24.458        6.207      116.202       79.854       56.298    13503.008     6376.657     3169.475        1.218        1.152       35.839       55.337        2.384      344.637       21.597      855.453
06/23/2013  10:40:00      -34.120      -58.421       23.438       68.481      116.607       34.605     4689.586    13597.296     1197.479        1.230        0.974       67.655       41.961        0.385      344.788       21.854      855.429
06/23/2013  10:41:00     -118.693      -19.993       20.037      136.050       89.821       58.937    18509.493     8067.809     3473.592        2.246        1.503      120.365       73.795        0.376      344.960       22.148      855.392
06/23/2013  10:42:00     -337.699     -107.540      -27.490       69.686       76.321       43.657     4856.075     5824.942     1905.927        6.947        0.629      354.409       27.741        0.006      344.748       21.784      855.378
06/23/2013  10:43:00     -155.061      -19.183      -12.780       59.343       42.482       31.093     3521.617     1804.730      966.774        1.543        0.315      156.243       31.338        0.040      344.791       21.859      855.357
06/23/2013  10:44:00      -94.493      -72.660        3.429       81.770       45.567       27.530     6686.357     2076.310      757.917        1.187        0.476      119.199       24.337        0.042      345.003       22.224      855.355
06/23/2013  10:45:00      -70.314      -73.911       13.620       77.386       74.583       38.631     5988.630     5562.567     1492.351        1.182        0.652      102.014       40.595        0.158      345.010       22.234      855.346
06/23/2013  10:46:00      -70.923      -24.387       16.061       58.320       78.764       50.601     3401.196     6203.830     2560.510        0.902        0.608       74.998       38.658        0.266      345.133       22.446      855.338
06/23/2013  10:47:00     -228.852     -120.720       -2.026      116.612       78.967       48.210    13598.398     6235.784     2324.209        4.455        1.108      258.741       49.325        0.036      345.005       22.224      855.338
06/23/2013  10:48:00     -144.486     -134.667      -12.878      106.285       85.906       51.718    11296.538     7379.879     2674.787        3.026        1.068      197.513       56.606        0.082      344.915       22.071      855.346
06/23/2013  10:49:00      -73.776     -282.669        8.285       58.522       81.207       40.411     3424.775     6594.605     1633.062        4.853        0.583      292.139       31.677        0.012      344.721       21.739      855.372
06/23/2013  10:50:00      -81.327     -112.156        9.495       57.034       56.137       33.463     3252.864     3151.364     1119.740        1.340        0.376      138.539       33.567        0.059      344.835       21.936      855.369
06/23/2013  10:51:00     -106.517      -61.259       -0.234       44.014       44.460       32.351     1937.215     1976.692     1046.609        1.003        0.248      122.877       27.593        0.050      344.841       21.945      855.370
06/23/2013  10:52:00     -241.112     -112.399        1.834      125.464       86.899       44.530    15741.090     7551.461     1982.889        4.802        1.264      266.024       36.845        0.019      344.921       22.081      855.348
06/23/2013  10:53:00     -178.336     -111.286        2.381      106.593       92.040       44.811    11362.028     8471.412     2008.014        3.301        1.092      210.210       45.817        0.048      344.964       22.154      855.353
06/23/2013  10:54:00     -196.573     -110.587        1.091       83.746       48.211       34.390     7013.367     2324.324     1182.693        3.069        0.526      225.545       31.445        0.019      344.902       22.047      855.346
06/23/2013  10:55:00      -48.596      -40.208       -8.232       58.935       32.481       28.580     3473.317     1055.004      816.830        0.469        0.267       63.073       35.508        0.317      345.106       22.399      855.345
06/23/2013  10:56:00       17.308       13.532       10.220       32.919       24.846       25.061     1083.642      617.310      628.050        0.146        0.116       21.969       16.053        0.534      345.071       22.340      855.330
06/23/2013  10:57:00       70.261       29.028       28.764       49.558       24.025       23.161     2455.987      577.193      536.434        0.509        0.178       76.021       22.778        0.090      345.024       22.260      855.325
06/23/2013  10:58:00       55.993       13.897       15.299       55.571       30.129       25.699     3088.182      907.748      660.420        0.411        0.233       57.692       18.560        0.104      344.999       22.218      855.317
06/23/2013  10:59:00       33.947       13.461       48.422       31.139       35.111       23.227      969.614     1232.815      539.487        0.321        0.137       36.518       16.725        0.210      344.652       21.624      855.321
06/23/2013  11:00:00      -16.428      -36.497       10.966       56.524       39.412       21.287     3194.917     1553.338      453.142        0.346        0.260       40.024       24.006        0.360      344.919       22.082      855.329
06/23/2013  11:01:00      -43.727       27.928        5.330       39.520       24.374       35.264     1561.831      594.069     1243.525        0.306        0.170       51.885       30.590        0.348      344.883       22.017      855.330
06/23/2013  11:02:00      -34.041       -6.852       12.389       38.361       39.039       19.637     1471.590     1524.063      385.624        0.237        0.169       34.723       14.091        0.165      344.996       22.212      855.320
06/23/2013  11:03:00      -40.190      -20.434        4.235       35.480       25.305       20.554     1258.850      640.326      422.485        0.219        0.116       45.087       19.858        0.194      345.173       22.514      855.323
06/23/2013  11:04:00     -146.058     -109.789       -1.893       79.515      120.493       42.588     6322.648    14518.621     1813.726        2.802        1.133      182.720       32.189        0.031      345.057       22.313      855.326
06/23/2013  11:05:00     -212.372     -135.264        0.041      123.511       90.360       53.751    15255.019     8164.875     2889.173        4.485        1.315      251.790       63.498        0.064      344.999       22.214      855.301
06/23/2013  11:06:00     -121.826      -32.342      -11.195      115.161       39.500       34.827    13261.942     1560.287     1212.896        1.602        0.802      126.046       52.807        0.176      345.013       22.238      855.280
06/23/2013  11:07:00     -187.136        2.146        4.881       87.565      114.377       53.333     7667.575    13082.028     2844.443        2.932        1.180      187.148       47.852        0.065      345.109       22.402      855.271
06/23/2013  11:08:00     -378.949      -88.870       -5.405      188.546      135.540       70.191    35549.442    18371.204     4926.768       10.518        2.942      389.230       74.709        0.037      344.986       22.190      855.242
06/23/2013  11:09:00     -293.439      -32.221      -19.720      127.356      104.470       56.253    16219.598    10914.077     3164.451        5.891        1.515      295.203       60.749        0.042      344.975       22.173      855.245
06/23/2013  11:10:00     -213.881     -108.218        1.999      102.778       82.120       50.211    10563.309     6743.653     2521.151        3.864        0.991      239.701       49.470        0.043      345.130       22.438      855.226
06/23/2013  11:11:00     -114.059      -66.056       26.140      115.192      126.597       59.737    13269.307    16026.718     3568.502        2.545        1.643      131.806       73.327        0.309      345.199       22.559      855.195
06/23/2013  11:12:00     -229.043     -161.391      -10.422      137.665      104.706       64.321    18951.581    10963.271     4137.198        5.633        1.703      280.193       71.829        0.066      345.111       22.406      855.175
06/23/2013  11:13:00     -122.275      -69.514       12.291      102.361      105.278       55.151    10477.752    11083.428     3041.607        2.226        1.230      140.653       63.754        0.205      345.298       22.726      855.194
06/23/2013  11:14:00     -379.456     -185.148      -10.362      172.284      154.339       66.546    29681.781    23820.601     4428.434       11.814        2.897      422.217       68.820        0.027      345.157       22.485      855.174
06/23/2013  11:15:00     -336.857     -157.318        5.316      177.642      220.576       93.046    31556.587    48653.733     8657.516       11.354        4.443      371.782      108.084        0.085      345.153       22.475      855.187
06/23/2013  11:16:00     -347.653     -171.707       -6.224      185.299      169.821       94.058    34335.591    28839.308     8846.981       11.119        3.601      387.744      104.648        0.073      345.139       22.453      855.193
06/23/2013  11:17:00     -270.599     -105.863       -6.195      199.406      107.553       86.183    39762.949    11567.639     7427.502        7.160        2.938      290.570       76.176        0.069      345.168       22.501      855.202
06/23/2013  11:18:00     -430.021     -175.821        1.510      267.553      168.925       98.680    71584.840    28535.807     9737.771       16.282        5.493      464.576       90.151        0.038      345.043       22.287      855.163
06/23/2013  11:19:00     -462.593     -287.245       -2.236      331.798      225.789      109.465   110089.880    50980.681    11982.494       23.475        8.653      544.520      157.000        0.083      345.000       22.215      855.163
06/23/2013  11:20:00     -627.768     -222.047      -17.225      253.499      267.552      113.262    64261.639    71584.199    12828.370       29.616        7.434      665.881      131.134        0.039      344.965       22.156      855.152
06/23/2013  11:21:00     -311.370     -159.708        5.432      259.643      190.627       99.303    67414.724    36338.535     9861.087       11.803        5.681      349.940      126.662        0.131      345.049       22.299      855.178
06/23/2013  11:22:00     -372.702      -88.156      -13.176      216.298      127.150       84.543    46784.996    16167.109     7147.445       10.846        3.505      382.986      102.315        0.071      345.022       22.253      855.205
06/23/2013  11:23:00     -204.338     -130.582       -2.241      145.860      112.471       60.865    21275.074    12649.701     3704.547        4.821        1.881      242.499       67.727        0.078      345.013       22.238      855.191
06/23/2013  11:24:00     -186.298     -116.917       10.395      152.526      110.145       58.401    23264.066    12131.885     3410.649        4.364        1.940      219.946       61.763        0.079      345.072       22.339      855.202
06/23/2013  11:25:00     -435.222      -97.824      -11.912      218.872      170.449       91.110    47905.055    29052.996     8301.064       14.218        4.263      446.080      108.588        0.059      344.961       22.148      855.182
06/23/2013  11:26:00     -497.791     -263.047      -27.944      208.867      217.343       99.363    43625.220    47238.004     9872.987       20.923        5.037      563.018       95.786        0.029      344.849       21.956      855.173
06/23/2013  11:27:00     -299.057     -235.182       -3.814      204.310      162.375       98.792    41742.408    26365.722     9759.890       11.130        3.893      380.454      110.251        0.084      344.930       22.096      855.204
06/23/2013  11:28:00     -354.678     -164.448      -20.363      176.773      140.925       78.419    31248.551    19859.787     6149.501       10.524        2.863      390.947       83.886        0.046      344.886       22.019      855.222
06/23/2013  11:29:00     -339.889     -120.793      -12.874      155.617      115.783       66.452    24216.547    13405.788     4415.910        8.615        2.102      360.716       60.911        0.029      344.965       22.155      855.236
06/23/2013  11:30:00     -328.754     -222.993       -2.408      154.131      159.278       84.850    23756.338    25369.481     7199.592       10.706        2.816      397.247       79.845        0.040      344.931       22.096      855.257
06/23/2013  11:31:00     -198.018     -167.305        9.415      152.109      106.615       72.193    23137.049    11366.719     5211.792        5.350        1.986      259.234       86.700        0.112      345.026       22.260      855.244
06/23/2013  11:32:00     -343.976     -139.531      -16.574      182.587      141.010       67.179    33338.011    19883.721     4513.075        9.789        2.887      371.198       73.854        0.040      344.953       22.134      855.256
06/23/2013  11:33:00     -293.075     -163.352       -4.517      117.599      110.752       61.703    13829.498    12265.945     3807.303        7.124        1.495      335.525       48.660        0.021      345.018       22.245      855.268
06/23/2013  11:34:00     -160.037      -90.379       -1.615      128.890      116.731       59.275    16612.743    13626.126     3513.505        3.376        1.688      183.794       58.529        0.101      345.093       22.376      855.249
06/23/2013  11:35:00     -367.147     -168.877      -14.168      191.502       90.714       61.605    36672.921     8229.024     3795.227       10.610        2.435      404.124       69.748        0.030      345.076       22.344      855.237
06/23/2013  11:36:00     -354.711      -59.205       -1.115      215.188      117.429       80.573    46305.704    13789.627     6492.036        9.794        3.329      359.618       89.788        0.062      345.054       22.309      855.215
06/23/2013  11:37:00     -327.772     -151.018        5.846      164.272      151.541       76.842    26985.178    22964.560     5904.665        9.305        2.793      360.889       88.807        0.061      345.114       22.410      855.205
06/23/2013  11:38:00     -483.458     -341.913       -9.139      213.227      197.243      114.717    45465.615    38904.866    13159.938       22.411        4.877      592.146      126.377        0.046      344.966       22.157      855.201
06/23/2013  11:39:00     -346.225     -139.455        8.399      207.155      139.708       72.713    42913.142    19518.239     5287.223       10.354        3.386      373.255       81.744        0.048      345.033       22.271      855.232
06/23/2013  11:40:00     -307.281     -129.737        2.865      212.006      141.246       82.112    44946.558    19950.504     6742.448        9.144        3.582      333.546      101.976        0.093      344.971       22.166      855.213
06/23/2013  11:41:00     -198.860      -84.065       12.393      142.317       89.852       63.690    20254.122     8073.360     4056.458        3.957        1.619      215.899       68.102        0.099      345.047       22.296      855.211
06/23/2013  11:42:00     -181.066      -92.021       34.775      211.299      135.291       80.572    44647.095    18303.712     6491.815        5.594        3.472      203.107      109.334        0.290      345.150       22.473      855.207
06/23/2013  11:43:00     -371.420     -298.902        1.838      211.865      148.389      104.048    44886.712    22019.262    10826.026       15.250        3.887      476.755      111.267        0.054      344.909       22.059      855.180
06/23/2013  11:44:00     -259.938     -226.447        5.414      210.070      175.379       92.852    44129.345    30757.881     8621.548       10.118        4.175      344.741      105.388        0.093      345.030       22.265      855.211
06/23/2013  11:45:00     -153.313     -218.215        1.802      155.121      132.225       75.536    24062.437    17483.336     5705.762        5.918        2.363      266.688       76.504        0.082      345.107       22.398      855.199
06/23/2013  11:46:00     -339.037     -334.765      -11.151      238.119      217.445      107.089    56700.749    47282.388    11467.974       17.127        5.773      476.460      116.642        0.060      345.019       22.247      855.193
06/23/2013  11:47:00     -245.362     -218.565        7.896      216.964      187.430      109.450    47073.266    35129.888    11979.327       10.109        4.709      328.593      114.600        0.122      345.115       22.413      855.218
06/23/2013  11:48:00     -138.597     -120.880      -13.429      142.136      123.099       65.057    20202.734    15153.268     4232.466        3.679        1.979      183.905       43.385        0.056      345.075       22.343      855.217
06/23/2013  11:49:00     -218.758     -378.175      -40.888      116.063      176.519       67.438    13470.595    31159.077     4547.940       12.085        2.459      436.888       37.101        0.007      345.003       22.220      855.262
06/23/2013  11:50:00     -187.058     -255.601       -0.557      112.755      188.132       68.519    12713.600    35393.742     4694.835        7.655        2.640      316.738       56.285        0.032      344.966       22.158      855.237
06/23/2013  11:51:00     -272.164     -145.122       19.497      174.844      129.590       82.331    30570.373    16793.692     6778.348        7.482        2.707      308.438       80.896        0.069      345.093       22.375      855.199
06/23/2013  11:52:00     -174.063     -171.820        1.157      186.522      131.069       83.042    34790.324    17178.991     6895.974        5.933        2.943      244.581       81.841        0.112      345.125       22.428      855.193
06/23/2013  11:53:00     -300.511     -331.273        4.235      206.177      148.563       80.492    42508.828    22071.055     6478.961       13.555        3.553      447.268       84.186        0.035      345.070       22.334      855.189
06/23/2013  11:54:00     -297.814     -341.647      -19.724      205.474      165.204       89.968    42219.645    27292.485     8094.302       14.169        3.880      453.229       77.411        0.029      345.088       22.366      855.183
06/23/2013  11:55:00     -356.169     -281.132        1.514      252.550      245.045       98.211    63781.482    60047.176     9645.322       16.966        6.674      453.753       88.940        0.038      345.112       22.406      855.163
06/23/2013  11:56:00     -405.007     -284.759      -22.023      185.921      202.135       93.033    34566.443    40858.507     8655.155       16.483        4.204      495.094       95.625        0.037      344.911       22.062      855.198
06/23/2013  11:57:00     -250.509     -240.050       -8.958      207.055      144.916       81.782    42871.728    21000.712     6688.377        9.550        3.528      346.956      100.548        0.084      344.998       22.212      855.198
06/23/2013  11:58:00     -271.002     -361.831      -10.762      138.253      162.545       75.680    19113.970    26420.735     5727.469       12.786        2.563      452.066       71.566        0.025      344.845       21.949      855.223
06/23/2013  11:59:00      -98.859     -231.413       -0.814      128.380      154.250       65.334    16481.352    23793.015     4268.553        5.393        2.227      251.645       58.965        0.055      345.016       22.244      855.200
06/23/2013  12:00:00      -83.239     -181.317       -7.973       65.889      106.448       43.217     4341.303    11331.164     1867.706        2.870        0.877      199.511       40.966        0.042      345.190       22.540      855.175
06/23/2013  12:01:00      -71.412     -141.634       -0.251      117.513       94.298       53.917    13809.328     8892.104     2907.049        2.538        1.280      158.618       23.815        0.023      345.174       22.514      855.200
06/23/2013  12:02:00       43.670     -193.274      -22.161      100.886      107.180       54.479    10177.967    11487.572     2967.972        3.219        1.232      198.146       54.409        0.075      344.979       22.180      855.191
06/23/2013  12:03:00     -263.519     -132.567       -8.890      230.515      119.793       75.054    53137.278    14350.311     5633.089        8.009        3.656      294.985       81.800        0.077      345.086       22.363      855.204
06/23/2013  12:04:00     -139.787     -263.504        6.544      103.989      159.006       70.022    10813.802    25282.849     4903.036        6.500        2.050      298.286       60.374        0.041      344.878       22.007      855.167
06/23/2013  12:05:00     -198.973       48.144      -11.957      119.714       94.547       45.650    14331.481     8939.067     2083.906        3.370        1.268      204.714       46.115        0.051      345.116       22.416      855.125
06/23/2013  12:06:00     -227.187      -11.149       -8.599      102.487      115.680       63.004    10503.622    13381.819     3969.444        3.983        1.393      227.461       57.549        0.064      345.312       22.749      855.106
06/23/2013  12:07:00     -368.352      -30.779      -14.237      220.577      181.426       83.294    48654.308    32915.273     6937.947       11.265        4.425      369.636       96.756        0.069      345.212       22.578      855.103
06/23/2013  12:08:00     -287.581      -71.149       -1.924      172.020      147.520       70.391    29590.735    21762.033     4954.888        7.203        2.815      296.252       78.804        0.071      345.320       22.763      855.141
06/23/2013  12:09:00     -251.403      -88.822       -7.692      144.042      148.493       68.405    20748.019    22050.049     4679.184        5.931        2.374      266.632       70.868        0.071      345.249       22.641      855.147
06/23/2013  12:10:00     -338.927      -90.700        9.490      253.613      141.727       86.240    64319.518    20086.412     7437.332       10.750        4.592      350.854       91.894        0.069      345.181       22.525      855.130
06/23/2013  12:11:00     -255.539      -32.753       -8.334      137.279      127.367       73.448    18845.632    16222.271     5394.585        5.344        2.023      257.629       71.430        0.077      345.191       22.541      855.113
06/23/2013  12:12:00     -307.198     -138.883        8.332      196.846      163.876       83.574    38748.259    26855.227     6984.626        9.314        3.629      337.134       86.199        0.065      345.232       22.611      855.087
06/23/2013  12:13:00     -352.635     -125.923       -6.469      212.174      177.698       88.723    45017.862    31576.486     7871.734       11.234        4.223      374.444       97.127        0.067      345.147       22.468      855.088
06/23/2013  12:14:00     -351.672     -134.591      -27.717      147.932      160.242       69.821    21883.833    25677.587     4875.019        9.749        2.622      376.548       72.404        0.037      345.173       22.512      855.095
06/23/2013  12:15:00     -152.603      -53.191       21.218      163.323      119.507       68.012    26674.464    14281.816     4625.682        3.607        2.279      161.607       79.452        0.242      345.300       22.729      855.078
06/23/2013  12:16:00     -198.950      -82.878        4.402      105.801      121.002       61.780    11193.917    14641.504     3816.767        3.805        1.483      215.522       51.478        0.057      345.173       22.512      855.066
06/23/2013  12:17:00     -492.365     -225.841      -14.138      213.152      178.411      100.637    45433.878    31830.561    10127.773       19.049        4.370      541.689      109.810        0.041      345.010       22.233      855.055
06/23/2013  12:18:00     -353.432     -165.254       -0.746      242.742      163.661      118.704    58923.499    26784.800    14090.523       12.599        4.990      390.158      116.698        0.089      345.060       22.318      855.045
06/23/2013  12:19:00     -550.196     -182.755      -44.061      239.027      205.790       97.116    57133.909    42349.702     9431.562       22.346        5.446      579.754      109.961        0.036      345.042       22.287      855.064
06/23/2013  12:20:00     -337.567      -25.300       -5.287      214.966      149.319       78.506    46210.184    22296.052     6163.225        9.463        3.733      338.513       99.897        0.087      345.098       22.383      855.072
06/23/2013  12:21:00     -458.444     -184.193      -10.049      276.260      218.137      118.464    76319.331    47583.739    14033.621       19.104        6.897      494.063      141.510        0.082      344.969       22.162      855.071
06/23/2013  12:22:00     -495.504     -205.573      -20.056      310.806      241.738      119.109    96600.368    58437.099    14186.912       22.867        8.461      536.456      137.835        0.066      344.960       22.148      855.030
06/23/2013  12:23:00     -432.962     -206.245       -9.357      226.805      169.357      100.165    51440.668    28681.821    10032.927       16.010        4.508      479.576      108.432        0.051      345.003       22.220      855.043
06/23/2013  12:24:00     -237.543     -208.413      -15.409      233.427      161.451       82.148    54488.270    26066.298     6748.330        9.368        4.365      316.011       91.261        0.083      345.065       22.327      855.062
06/23/2013  12:25:00     -353.153     -263.001      -13.404      239.891      181.846      105.250    57547.863    33067.969    11077.602       14.786        5.085      440.325      121.351        0.076      344.980       22.181      855.078
06/23/2013  12:26:00     -329.846      -72.828        4.863      194.205      141.370       67.573    37715.752    19985.598     4566.074        8.818        3.113      337.790       82.200        0.059      345.070       22.335      855.053
06/23/2013  12:27:00     -461.796     -228.423      -27.751      265.796      183.628      108.268    70647.711    33719.309    11721.995       19.112        5.804      515.202      123.764        0.058      344.996       22.207      855.036
06/23/2013  12:28:00     -342.624     -109.847        5.362      230.201      189.494      109.484    52992.350    35907.802    11986.800       11.517        5.044      359.802      132.916        0.136      345.018       22.246      855.043
06/23/2013  12:29:00     -433.311     -111.042        2.308      195.187      185.678      103.337    38097.957    34476.486    10678.504       14.166        4.163      447.313      103.267        0.053      345.093       22.373      854.999
06/23/2013  12:30:00     -196.121      -91.194       25.733      221.846      164.550       97.554    49215.731    27076.701     9516.703        6.661        4.290      216.286      115.709        0.286      345.213       22.580      855.027
06/23/2013  12:31:00     -547.992     -283.315        2.624      267.648      204.396      125.140    71635.236    41777.896    15660.041       25.480        6.454      616.897      141.272        0.052      345.062       22.321      855.007
06/23/2013  12:32:00     -419.186     -138.562      -18.751      230.341      160.144       99.338    53056.783    25646.142     9867.964       14.190        4.429      441.493      108.952        0.061      345.057       22.313      855.097
06/23/2013  12:33:00     -389.706     -229.456       -6.794      199.632      147.652       85.827    39852.991    21801.178     7366.332       13.678        3.451      452.240       84.705        0.035      345.058       22.312      855.116
06/23/2013  12:34:00     -324.546     -296.347      -17.644      186.413      155.235       82.984    34749.840    24098.001     6886.373       12.959        3.287      439.491       92.583        0.044      345.138       22.452      855.097
06/23/2013  12:35:00     -212.854     -176.090       -2.896      129.276      125.677       77.309    16712.284    15794.763     5976.675        5.740        1.924      276.251       78.939        0.082      345.214       22.582      855.074
06/23/2013  12:36:00     -564.196     -129.588      -27.907      291.766      241.427      110.488    85127.165    58286.893    12207.530       24.573        7.781      578.887      114.903        0.039      345.123       22.424      855.069
06/23/2013  12:37:00     -476.067     -204.639      -15.235      267.277      221.064      104.864    71437.256    48869.340    10996.455       20.000        6.565      518.186      126.742        0.060      344.954       22.137      855.130
06/23/2013  12:38:00     -365.866     -267.272       -5.826      180.440      185.271       98.676    32558.700    34325.439     9736.927       14.096        3.831      453.091       99.725        0.048      345.015       22.241      855.133
06/23/2013  12:39:00     -303.854     -277.706       17.677      220.356      140.006      110.457    48556.890    19601.585    12200.677       12.504        4.018      411.640      127.770        0.096      345.071       22.335      855.132
06/23/2013  12:40:00     -328.454     -126.518       -8.788      222.781      172.087       87.620    49631.251    29613.805     7677.331       10.543        4.346      351.979       89.966        0.065      345.086       22.363      855.168
06/23/2013  12:41:00     -351.104     -135.501       -8.909      192.391      153.725       87.668    37014.166    23631.350     7685.602       10.501        3.417      376.344       85.287        0.051      345.089       22.367      855.183
06/23/2013  12:42:00     -564.496     -229.438       -6.812      285.793      230.190      105.239    81677.403    52987.329    11075.185       25.851        7.287      609.342      149.788        0.060      344.788       21.852      855.147
06/23/2013  12:43:00     -533.350      -99.201      -22.051      287.671      194.230      118.836    82754.775    37725.150    14121.906       21.467        6.730      542.497      133.071        0.060      344.793       21.860      855.178
06/23/2013  12:44:00     -303.989      -33.489       15.345      264.486      251.291      111.481    69953.085    63147.289    12427.905       11.962        7.276      305.828      126.069        0.170      344.955       22.138      855.168
06/23/2013  12:45:00     -424.645       34.154      -21.245      199.763      183.825       81.109    39905.119    33791.762     6578.703       13.109        4.014      426.017       81.042        0.036      344.844       21.948      855.097
06/23/2013  12:46:00     -357.993     -180.852       26.857      309.187      240.186      126.418    95596.605    57689.190    15981.607       16.539        8.463      401.082      154.417        0.148      344.858       21.972      855.148
06/23/2013  12:47:00     -456.584      -39.543      -20.222      236.296      189.756       90.005    55835.863    36007.359     8100.817       15.517        4.997      458.294      108.790        0.056      344.758       21.800      855.167
06/23/2013  12:48:00     -305.685      -66.273       13.025      214.924      141.049       85.792    46192.394    19894.921     7360.208        8.571        3.672      312.787      102.999        0.108      344.835       21.932      855.198
06/23/2013  12:49:00     -266.009      -82.106       -2.518      194.903      124.926       81.284    37987.349    15606.601     6607.096        6.884        3.010      278.392       96.493        0.120      344.962       22.149      855.217
06/23/2013  12:50:00     -393.945     -104.557      -23.695      227.622      201.019      105.315    51811.672    40408.453    11091.220       13.498        5.166      407.584      117.408        0.083      344.768       21.817      855.207
06/23/2013  12:51:00     -417.929     -210.794       -7.059      257.861      235.705      116.319    66492.112    55556.989    13530.032       17.734        6.779      468.080      127.950        0.075      344.736       21.763      855.178
06/23/2013  12:52:00     -458.116     -293.885      -29.618      209.209      196.216      127.373    43768.331    38500.591    16223.871       19.779        4.925      544.278      101.911        0.035      344.689       21.683      855.187
06/23/2013  12:53:00     -387.854     -257.720        0.000      248.568      243.728      109.585    61786.166    59403.364    12008.955       17.500        6.660      465.672      126.558        0.074      344.612       21.551      855.226
06/23/2013  12:54:00     -453.520     -258.690      -18.865      217.770      145.428       92.213    47423.737    21149.251     8503.226       17.500        3.854      522.112       98.115        0.035      344.620       21.563      855.227
06/23/2013  12:55:00     -366.461     -298.616       -7.702      249.497      167.748      119.740    62248.714    28139.251    14337.671       16.410        5.236      472.721      127.362        0.073      344.667       21.644      855.237
06/23/2013  12:56:00     -345.185     -226.685       11.931      244.741      215.804      116.786    59898.292    46571.516    13639.017       14.537        6.005      412.964      138.056        0.112      344.673       21.654      855.270
06/23/2013  12:57:00     -284.873     -155.225       -0.274      208.897      154.426      102.090    43638.099    23847.474    10422.295        9.156        3.895      324.418      109.704        0.114      344.699       21.699      855.300
06/23/2013  12:58:00     -423.648     -130.359       -5.289      230.282      164.180       94.496    53029.856    26955.152     8929.461       14.269        4.446      443.251       94.197        0.045      344.638       21.595      855.347
06/23/2013  12:59:00     -405.772     -162.367      -20.371      187.361      248.038       87.834    35104.330    61523.061     7714.738       14.787        5.217      437.052       96.823        0.049      344.577       21.491      855.347
06/23/2013  13:00:00     -461.634       35.634      -13.809      206.141      196.752       93.650    42494.025    38711.484     8770.393       15.225        4.499      463.007       91.196        0.039      344.511       21.378      855.385
06/23/2013  13:01:00     -259.019      -69.962       -1.967      155.042      137.547       70.359    24038.103    18919.217     4950.414        5.994        2.395      268.301       69.848        0.068      344.573       21.484      855.411
06/23/2013  13:02:00     -348.524      -90.711       -1.767      178.578      183.594       98.178    31890.131    33706.823     9638.995       10.245        3.762      360.136       94.304        0.069      344.501       21.362      855.423
06/23/2013  13:03:00     -290.096      -79.105      -18.164      192.929      116.965       65.564    37221.757    13680.698     4298.684        7.296        2.760      300.688       75.168        0.062      344.474       21.315      855.450
06/23/2013  13:04:00     -335.972     -235.006        2.974      250.454      171.510      127.444    62726.978    29415.534    16241.860       13.823        5.419      410.006      143.694        0.123      344.413       21.211      855.474
06/23/2013  13:05:00     -249.460      -43.389        9.831      219.413      155.799       99.937    48141.849    24273.206     9987.395        7.329        4.120      253.206      108.758        0.184      344.385       21.163      855.458
06/23/2013  13:06:00     -331.704        4.640        5.317      245.145      176.299       99.656    60096.129    31081.166     9931.333       10.557        5.055      331.736      108.510        0.107      344.293       21.006      855.458
06/23/2013  13:07:00     -626.611     -174.139       -9.940      330.602      241.620      112.525   109297.752    58380.225    12661.933       30.167        9.017      650.359      122.070        0.035      344.107       20.688      855.424
06/23/2013  13:08:00     -607.017     -195.032      -13.057      286.632      195.938      120.978    82157.704    38391.596    14635.670       27.091        6.759      637.579      131.627        0.043      344.091       20.660      855.404
06/23/2013  13:09:00     -549.606      -93.396      -19.692      273.202      204.492       92.965    74639.488    41816.807     8642.474       21.811        6.255      557.485      101.821        0.033      344.094       20.665      855.463
06/23/2013  13:10:00     -508.013     -132.606      -26.034      281.819      189.516      103.040    79421.687    35916.222    10617.282       20.112        6.298      525.035      117.566        0.050      344.023       20.544      855.450
06/23/2013  13:11:00     -447.837      -96.109      -17.087      289.326      239.594      102.047    83709.323    57405.448    10413.569       18.078        7.576      458.034      115.893        0.064      343.996       20.500      855.442
06/23/2013  13:12:00     -821.148     -231.863      -30.635      401.943      274.073      132.083   161557.903    75116.234    17446.031       49.150       12.706      853.255      155.250        0.033      343.806       20.173      855.450
06/23/2013  13:13:00     -563.621     -159.445      -39.222      263.424      186.795      113.396    69392.118    34892.498    12858.607       23.086        5.857      585.740      135.826        0.054      343.800       20.164      855.452
06/23/2013  13:14:00     -696.337     -139.116      -15.999      284.113      195.905      102.342    80720.381    38378.585    10473.821       31.701        6.479      710.098      116.995        0.027      343.719       20.024      855.416
06/23/2013  13:15:00     -568.445     -167.601      -17.555      262.965      255.876      114.043    69150.782    65472.727    13005.877       24.955        7.381      592.638      126.682        0.046      343.784       20.135      855.440
06/23/2013  13:16:00     -551.211     -142.569      -17.520      349.110      241.563      112.285   121877.641    58352.921    12607.863       25.861        9.642      569.350      124.169        0.048      343.761       20.098      855.417
06/23/2013  13:17:00     -641.384     -221.662      -11.737      329.707      249.667      121.920   108706.451    62333.712    14864.604       32.324        9.295      678.607      155.077        0.052      343.683       19.964      855.391
06/23/2013  13:18:00     -724.068     -199.464      -14.474      339.176      232.573      110.600   115040.351    54090.191    12232.411       37.278        9.068      751.039      131.075        0.030      343.610       19.840      855.417
06/23/2013  13:19:00     -575.392      -75.822      -16.894      269.435      200.429      113.930    72595.383    40171.853    12980.153       23.140        6.287      580.367      135.828        0.055      343.660       19.924      855.427
06/23/2013  13:20:00     -445.613      -30.538       -4.604      267.087      252.014      103.426    71335.674    63511.217    10697.000       17.251        7.277      446.658      116.637        0.068      343.688       19.973      855.447
06/23/2013  13:21:00     -382.591     -157.730      -11.550      268.794      223.137      112.663    72250.011    49790.276    12692.964       15.303        6.737      413.829      114.397        0.076      343.674       19.948      855.454
06/23/2013  13:22:00     -472.369     -182.683      -14.362      331.008      172.918      105.553   109566.072    29900.618    11141.349       20.363        7.530      506.464      132.643        0.069      343.661       19.927      855.491
06/23/2013  13:23:00     -346.542      -96.378        3.771      295.993      238.644      111.152    87611.989    56950.982    12354.690       14.313        7.846      359.695      141.649        0.155      343.681       19.961      855.500
06/23/2013  13:24:00     -553.062     -137.174       -6.734      319.481      231.963      129.389   102068.358    53806.949    16741.501       24.864        8.631      569.819      140.675        0.061      343.621       19.858      855.525
06/23/2013  13:25:00     -766.376     -129.105      -34.371      331.575      251.436      118.868   109941.662    63219.933    14129.586       39.620        9.365      777.175      135.805        0.031      343.547       19.733      855.449
06/23/2013  13:26:00     -680.462     -157.589       -5.346      306.288      209.570      120.434    93812.171    43919.472    14504.337       32.003        7.612      698.472      136.317        0.038      343.543       19.724      855.435
06/23/2013  13:27:00     -473.521     -154.653       -6.526      344.835      230.465      132.589   118911.392    53113.971    17579.729       21.886        9.480      498.136      177.705        0.127      343.588       19.803      855.470
06/23/2013  13:28:00     -676.298     -213.052       -6.240      394.710      219.506      142.741   155795.817    48182.981    20374.904       36.354       11.218      709.063      174.333        0.060      343.535       19.712      855.445
06/23/2013  13:29:00     -726.422     -219.580      -42.234      357.811      252.292      135.111   128028.947    63651.110    18254.972       39.377       10.497      758.884      159.806        0.044      343.522       19.690      855.488
06/23/2013  13:30:00     -554.856     -199.091       -8.515      303.350      258.581      139.059    92021.381    66864.004    19337.409       26.286        8.911      589.494      148.821        0.064      343.533       19.710      855.476
06/23/2013  13:31:00     -726.778     -313.647      -13.287      395.720      275.122      142.045   156594.443    75692.267    20176.737       43.956       12.623      791.569      167.025        0.045      343.520       19.684      855.483
06/23/2013  13:32:00     -528.466     -205.295        7.993      344.725      230.315      144.625   118835.365    53045.151    20916.415       25.710        9.640      566.941      177.885        0.098      343.567       19.766      855.530
06/23/2013  13:33:00     -519.123     -216.373      -14.670      262.334      247.349      107.578    68818.919    61181.333    11573.112       22.902        7.079      562.411      118.247        0.044      343.559       19.752      855.588
06/23/2013  13:34:00     -400.424     -131.176      -14.200      238.149      173.811       99.351    56714.809    30210.303     9870.716       13.725        4.840      421.363      118.261        0.079      343.583       19.793      855.665
06/23/2013  13:35:00     -427.337     -188.025       -0.433      300.853      237.714      120.170    90512.505    56507.727    14440.882       18.968        8.073      466.873      133.511        0.082      343.594       19.813      855.697
06/23/2013  13:36:00     -414.033      -76.759       -7.483      284.621      145.022       97.805    81009.373    21031.366     9565.880       14.447        5.580      421.088      125.115        0.088      343.592       19.809      855.724
06/23/2013  13:37:00     -393.080     -169.042        5.547      228.663      221.235      109.562    52286.652    48945.093    12003.936       14.815        5.662      427.887      108.180        0.064      343.617       19.851      855.741
06/23/2013  13:38:00     -575.447     -270.137      -11.284      385.502      246.928      128.717   148611.592    60973.668    16568.163       31.515       11.308      635.699      143.080        0.051      343.614       19.846      855.794
06/23/2013  13:39:00     -679.724     -404.627      -22.787      306.254      283.074      125.594    93791.285    80130.784    15773.948       40.795        9.485      791.043      130.288        0.027      343.525       19.695      855.778
06/23/2013  13:40:00     -399.956      -94.870        0.265      254.409      195.721      112.289    64723.710    38306.713    12608.863       14.228        5.782      411.053      131.195        0.102      343.596       19.816      855.873
06/23/2013  13:41:00     -389.621     -244.852       14.462      297.348      209.560      119.993    88415.667    43915.544    14398.345       17.932        7.336      460.170      100.827        0.048      343.565       19.763      855.892
06/23/2013  13:42:00     -420.527     -230.715        2.491      279.291      230.704      128.247    78003.492    53224.425    16447.334       18.885        7.384      479.658      125.053        0.068      343.547       19.732      855.929
06/23/2013  13:43:00     -445.089     -215.018      -10.115      335.476      278.683      111.593   112544.439    77663.942    12453.086       22.351       10.133      494.305      164.390        0.111      343.514       19.676      855.959
06/23/2013  13:44:00     -620.046     -276.853      -21.804      311.046      203.869       99.583    96749.739    41562.415     9916.752       30.488        7.411      679.046      125.017        0.034      343.448       19.564      855.942
06/23/2013  13:45:00     -435.249      -75.425      -27.973      271.846      167.266       98.470    73900.468    27977.750     9696.286       15.372        5.579      441.736      114.555        0.067      343.507       19.664      855.956
06/23/2013  13:46:00     -393.449     -133.511       17.781      331.385      210.585      132.818   109816.026    44345.849    17640.537       17.234        8.590      415.485      155.110        0.139      343.478       19.615      855.925
06/23/2013  13:47:00     -425.480     -239.037      -10.061      197.127      190.335      103.922    38858.969    36227.303    10799.856       16.206        4.294      488.029      107.756        0.049      343.455       19.576      855.919
06/23/2013  13:48:00     -442.002     -260.234      -23.126      242.435      198.272      116.134    58774.701    39311.875    13487.089       18.758        5.579      512.921      123.898        0.058      343.450       19.568      855.901
06/23/2013  13:49:00     -458.454     -143.032        8.036      246.725      198.386       91.627    60873.267    39356.918     8395.539       16.964        5.431      480.249      101.761        0.045      343.442       19.553      855.889
06/23/2013  13:50:00     -360.596     -113.159       -6.257      253.375      186.471      115.546    64198.773    34771.340    13350.982       12.758        5.616      377.934      134.442        0.127      343.447       19.563      855.885
06/23/2013  13:51:00     -265.936     -111.604       16.606      231.708      188.032       98.124    53688.510    35355.925     9628.417        9.104        4.934      288.405      116.353        0.163      343.487       19.630      855.914
06/23/2013  13:52:00     -614.118     -162.476      -18.680      297.851      297.712      132.229    88715.269    88632.321    17484.640       29.932        9.742      635.247      154.380        0.059      343.429       19.531      855.979
06/23/2013  13:53:00     -526.055     -275.289      -40.029      235.886      179.201      116.609    55642.123    32112.937    13597.717       22.772        5.068      593.732      115.098        0.038      343.428       19.529      856.047
06/23/2013  13:54:00     -436.268     -220.856      -24.474      268.715      241.026      111.927    72207.766    58093.417    12527.697       19.124        7.141      488.986      133.188        0.074      343.413       19.504      856.075
06/23/2013  13:55:00     -700.398     -320.385      -17.475      332.957      283.271      132.739   110860.645    80242.359    17619.691       40.108       10.436      770.197      146.046        0.036      343.336       19.373      856.091
06/23/2013  13:56:00     -509.357     -285.939        1.290      308.554      219.387      126.251    95205.675    48130.832    15939.257       25.021        7.964      584.128      160.077        0.075      343.379       19.447      856.081
06/23/2013  13:57:00     -490.433     -161.406       -7.009      243.783      217.495      102.680    59430.037    47304.141    10543.145       19.193        5.864      516.311      113.343        0.048      343.399       19.481      856.122
06/23/2013  13:58:00     -391.437     -181.486       -5.243      217.065      188.242       92.746    47117.029    35434.968     8601.800       13.865        4.558      431.462      109.492        0.064      343.426       19.525      856.154
06/23/2013  13:59:00     -361.110     -234.483      -14.872      221.952      180.574      104.266    49262.749    32606.987    10871.437       13.915        4.637      430.561      113.685        0.070      343.407       19.492      856.147
06/23/2013  14:00:00     -449.556     -297.969      -13.413      252.935      220.545      123.054    63976.074    48640.268    15142.346       20.939        6.388      539.339      128.775        0.057      343.375       19.440      856.084
06/23/2013  14:01:00     -482.434     -213.655        8.019      270.447      209.121      118.265    73141.755    43731.589    13986.562       20.463        6.543      527.628      132.301        0.063      343.388       19.461      856.085
06/23/2013  14:02:00     -532.029     -180.171      -13.085      262.411      204.883      105.890    68859.773    41976.894    11212.753       21.884        6.102      561.709      111.643        0.040      343.360       19.414      856.060
06/23/2013  14:03:00     -326.357     -207.179        5.481      205.872      227.955      109.524    42383.205    51963.277    11995.544       12.788        5.317      386.565      126.757        0.108      343.408       19.496      856.070
06/23/2013  14:04:00     -348.056     -257.230       16.625      269.720      223.040      125.906    72748.840    49746.842    15852.313       16.294        6.917      432.793      158.671        0.134      343.392       19.469      856.033
06/23/2013  14:05:00     -191.977      -72.754       20.376      170.168      120.073       76.307    28957.119    14417.523     5822.812        4.587        2.460      205.300       80.156        0.152      343.496       19.647      856.075
06/23/2013  14:06:00     -376.286     -178.313       -9.516      223.161      153.342       85.597    49800.948    23513.692     7326.914       12.704        4.032      416.398       99.988        0.058      343.412       19.502      856.143
06/23/2013  14:07:00     -378.912     -211.180      -14.090      184.923      167.287       97.924    34196.446    27985.053     9589.187       13.006        3.589      433.787       84.455        0.038      343.404       19.488      856.171
06/23/2013  14:08:00     -379.958     -245.819        4.345      238.937      208.335      102.858    57091.068    43403.285    10579.818       15.792        5.554      452.543      121.855        0.073      343.304       19.318      856.219
06/23/2013  14:09:00     -415.158      -71.591      -16.266      229.124      147.006       85.406    52497.818    21610.731     7294.226       12.956        4.070      421.285      104.037        0.061      343.320       19.344      856.259
06/23/2013  14:10:00     -414.808     -174.548       -3.941      329.959      215.770      122.905   108873.230    46556.532    15105.581       18.651        8.527      450.036      151.822        0.114      343.246       19.219      856.278
06/23/2013  14:11:00     -595.551     -149.645      -15.983      262.627      187.261      105.548    68973.099    35066.709    11140.467       24.623        5.759      614.064      121.006        0.039      343.157       19.067      856.300
06/23/2013  14:12:00     -465.181     -129.416      -10.166      198.269      186.836       95.502    39310.486    34907.754     9120.574       15.828        4.167      482.847       95.781        0.039      343.179       19.104      856.315
06/23/2013  14:13:00     -375.586     -169.275      -12.121      257.771      154.465       86.956    66445.806    23859.549     7561.341       13.385        4.893      411.970      111.613        0.073      343.145       19.047      856.342
06/23/2013  14:14:00     -367.080     -168.616       -3.314      273.502      169.423       94.892    74803.107    28704.320     9004.480       13.783        5.626      403.954      122.337        0.092      343.124       19.012      856.334
06/23/2013  14:15:00     -350.534     -226.186        5.460      307.275      225.573       88.575    94417.740    50883.076     7845.603       16.358        7.657      417.174      131.336        0.099      343.150       19.055      856.359
06/23/2013  14:16:00     -545.999     -329.831      -38.547      294.342      194.284      107.657    86637.128    37746.361    11590.036       27.216        6.799      637.890      120.416        0.036      343.048       18.882      856.305
06/23/2013  14:17:00     -619.236     -317.956      -27.249      263.170      180.371      115.769    69258.605    32533.801    13402.415       30.022        5.760      696.096      113.935        0.027      343.023       18.838      856.313
06/23/2013  14:18:00     -355.459     -231.283        6.283      195.169      162.191      111.298    38090.925    26305.964    12387.174       12.832        3.839      424.079      109.057        0.066      343.092       18.957      856.330
06/23/2013  14:19:00     -240.025     -189.394        5.672      183.281      150.304       90.184    33591.937    22591.143     8133.079        7.890        3.216      305.748      103.346        0.114      343.159       19.072      856.337
06/23/2013  14:20:00     -557.437     -218.112      -23.032      361.650      215.235      125.620   130791.007    46325.923    15780.445       27.583        9.645      598.589      157.133        0.069      343.076       18.929      856.341
06/23/2013  14:21:00     -465.826     -233.165       -6.949      230.127      203.818      107.587    52958.273    41541.639    11574.892       18.872        5.304      520.922      119.102        0.052      343.014       18.825      856.308
06/23/2013  14:22:00     -329.920     -138.367        7.285      203.888      220.777       94.763    41570.406    48742.633     8979.944       11.365        4.965      357.761      109.092        0.093      343.026       18.844      856.294
06/23/2013  14:23:00     -522.826     -220.716      -41.462      258.411      188.204       91.389    66776.032    35420.684     8351.984       21.714        5.527      567.506      113.351        0.040      343.006       18.810      856.285
06/23/2013  14:24:00     -444.446     -149.918        0.969      272.715      193.346      102.721    74373.650    37382.818    10551.690       17.113        6.115      469.050      109.161        0.054      343.051       18.888      856.299
06/23/2013  14:25:00     -339.761     -130.234        1.230      207.787      193.240      105.168    43175.249    37341.867    11060.315       11.197        4.579      363.866      103.363        0.081      343.081       18.938      856.293
06/23/2013  14:26:00     -491.965      -64.993      -22.655      362.742      144.282       96.182   131581.728    20817.213     9250.897       20.418        8.082      496.240      148.515        0.090      343.072       18.923      856.284
06/23/2013  14:27:00     -527.214     -133.749      -22.574      206.474      177.543       82.639    42631.580    31521.395     6829.278       18.865        4.049      543.915       86.374        0.025      342.977       18.761      856.260
06/23/2013  14:28:00     -357.215     -184.845       -3.306      262.908      179.109       86.227    69120.706    32079.958     7435.178       13.519        5.432      402.207      113.799        0.080      343.040       18.869      856.256
06/23/2013  14:29:00     -333.161      -46.043      -13.829      143.863      148.924       79.547    20696.428    22178.405     6327.733        8.125        2.460      336.328       74.298        0.049      343.057       18.897      856.285
06/23/2013  14:30:00     -312.717     -164.277      -26.868      179.647      166.396       95.734    32272.918    27687.484     9165.088        9.730        3.456      353.240       87.409        0.061      343.046       18.879      856.305
06/23/2013  14:31:00     -343.059     -221.226        7.174      193.945      150.104       97.933    37614.783    22531.305     9590.803       11.820        3.487      408.204       92.293        0.051      342.932       18.685      856.335
06/23/2013  14:32:00     -270.262     -147.004       -1.198      191.709      181.017      106.843    36752.314    32767.132    11415.509        8.778        4.047      307.656      111.395        0.131      342.995       18.793      856.360
06/23/2013  14:33:00     -564.422     -160.898      -18.328      209.069      171.457      101.822    43710.035    29397.603    10367.759       21.412        4.174      586.907      112.476        0.037      342.889       18.613      856.390
06/23/2013  14:34:00     -310.032     -209.447       -5.962      152.645      152.090       79.814    23300.553    23131.391     6370.270        9.640        2.640      374.150       82.823        0.049      342.974       18.754      856.395
06/23/2013  14:35:00     -322.196     -201.507       11.014      237.099      147.450       97.293    56215.932    21741.371     9465.854       11.596        4.371      380.020      124.481        0.107      342.991       18.785      856.363
06/23/2013  14:36:00     -369.782     -251.219        8.156      179.521      181.938      104.587    32227.870    33101.514    10938.365       13.808        3.813      447.045      106.953        0.057      342.955       18.723      856.284
06/23/2013  14:37:00     -345.172       -2.922       -1.029      189.051      126.256       79.055    35740.166    15940.689     6249.685        8.853        2.897      345.185       70.668        0.042      343.009       18.816      856.248
06/23/2013  14:38:00     -285.088     -103.167       -2.741      238.093      153.382       96.537    56688.318    23526.047     9319.436        9.071        4.477      303.181      105.951        0.122      343.030       18.852      856.227
06/23/2013  14:39:00     -285.839      -66.363        2.744      136.006      164.497       75.437    18497.713    27059.170     5690.781        6.867        2.562      293.441       66.632        0.052      343.016       18.827      856.222
06/23/2013  14:40:00     -234.337      -89.692       13.115      146.478      128.895       86.300    21455.699    16613.908     7447.737        5.432        2.276      250.916       79.491        0.100      343.035       18.860      856.184
06/23/2013  14:41:00     -324.335     -105.981      -11.208      225.548      195.937       96.299    50871.931    38391.373     9273.415       10.752        4.927      341.211      104.174        0.093      343.004       18.808      856.200
06/23/2013  14:42:00     -618.463     -192.412      -13.231      273.902      262.271      120.748    75022.526    68786.225    14580.189       28.901        7.919      647.703      110.610        0.029      342.907       18.643      856.185
06/23/2013  14:43:00     -330.856     -129.842       -1.012      229.650      148.466       84.893    52739.255    22042.217     7206.863       10.414        4.099      355.422       90.419        0.065      342.981       18.769      856.222
06/23/2013  14:44:00     -418.601     -281.587      -21.489      183.585      209.234       94.009    33703.580    43778.729     8837.628       17.063        4.316      504.497       88.831        0.031      342.943       18.704      856.209
06/23/2013  14:45:00     -138.024     -121.064       35.290      204.780      159.244       87.279    41934.918    25358.543     7617.686        5.492        3.746      183.595      113.905        0.385      343.054       18.892      856.203
06/23/2013  14:46:00     -391.507     -231.119      -13.827      213.205      173.726      105.759    45456.382    30180.788    11184.915       14.684        4.341      454.636      113.657        0.062      342.931       18.683      856.154
06/23/2013  14:47:00     -182.815     -135.069       13.801      217.237      158.280       91.135    47191.960    25052.634     8305.534        6.619        4.028      227.299      108.320        0.227      343.022       18.839      856.127
06/23/2013  14:48:00     -257.498     -152.014       -4.385      198.634      156.653       99.247    39455.567    24540.082     9849.942        8.162        3.692      299.021      104.444        0.122      343.010       18.817      856.100
06/23/2013  14:49:00     -344.584     -176.474        6.969      201.309      138.764       74.253    40525.208    19255.416     5513.553       10.760        3.265      387.145       85.672        0.049      342.949       18.714      856.085
06/23/2013  14:50:00     -210.253     -180.811       14.019      165.740      125.582       75.941    27469.802    15770.890     5767.054        6.304        2.450      277.307       84.178        0.092      342.952       18.719      856.089
06/23/2013  14:51:00     -496.549      -93.286      -17.480      280.710      248.583      101.872    78798.122    61793.441    10377.961       20.324        7.548      505.235      121.391        0.058      342.932       18.686      856.073
06/23/2013  14:52:00     -355.441     -224.481       -7.691      204.897      168.646       95.568    41982.871    28441.333     9133.185       12.816        3.978      420.393       94.679        0.051      342.916       18.657      856.072
06/23/2013  14:53:00     -341.897     -171.944      -17.490      242.679      161.995      101.765    58893.090    26242.514    10356.179       12.111        4.775      382.699      123.394        0.104      342.941       18.698      856.073
06/23/2013  14:54:00     -302.031     -208.585        4.541      192.117      134.886       92.550    36908.838    18194.167     8565.494        9.920        3.183      367.057      104.129        0.080      342.934       18.689      856.055
06/23/2013  14:55:00     -262.661      -69.869       -5.101      136.678      161.936       60.804    18680.875    26223.275     3697.128        6.124        2.430      271.795       56.504        0.043      342.922       18.667      856.046
06/23/2013  14:56:00     -262.683     -177.887       -6.623      143.848      106.707       59.553    20692.163    11386.378     3546.575        6.815        1.781      317.248       65.095        0.042      342.925       18.674      856.053
06/23/2013  14:57:00     -224.385      -75.934        4.310      128.137      134.537       46.450    16419.052    18100.149     2157.646        4.640        1.834      236.885       54.967        0.054      342.944       18.705      856.046
06/23/2013  14:58:00     -283.408      -41.441      -22.447      148.147      140.388       67.915    21947.421    19708.660     4612.506        6.440        2.313      286.422       68.562        0.057      342.979       18.765      856.030
06/23/2013  14:59:00     -279.889      -54.602       -9.106      186.769      157.945       76.986    34882.710    24946.656     5926.801        7.357        3.288      285.165       80.263        0.079      342.941       18.702      855.996
06/23/2013  15:00:00     -291.891     -219.272       16.348      224.875      189.099       85.915    50568.611    35758.435     7381.456       11.361        4.685      365.076      107.155        0.086      342.928       18.678      856.011
06/23/2013  15:01:00     -510.943     -273.815      -20.657      285.063      236.892      120.697    81260.985    56118.032    14567.795       24.418        7.597      579.687      137.954        0.057      342.894       18.620      855.989
06/23/2013  15:02:00     -391.984     -295.555        4.753      224.978      177.916       93.990    50615.180    31654.174     8834.179       16.605        4.555      490.921      100.755        0.042      342.869       18.577      855.981
06/23/2013  15:03:00     -455.165     -331.227        5.724      215.172      153.458      105.913    46298.931    23549.207    11217.527       19.898        4.053      562.926      109.122        0.038      342.873       18.585      855.987
06/23/2013  15:04:00     -312.896     -228.849        6.944      166.199      142.819       82.114    27622.104    20397.242     6742.757       10.253        2.738      387.654       81.483        0.044      342.870       18.579      856.039
06/23/2013  15:05:00     -217.619      -80.532        7.905      151.466      106.335       63.677    22941.850    11307.201     4054.755        4.610        1.915      232.042       74.691        0.104      342.960       18.734      856.075
06/23/2013  15:06:00     -206.210     -114.106      -20.287      124.307      103.859       55.384    15452.140    10786.683     3067.339        4.262        1.465      235.675       58.817        0.062      342.880       18.597      856.099
06/23/2013  15:07:00     -365.140     -189.096       -7.258      187.384      189.636       82.557    35112.672    35961.715     6815.603       12.350        3.894      411.199       86.423        0.044      342.827       18.505      856.092
06/23/2013  15:08:00     -469.352     -302.201      -22.685      282.915      207.510      129.236    80040.947    43060.459    16701.972       22.594        6.990      558.226      132.912        0.057      342.781       18.427      856.064
06/23/2013  15:09:00     -381.669     -205.236      -18.344      238.197      174.699       73.018    56737.623    30519.603     5331.629       14.034        4.629      433.351       79.227        0.033      342.836       18.520      856.085
06/23/2013  15:10:00     -427.537     -220.595      -10.108      286.528      204.962       90.859    82098.392    42009.224     8255.354       18.193        6.618      481.093      119.467        0.062      342.768       18.404      856.097
06/23/2013  15:11:00     -284.210     -192.587      -16.217      157.797      170.915       73.394    24899.821    29211.805     5386.622        8.880        2.975      343.314       59.012        0.030      342.808       18.473      856.102
06/23/2013  15:12:00     -249.674     -212.926       -0.163      182.380      149.330       85.426    33262.389    22299.582     7297.611        8.525        3.143      328.138       81.422        0.062      342.762       18.395      856.130
06/23/2013  15:13:00     -138.040      -58.917       -6.753      101.493       76.199       49.769    10300.773     5806.232     2476.948        2.057        0.929      150.087       48.756        0.106      342.760       18.394      856.097
06/23/2013  15:14:00     -185.572     -159.247       12.903      149.482      130.446       67.203    22344.727    17016.040     4516.252        5.191        2.194      244.534       71.655        0.086      342.823       18.501      856.128
06/23/2013  15:15:00     -346.691     -128.687      -26.915      207.236      114.118       74.063    42946.811    13023.003     5485.351        9.946        3.073      369.805       84.823        0.053      342.752       18.378      856.153
06/23/2013  15:16:00     -261.989     -248.500      -12.515      146.183      146.181       73.446    21369.541    21368.795     5394.334        8.933        2.407      361.096       62.884        0.030      342.688       18.269      856.132
06/23/2013  15:17:00     -231.140     -153.511       -0.339      178.190      107.253       72.213    31751.539    11503.300     5214.697        6.272        2.423      277.473       89.305        0.104      342.714       18.314      856.104
06/23/2013  15:18:00     -280.192     -239.504       11.992      196.578      178.632       88.251    38642.873    31909.293     7788.215       10.716        3.917      368.606       86.558        0.055      342.688       18.269      856.097
06/23/2013  15:19:00     -188.162     -168.066       -2.295      176.412      102.539       74.167    31121.328    10514.327     5500.738        5.539        2.357      252.292       69.508        0.076      342.684       18.263      856.068
06/23/2013  15:20:00     -135.665      -94.874        7.497      137.906      113.210       65.232    19018.201    12816.463     4255.238        3.177        1.804      165.548       66.084        0.159      342.740       18.359      856.051
06/23/2013  15:21:00     -213.583      -54.370       19.481      202.783      140.408       79.077    41121.062    19714.523     6253.167        5.801        3.354      220.395       89.896        0.166      342.733       18.346      856.031
06/23/2013  15:22:00     -242.539     -242.660        5.415      154.438      140.497       76.889    23851.064    19739.453     5911.853        8.361        2.475      343.087       71.050        0.043      342.665       18.231      856.027
06/23/2013  15:23:00     -262.923     -229.099      -25.027       97.148      125.395       57.416     9437.818    15724.028     3296.615        7.534        1.423      348.733       48.535        0.019      342.663       18.227      856.015
06/23/2013  15:24:00     -233.005     -183.108      -10.036      131.577      172.302       63.369    17312.426    29688.093     4015.613        6.946        2.551      296.344       68.274        0.053      342.687       18.268      855.989
06/23/2013  15:25:00     -418.227     -337.582      -22.101      198.677      156.073      100.026    39472.604    24358.728    10005.125       18.159        3.692      537.472       93.301        0.030      342.645       18.198      855.954
06/23/2013  15:26:00     -305.365     -151.401      -11.590      108.881      114.332       62.694    11855.109    13071.747     3930.535        7.258        1.443      340.837       56.233        0.027      342.672       18.241      855.975
06/23/2013  15:27:00     -239.695     -152.879       -9.284      127.876      131.575       59.927    16352.376    17312.061     3591.288        5.908        1.863      284.299       65.053        0.052      342.691       18.274      855.997
06/23/2013  15:28:00     -109.686      -88.831        7.503       99.070       82.288       38.273     9814.814     6771.271     1464.784        1.901        0.903      141.145       37.804        0.072      342.696       18.286      855.961
06/23/2013  15:29:00     -123.354     -141.940       -9.920       89.011       62.203       33.019     7922.969     3869.239     1090.227        2.417        0.644      188.051       32.312        0.030      342.714       18.314      855.965
06/23/2013  15:30:00     -147.674     -114.145        7.329      146.908       79.763       54.659    21581.953     6362.118     2987.615        3.291        1.547      186.646       72.973        0.153      342.712       18.312      855.937
06/23/2013  15:31:00     -198.100      -84.143       -3.073       91.132       85.294       49.836     8305.102     7275.053     2483.670        3.219        0.903      215.229       54.830        0.065      342.686       18.267      855.941
06/23/2013  15:32:00      -86.901     -150.577       37.623      158.870      140.237       74.953    25239.760    19666.307     5617.961        4.107        2.526      173.854       93.795        0.291      342.737       18.355      855.953
06/23/2013  15:33:00     -176.721     -119.320        2.516      116.570       99.295       52.922    13588.467     9859.574     2800.727        3.586        1.312      213.232       56.547        0.070      342.751       18.377      855.958
06/23/2013  15:34:00      -94.507      -61.180       15.150      126.422      111.708       51.912    15982.640    12478.775     2694.893        2.202        1.558      112.581       63.132        0.314      342.753       18.380      855.914
06/23/2013  15:35:00     -117.870      -10.566        1.065      153.342       59.384       52.614    23513.626     3526.400     2768.216        2.190        1.490      118.343       63.525        0.288      342.774       18.417      855.927
06/23/2013  15:36:00     -205.117     -195.564       -2.059      128.193      166.591       58.263    16433.401    27752.698     3394.552        6.394        2.379      283.405       66.426        0.055      342.801       18.461      855.931
06/23/2013  15:37:00     -314.554     -264.677      -12.947      155.091      113.428       77.110    24053.309    12865.886     5945.924       10.601        2.143      411.094       79.281        0.037      342.762       18.397      855.925
06/23/2013  15:38:00     -156.950      -95.718        0.869      109.466       69.874       50.372    11982.765     4882.359     2537.300        2.660        0.970      183.834       59.842        0.106      342.813       18.484      855.898
06/23/2013  15:39:00       -8.669     -125.707       23.377      119.310      106.460       50.651    14234.791    11333.723     2565.554        2.227        1.407      126.005       50.003        0.157      342.784       18.433      855.866
06/23/2013  15:40:00     -137.148      -34.802        6.319      103.772       79.737       45.612    10768.601     6357.977     2080.432        1.963        0.960      141.495       43.594        0.095      342.843       18.535      855.859
06/23/2013  15:41:00     -152.901     -102.579       13.462      159.966      108.242       67.716    25589.158    11716.417     4585.408        3.798        2.095      184.123       76.877        0.174      342.806       18.471      855.842
06/23/2013  15:42:00     -144.416     -242.700       -5.427       85.157       88.142       49.669     7251.671     7768.972     2466.979        4.863        0.874      282.417       41.455        0.022      342.818       18.490      855.862
06/23/2013  15:43:00     -374.439     -198.282        7.487      210.059      135.181       89.368    44124.954    18273.818     7986.715       12.497        3.519      423.698      100.751        0.057      342.786       18.436      855.845
06/23/2013  15:44:00     -391.194     -150.201      -21.912      142.308      132.559       68.021    20251.537    17571.833     4626.808       10.925        2.123      419.038       54.207        0.017      342.761       18.393      855.822
06/23/2013  15:45:00     -213.957     -110.699       -5.005       97.956       95.867       56.985     9595.296     9190.516     3247.330        4.004        1.102      240.898       44.187        0.034      342.830       18.510      855.825
06/23/2013  15:46:00     -199.927     -120.575       -2.951      105.643       64.356       43.966    11160.402     4141.698     1932.972        3.587        0.862      233.472       28.041        0.014      342.896       18.624      855.819
06/23/2013  15:47:00     -316.724     -161.648       -1.955      187.920      171.723       87.358    35313.834    29488.784     7631.418        9.943        3.622      355.590       92.109        0.067      342.842       18.530      855.813
06/23/2013  15:48:00     -310.879     -124.287       -3.813      132.983      146.854       76.897    17684.609    21566.215     5913.081        7.863        2.258      334.803       70.769        0.045      342.855       18.553      855.757
06/23/2013  15:49:00     -351.296      -60.218       -7.741      143.061      122.310       67.156    20466.414    14959.649     4509.931        8.351        1.997      356.420       70.620        0.039      342.871       18.580      855.724
06/23/2013  15:50:00     -388.832     -168.261      -12.963      215.362      149.386       86.005    46380.766    22316.074     7396.886       12.787        3.805      423.677      101.261        0.057      342.890       18.614      855.649
06/23/2013  15:51:00     -316.918     -164.821        2.719      207.633      135.677       69.957    43111.609    18408.236     4894.040        9.700        3.321      357.215       87.181        0.060      342.907       18.642      855.613
06/23/2013  15:52:00     -330.147     -122.862       -5.587      169.728      122.610       73.912    28807.499    15033.256     5462.918        8.670        2.465      352.268       82.910        0.055      342.951       18.718      855.565
06/23/2013  15:53:00     -363.571      -73.659      -12.655      171.112       95.213       67.254    29279.259     9065.530     4523.083        9.031        2.143      370.957       81.017        0.048      342.975       18.757      855.548
06/23/2013  15:54:00     -238.112      -20.438       -2.810      148.700      125.566       65.756    22111.546    15766.880     4323.908        4.965        2.110      238.988       63.252        0.070      343.021       18.836      855.517
06/23/2013  15:55:00     -296.274       11.482       -4.815      111.327       99.715       64.530    12393.798     9943.007     4164.148        5.721        1.325      296.497       62.060        0.044      343.041       18.870      855.475
06/23/2013  15:56:00     -362.708      -60.085      -12.836      196.719      110.245       66.449    38698.414    12154.024     4415.505        9.529        2.763      367.651       75.783        0.042      343.035       18.860      855.439
06/23/2013  15:57:00     -485.833     -180.091      -36.577      155.611      148.690       79.776    24214.685    22108.701     6364.248       16.124        2.634      518.137       70.958        0.019      343.028       18.848      855.383
06/23/2013  15:58:00     -417.833     -113.172       -8.772      190.697      163.563       84.876    36365.458    26752.856     7203.885       12.888        3.516      432.888       83.078        0.037      343.104       18.978      855.349
06/23/2013  15:59:00     -472.969     -167.627      -31.194      135.043      150.086       78.295    18236.643    22525.774     6130.157       14.982        2.345      501.796       68.037        0.018      343.105       18.978      855.316
06/23/2013  16:00:00     -365.141     -135.793       -3.032      201.819      128.357       71.097    40731.068    16475.499     5054.813       10.701        3.113      389.574       84.700        0.047      343.190       19.123      855.355
06/23/2013  16:01:00     -239.210      -68.540       -0.850      152.419      116.331       70.820    23231.599    13533.011     5015.420        5.184        2.089      248.836       83.277        0.112      343.300       19.312      855.353
06/23/2013  16:02:00     -236.964      -97.149       -0.347      157.600      125.120       73.079    24837.830    15655.082     5340.541        5.570        2.292      256.105       82.995        0.105      343.404       19.489      855.343
06/23/2013  16:03:00     -286.492      -50.991        2.402      171.938      132.276       79.083    29562.508    17496.822     6254.175        6.899        2.666      290.995       69.437        0.057      343.420       19.515      855.319
06/23/2013  16:04:00     -425.760      -53.171      -18.072      217.739      172.155       79.190    47410.440    29637.375     6271.062       13.386        4.166      429.067       88.043        0.042      343.427       19.526      855.307
06/23/2013  16:05:00     -399.425     -161.589      -11.670      180.619      229.610       84.401    32623.216    52720.739     7123.581       13.911        4.623      430.873       73.055        0.029      343.555       19.745      855.254
06/23/2013  16:06:00     -235.562      -56.457        3.649      146.817      134.330       75.164    21555.207    18044.543     5649.587        5.196        2.262      242.233       67.623        0.078      343.794       20.153      855.250
06/23/2013  16:07:00     -302.218     -112.774      -10.680      239.247      141.331       83.068    57239.093    19974.522     6900.285        9.412        4.206      322.574       91.008        0.080      343.769       20.111      855.208
06/23/2013  16:08:00     -592.635     -304.845      -23.944      260.776      254.984      105.406    68003.968    65017.060    11110.421       29.440        7.207      666.443       99.573        0.022      343.654       19.914      855.135
06/23/2013  16:09:00     -286.216     -209.952        1.950      233.678      220.489      119.383    54605.467    48615.274    14252.408       12.172        5.874      354.964      127.721        0.129      343.801       20.166      855.134
06/23/2013  16:10:00     -167.170       19.959       10.032      209.843      114.378       77.962    44034.146    13082.222     6078.079        4.581        3.160      168.357       85.333        0.257      344.096       20.672      855.136
06/23/2013  16:11:00     -401.530     -154.453      -12.944      214.280      212.124       81.461    45916.099    44996.497     6635.908       14.138        4.877      430.212      100.045        0.054      343.967       20.449      855.141
06/23/2013  16:12:00     -452.247     -243.143       -9.495      247.994      206.139      104.441    61500.777    42493.460    10908.004       18.930        5.745      513.464      121.904        0.056      343.782       20.133      855.124
06/23/2013  16:13:00     -433.688     -244.890      -15.716      279.816      272.935      125.939    78296.794    74493.656    15860.545       20.844        8.433      498.052      144.509        0.084      343.976       20.464      855.062
06/23/2013  16:14:00     -421.044     -109.387      -11.098      176.068      194.714      102.677    31000.037    37913.372    10542.523       13.440        3.973      435.021       93.947        0.047      344.092       20.663      855.127
06/23/2013  16:15:00     -354.519     -102.856        1.087      240.055      170.258       97.517    57626.598    28987.900     9509.499       11.618        4.806      369.138      109.928        0.089      344.154       20.768      855.180
06/23/2013  16:16:00     -268.930     -123.648       -1.548      203.912      219.814       85.048    41580.130    48318.240     7233.137        9.235        4.857      295.994      102.269        0.119      344.214       20.872      855.161
06/23/2013  16:17:00     -519.281     -331.365      -18.665      218.738      212.998      123.384    47846.146    45368.317    15223.691       24.410        5.422      615.999      126.567        0.042      343.971       20.456      855.092
06/23/2013  16:18:00     -410.707     -214.132       -3.003      240.152      197.594      102.531    57673.149    39043.486    10512.707       16.086        5.361      463.176      131.862        0.081      344.135       20.735      855.036
06/23/2013  16:19:00     -432.633     -121.235       -3.985      235.599      157.753       95.611    55506.699    24886.083     9141.485       14.569        4.477      449.299      112.095        0.062      344.120       20.711      855.056
06/23/2013  16:20:00     -368.833     -276.852        7.745      293.648      219.259      111.310    86229.213    48074.607    12390.015       17.969        7.335      461.178      132.499        0.083      344.237       20.911      855.040
06/23/2013  16:21:00     -531.649      -56.967      -16.110      253.584      229.711       96.740    64305.031    52767.118     9358.689       20.627        6.322      534.693      106.379        0.040      344.183       20.817      855.079
06/23/2013  16:22:00     -469.214        4.695      -21.313      202.802      155.589       84.600    41128.598    24207.906     7157.137       14.655        3.625      469.237       80.854        0.030      344.204       20.853      855.079
06/23/2013  16:23:00     -479.719     -258.545      -21.778      237.565      213.177      103.097    56437.266    45444.600    10628.904       20.496        5.626      544.954      111.947        0.042      344.180       20.813      855.089
06/23/2013  16:24:00     -393.044     -245.198        4.075      246.465      247.820      116.597    60745.016    61414.853    13594.922       17.516        6.788      463.256      128.441        0.077      344.246       20.925      855.048
06/23/2013  16:25:00     -333.990     -236.176        6.352      244.866      170.702      104.079    59959.559    29139.090    10832.342       13.363        4.997      409.058      124.633        0.093      344.246       20.927      855.084
06/23/2013  16:26:00     -378.501     -299.536      -20.626      196.013      195.046      118.415    38421.020    38042.816    14022.178       16.193        4.524      482.685      115.484        0.057      343.913       20.358      855.083
06/23/2013  16:27:00     -318.912     -180.132       -2.579      168.679      168.474       85.706    28452.628    28383.507     7345.573        9.916        3.209      366.269       86.945        0.056      344.138       20.741      855.061
06/23/2013  16:28:00     -452.949      -67.599      -11.799      180.003      157.321       86.888    32401.040    24749.747     7549.457       13.727        3.235      457.966       88.761        0.038      344.058       20.605      855.015
06/23/2013  16:29:00     -280.591      -87.370        7.433      200.652      159.392       83.428    40261.051    25405.964     6960.263        7.951        3.631      293.879       94.986        0.104      344.453       21.280      855.053
06/23/2013  16:30:00     -304.810     -101.758       11.603      215.316      168.492       96.896    46360.850    28389.461     9388.879        9.375        4.207      321.347      114.552        0.127      344.600       21.530      855.007
06/23/2013  16:31:00     -525.346     -275.370      -14.759      316.025      284.570      119.239    99871.796    80980.100    14217.946       27.351        9.753      593.142      150.030        0.064      344.334       21.076      855.019
06/23/2013  16:32:00     -331.209     -191.807        6.141      244.482      212.205      111.034    59771.679    45030.894    12328.628       13.181        5.857      382.739      113.428        0.088      344.340       21.087      854.983
06/23/2013  16:33:00     -439.602     -309.984       -2.471      292.789      203.615      114.343    85725.277    41458.976    13074.400       21.478        7.013      537.904      135.138        0.063      344.379       21.152      854.983
06/23/2013  16:34:00     -329.884     -230.173        8.781      186.479      154.908       89.183    34774.522    23996.418     7953.545       11.429        3.336      402.248       93.397        0.054      344.453       21.279      855.020
06/23/2013  16:35:00     -520.976     -273.066       -9.845      226.639      169.919       98.123    51365.223    28872.307     9628.130       21.795        4.493      588.202      103.269        0.031      344.124       20.715      854.995
06/23/2013  16:36:00     -123.266     -261.025       33.003      206.408      194.445       95.804    42604.465    37808.693     9178.424        8.699        4.480      288.667      100.032        0.120      344.301       21.021      854.966
06/23/2013  16:37:00     -287.303     -131.190        7.284      160.381      184.890       89.631    25721.947    34184.191     8033.631        8.386        3.397      315.838       95.624        0.092      344.277       20.978      854.914
06/23/2013  16:38:00     -410.040     -122.327       13.336      266.719      215.477      117.905    71138.821    46430.233    13901.483       15.735        6.574      427.898      137.201        0.103      344.412       21.209      854.916
06/23/2013  16:39:00     -572.312     -198.948      -20.743      318.297      274.394      114.349   101313.246    75291.933    13075.789       27.858        9.484      605.905      133.783        0.049      344.260       20.949      854.876
06/23/2013  16:40:00     -484.995     -131.513      -18.154      308.929      292.065      126.458    95437.373    85302.057    15991.690       22.475        9.837      502.509      146.964        0.086      344.364       21.127      854.814
06/23/2013  16:41:00     -430.490     -150.268       -9.744      268.479      181.106      100.586    72080.784    32799.389    10117.631       16.147        5.750      455.962      127.341        0.078      344.488       21.339      854.759
06/23/2013  16:42:00     -515.561     -106.134       -8.069      382.986      230.508      126.468   146678.392    53134.162    15994.110       24.643       10.790      526.372      165.512        0.099      344.485       21.335      854.761
06/23/2013  16:43:00     -248.512     -170.699        0.757      186.671      189.912       83.109    34845.957    36066.498     6907.153        8.434        3.891      301.491       89.629        0.088      344.717       21.730      854.779
06/23/2013  16:44:00     -417.268     -294.359        0.113      263.683      201.471      116.690    69528.500    40590.664    13616.559       19.222        6.187      510.647      132.315        0.067      344.384       21.162      854.761
06/23/2013  16:45:00     -276.398     -205.165        4.289      250.320      171.243       96.684    62660.084    29324.131     9347.872       10.990        5.067      344.222      110.511        0.103      344.442       21.261      854.742
06/23/2013  16:46:00     -430.651     -277.931      -26.771      194.327      141.375       81.998    37762.984    19986.911     6723.753       16.394        3.224      512.549       86.423        0.028      344.287       20.995      854.754
06/23/2013  16:47:00     -305.621     -201.129       -9.167      187.962      150.808       86.360    35329.795    22743.144     7458.128        9.972        3.277      365.864      100.211        0.075      344.263       20.954      854.688
06/23/2013  16:48:00     -576.047     -167.730      -13.462      237.550      160.634       99.339    56429.839    25803.372     9868.203       22.611        4.605      599.970      108.126        0.032      344.358       21.118      854.621
06/23/2013  16:49:00     -422.746     -341.071       13.305      360.899      275.013      145.539   130247.891    75632.342    21181.564       26.110       11.353      543.179      191.353        0.124      344.236       20.907      854.620
06/23/2013  16:50:00     -500.951     -113.051      -25.137      203.230      233.979       95.741    41302.512    54746.168     9166.413       18.477        5.261      513.549      105.126        0.042      344.418       21.220      854.664
06/23/2013  16:51:00     -619.782     -173.643      -41.501      304.542      210.376      102.747    92745.754    44258.070    10557.001       28.175        7.378      643.647      125.241        0.038      344.222       20.884      854.611
06/23/2013  16:52:00     -371.127     -136.121        4.975      286.382      202.052       97.552    82014.674    40825.177     9516.335       14.430        6.618      395.303      116.689        0.087      344.444       21.263      854.592
06/23/2013  16:53:00     -617.328     -202.656       -1.568      299.284      240.522      126.583    89570.813    57850.958    16023.310       29.277        8.172      649.741      138.655        0.046      344.379       21.153      854.580
06/23/2013  16:54:00     -634.681     -147.445      -28.021      347.298      195.191      112.344   120615.911    38099.580    12621.114       29.831        8.567      651.583      146.165        0.050      344.390       21.170      854.628
06/23/2013  16:55:00     -675.038        3.829      -57.218      282.585      190.599       98.742    79854.489    36327.876     9750.052       29.242        6.297      675.049      117.647        0.030      344.179       20.810      854.586
06/23/2013  16:56:00     -410.365      -77.235       -7.939      205.486      163.690       97.857    42224.430    26794.313     9575.997       12.650        3.930      417.570      104.518        0.063      344.464       21.300      854.592
06/23/2013  16:57:00     -317.879     -162.053       13.820      262.078      184.063      124.659    68684.754    33879.341    15539.839       12.278        5.905      356.803      137.882        0.149      344.546       21.437      854.619
06/23/2013  16:58:00     -243.410      -35.444       36.970      190.610      146.043       91.071    36332.108    21328.445     8293.930        6.390        3.298      245.977       94.438        0.147      344.494       21.349      854.557
06/23/2013  16:59:00     -467.574     -199.776      -16.485      249.408      169.280       95.017    62204.327    28655.783     9028.178       17.933        4.994      508.465      119.271        0.055      344.545       21.436      854.537
06/23/2013  17:00:00     -342.825     -158.984        5.871      234.125      179.349      104.862    54814.536    32165.978    10996.024       12.039        4.899      377.895      102.579        0.074      344.557       21.457      854.607
06/23/2013  17:01:00     -211.829     -151.049       -6.002      154.274      137.688       64.461    23800.417    18958.059     4155.285        5.731        2.346      260.168       67.146        0.067      344.494       21.351      854.578
06/23/2013  17:02:00     -395.043     -144.564      -24.344      171.878      170.209       80.777    29541.980    28971.037     6524.905       12.128        3.252      420.664       78.971        0.035      344.490       21.341      854.577
06/23/2013  17:03:00     -421.870     -197.901       20.956      317.759      218.222      126.484   100970.724    47620.650    15998.176       19.105        8.229      465.982      169.843        0.133      344.483       21.330      854.570
06/23/2013  17:04:00     -498.406     -224.960      -10.055      271.577      172.742       93.238    73754.061    29839.659     8693.238       20.568        5.614      546.823      100.707        0.034      344.387       21.167      854.580
06/23/2013  17:05:00     -549.486     -191.195      -34.007      185.033      176.323       90.804    34237.218    31089.806     8245.296       20.660        3.679      581.799       90.398        0.024      344.380       21.154      854.579
06/23/2013  17:06:00     -409.240     -112.793       -3.239      208.049      211.174      104.732    43284.415    44594.320    10968.775       13.951        4.942      424.500      109.981        0.067      344.594       21.521      854.559
06/23/2013  17:07:00     -436.092     -134.588      -27.085      196.814      180.576       81.505    38735.769    32607.689     6643.093       14.349        3.899      456.388       76.126        0.028      344.429       21.239      854.550
06/23/2013  17:08:00     -439.382     -212.890       -1.908      246.233      207.207      118.931    60630.751    42934.837    14144.564       17.802        5.886      488.240      127.572        0.068      344.369       21.134      854.478
06/23/2013  17:09:00     -497.046     -253.588       -9.483      331.767      218.103      110.543   110069.458    47569.099    12219.765       24.062        8.493      557.998      159.077        0.081      344.262       20.952      854.483
06/23/2013  17:10:00     -500.711     -189.255       -8.654      263.509      201.277       94.433    69436.947    40512.445     8917.641       20.271        5.943      535.284      111.791        0.044      344.183       20.818      854.494
06/23/2013  17:11:00     -413.653     -159.814       -1.537      182.239      188.338       99.219    33211.211    35471.250     9844.410       13.757        3.926      443.451       98.369        0.049      344.101       20.679      854.509
06/23/2013  17:12:00     -281.193     -116.605       -4.010      132.297      138.646       69.478    17502.397    19222.813     4827.195        6.711        2.078      304.411       70.306        0.053      344.238       20.912      854.508
06/23/2013  17:13:00     -348.981     -199.123      -12.556      267.112      219.730      102.780    71348.740    48281.367    10563.651       14.587        6.510      401.793      115.115        0.082      344.146       20.755      854.515
06/23/2013  17:14:00     -489.384     -316.965       -5.093      281.380      200.635      129.542    79174.635    40254.358    16781.129       23.807        6.811      583.064      151.289        0.067      343.900       20.333      854.495
06/23/2013  17:15:00     -215.102     -106.306       27.030      174.545      122.803       79.245    30465.956    15080.558     6279.728        5.505        2.591      239.937       86.468        0.130      344.098       20.673      854.514
06/23/2013  17:16:00     -250.902      -63.043       -8.146      184.541      116.033       69.779    34055.533    13463.701     4869.040        5.968        2.619      258.701       82.703        0.102      343.952       20.424      854.521
06/23/2013  17:17:00     -185.476     -138.142        3.259      168.337      150.582       73.244    28337.336    22674.888     5364.668        5.493        2.819      231.268       78.882        0.116      344.130       20.729      854.483
06/23/2013  17:18:00     -331.409     -152.147       -8.543      198.095      125.677       92.697    39241.549    15794.648     8592.794        9.833        3.181      364.665      101.502        0.077      344.075       20.634      854.484
06/23/2013  17:19:00     -288.386     -129.135        0.461      201.259      141.706       93.771    40505.268    20080.670     8793.093        8.460        3.469      315.978      109.871        0.121      344.059       20.608      854.492
06/23/2013  17:20:00     -287.728      -99.843        1.624      172.174      143.830       60.338    29643.939    20687.050     3640.706        7.335        2.699      304.558       59.004        0.038      344.143       20.752      854.487
06/23/2013  17:21:00     -506.154     -171.699      -27.593      157.217      206.583       76.424    24717.340    42676.664     5840.623       17.982        3.662      534.483       77.841        0.021      344.036       20.565      854.464
06/23/2013  17:22:00     -239.789      -65.364        6.238      237.930      140.095       81.161    56610.823    19626.501     6587.058        7.230        4.141      248.538      107.330        0.186      344.134       20.735      854.460
06/23/2013  17:23:00     -308.014      -76.888      -11.265      147.052      103.559       66.667    21624.312    10724.488     4444.478        6.884        1.840      317.465       77.431        0.059      344.192       20.833      854.478
06/23/2013  17:24:00     -390.755     -151.851      -12.172      215.889      245.732      103.809    46607.887    60384.212    10776.284       14.681        5.888      419.224      101.862        0.059      344.058       20.604      854.462
06/23/2013  17:25:00     -538.728      -92.187      -17.948      233.308      171.526      103.019    54432.732    29421.250    10612.954       19.674        4.723      546.558      109.402        0.040      344.013       20.527      854.410
06/23/2013  17:26:00     -439.141     -114.557      -20.056      244.504      166.489       94.764    59782.434    27718.562     8980.173       15.141        4.824      453.837      111.492        0.060      344.029       20.555      854.435
06/23/2013  17:27:00     -254.995     -106.041      -19.762      248.805      155.238       78.379    61904.113    24098.894     6143.308        8.438        4.607      276.165       89.017        0.104      344.139       20.744      854.454
06/23/2013  17:28:00     -277.132     -130.526       -2.167      212.010      162.677       90.828    44948.260    26463.911     8249.763        8.674        3.983      306.332      114.559        0.140      344.112       20.696      854.477
06/23/2013  17:29:00     -440.812     -151.697       -8.732      288.460      199.584       95.823    83209.328    39833.591     9181.994       17.479        6.611      466.183      122.123        0.069      344.170       20.796      854.511
06/23/2013  17:30:00     -497.419      -59.482      -29.205      271.464      221.122      113.550    73692.641    48895.020    12893.510       19.362        6.774      500.963      138.879        0.077      344.074       20.631      854.505
06/23/2013  17:31:00     -627.556     -134.894      -60.404      255.605      242.314       99.424    65334.114    58716.280     9885.034       27.478        6.697      641.890      106.128        0.027      343.992       20.491      854.498
06/23/2013  17:32:00     -580.478     -155.378      -38.052      154.547      188.170       83.795    23884.826    35407.901     7021.643       21.442        3.316      600.913       82.616        0.019      343.956       20.429      854.519
06/23/2013  17:33:00     -389.782     -147.565       -9.319      199.936      204.436       99.871    39974.311    41794.220     9974.266       13.275        4.587      416.780      114.176        0.075      344.045       20.584      854.525
06/23/2013  17:34:00     -263.480     -164.954       11.035      229.906      187.767      104.740    52856.788    35256.327    10970.448        9.790        4.954      310.856      116.951        0.142      344.054       20.598      854.522
06/23/2013  17:35:00     -616.044     -239.760      -12.699      244.338      241.721      117.804    59701.149    58429.204    13877.763       28.456        6.600      661.056      129.071        0.038      343.918       20.366      854.504
06/23/2013  17:36:00     -541.385      -28.836      -41.313      166.074      181.693       91.231    27580.594    33012.511     8323.023       18.226        3.446      542.152       84.039        0.024      343.944       20.410      854.479
06/23/2013  17:37:00     -567.540       59.952      -26.030      229.577      164.637       86.135    52705.407    27105.195     7419.188       20.678        4.361      570.697       98.073        0.030      343.996       20.497      854.445
06/23/2013  17:38:00     -470.575     -201.489      -29.248      158.530      165.871       85.708    25131.702    27513.082     7345.908       16.143        3.000      511.897       72.891        0.020      344.084       20.649      854.467
06/23/2013  17:39:00     -351.186     -206.273       -7.378      273.340      182.292      100.980    74714.718    33230.505    10196.997       14.202        5.907      407.284      104.052        0.065      344.029       20.554      854.441
06/23/2013  17:40:00     -376.744     -162.963      -11.625      199.847      151.446      102.405    39938.727    22935.795    10486.738       12.098        3.668      410.479      108.211        0.069      343.993       20.494      854.432
06/23/2013  17:41:00     -264.702     -111.805        4.076      180.676      144.516       77.334    32643.690    20884.753     5980.491        7.103        2.975      287.345       86.073        0.090      344.055       20.601      854.474
06/23/2013  17:42:00     -119.754      -57.100       13.476      139.025       78.893       58.791    19327.823     6224.133     3456.430        2.339        1.450      132.671       64.325        0.235      344.178       20.811      854.457
06/23/2013  17:43:00     -251.358      -86.500       -4.931      147.808       78.886       54.090    21847.130     6223.032     2925.746        5.084        1.550      265.826       55.606        0.044      344.150       20.761      854.447
06/23/2013  17:44:00     -482.090     -166.730        6.705      331.446      224.343      120.730   109856.607    50329.618    14575.624       21.747        8.738      510.108      155.100        0.092      344.193       20.835      854.397
06/23/2013  17:45:00     -512.040     -194.592      -20.394      244.764      219.522      106.664    59909.305    48189.932    11377.292       20.995        5.974      547.769      118.840        0.047      344.238       20.912      854.451
06/23/2013  17:46:00     -291.071     -136.990       20.648      261.852      232.897      100.098    68566.539    54241.063    10019.533       11.835        6.641      321.696      119.476        0.138      344.271       20.968      854.494
06/23/2013  17:47:00     -479.249     -347.824      -10.300      308.988      278.625      135.217    95473.514    77631.803    18283.766       27.104        9.569      592.166      163.065        0.076      344.021       20.541      854.479
06/23/2013  17:48:00     -403.246     -182.067      -22.292      263.047      183.794      105.915    69193.653    33780.248    11217.896       15.520        5.710      442.444      120.578        0.074      344.181       20.815      854.524
06/23/2013  17:49:00     -413.428      -79.022      -33.739      289.001      231.542      114.912    83521.472    53611.521    13204.802       16.429        7.517      420.912      134.367        0.102      344.259       20.948      854.534
06/23/2013  17:50:00     -480.443     -273.001      -40.495      246.628      203.057       96.622    60825.413    41232.294     9335.868       20.917        5.570      552.589      119.805        0.047      344.191       20.831      854.536
06/23/2013  17:51:00     -388.981     -217.159        9.083      223.194      186.577      109.061    49815.380    34811.110    11894.391       14.752        4.826      445.493      116.331        0.068      344.266       20.961      854.603
06/23/2013  17:52:00     -319.875     -235.866       25.976      261.876      187.668      111.577    68579.131    35219.288    12449.498       13.742        5.812      397.433      135.116        0.116      344.220       20.881      854.585
06/23/2013  17:53:00     -263.616     -181.080       18.941      195.948      180.405       93.186    38395.440    32545.852     8683.621        9.112        3.981      319.818      104.354        0.106      344.316       21.046      854.601
06/23/2013  17:54:00     -394.942     -213.729       -0.877      273.327      167.432      101.510    74707.534    28033.642    10304.250       15.733        5.652      449.065      118.638        0.070      344.277       20.978      854.605
06/23/2013  17:55:00     -186.707     -195.526        7.907      176.098      141.102       89.242    31010.659    19909.738     7964.198        6.601        2.944      270.352      107.085        0.157      344.237       20.911      854.616
06/23/2013  17:56:00     -231.682     -197.927       -2.035      139.275      119.387       66.871    19397.528    14253.222     4471.672        6.548        1.906      304.716       68.258        0.050      344.146       20.754      854.610
06/23/2013  17:57:00     -262.674     -121.337        3.786      150.316      134.386       64.567    22594.755    18059.517     4168.855        6.427        2.241      289.345       59.192        0.042      344.286       20.993      854.642
06/23/2013  17:58:00     -309.161     -203.367       -1.229      215.641      171.973      110.188    46500.979    29574.791    12141.357       11.256        4.411      370.052      108.300        0.086      344.155       20.771      854.590
06/23/2013  17:59:00     -425.168      -13.493      -22.117      181.723      144.018       75.040    33023.219    20741.298     5630.968       12.041        2.970      425.382       87.620        0.042      344.154       20.770      854.612
06/23/2013  18:00:00     -450.339      -95.067      -12.716      195.489      225.976       91.019    38215.787    51064.964     8284.418       15.477        4.878      460.264       88.919        0.037      344.158       20.773      854.614
06/23/2013  18:01:00     -435.879      -81.899      -36.660      244.468      180.908       96.565    59764.832    32727.632     9324.809       14.991        5.091      443.506      119.693        0.073      344.172       20.800      854.653
06/23/2013  18:02:00     -440.883     -279.401      -11.132      279.225      174.970      116.876    77966.432    30614.593    13659.894       19.738        6.112      521.960      133.119        0.065      344.066       20.617      854.676
06/23/2013  18:03:00     -489.221     -239.145       -7.569      246.629      189.919       99.989    60825.896    36069.414     9997.770       20.172        5.345      544.543      103.082        0.036      344.045       20.582      854.665
06/23/2013  18:04:00     -406.857     -186.013       -9.437      176.079      197.039      103.121    31003.818    38824.213    10634.007       14.033        4.023      447.363       96.186        0.046      343.989       20.485      854.677
06/23/2013  18:05:00     -330.044     -266.879       20.882      260.738      202.526      122.279    67984.135    41016.925    14952.202       15.225        6.198      424.445      145.588        0.118      344.019       20.536      854.695
06/23/2013  18:06:00     -418.137     -140.210      -16.812      226.458      190.625       94.024    51283.091    36337.735     8840.505       14.560        4.823      441.019      100.988        0.052      344.041       20.575      854.709
06/23/2013  18:07:00     -379.080      -56.572       -2.840      225.788      170.483       87.079    50980.257    29064.446     7582.670       11.725        4.381      383.278      103.523        0.073      344.069       20.624      854.727
06/23/2013  18:08:00     -368.045     -139.985       -3.307      222.170      149.344       86.239    49359.666    22303.644     7437.241       11.707        3.955      393.767      107.778        0.075      344.014       20.529      854.724
06/23/2013  18:09:00     -246.076     -192.065       17.171      144.784      124.877       68.684    20962.348    15594.214     4717.432        6.950        2.064      312.158       78.000        0.062      343.983       20.477      854.751
06/23/2013  18:10:00     -241.111     -123.004        0.775      137.213       89.659       62.126    18827.374     8038.774     3859.603        5.199        1.536      270.674       69.023        0.065      344.017       20.533      854.750
06/23/2013  18:11:00     -206.543      -82.092        6.261      101.975       89.820       60.965    10398.869     8067.604     3716.704        3.581        1.109      222.259       63.356        0.081      344.087       20.653      854.791
06/23/2013  18:12:00     -299.911      -59.962      -17.875      169.198      109.252       63.174    28627.884    11936.056     3990.993        6.920        2.228      305.846       71.699        0.055      344.082       20.647      854.795
06/23/2013  18:13:00     -304.613     -225.732       -9.803      157.739      156.244       70.919    24881.552    24412.213     5029.552        9.907        2.716      379.135       67.331        0.032      344.012       20.526      854.798
06/23/2013  18:14:00     -393.054     -207.803      -17.601      129.152      108.878       67.596    16680.288    11854.400     4569.233       11.554        1.655      444.605       63.491        0.020      343.990       20.489      854.799
06/23/2013  18:15:00     -189.169     -169.821       -0.441      145.867      122.958       72.918    21277.179    15118.578     5317.057        5.316        2.086      254.212       64.732        0.065      344.065       20.618      854.798
06/23/2013  18:16:00     -265.575     -199.187      -11.584      152.094      100.002       60.751    23132.720    10000.392     3690.631        7.357        1.841      331.972       65.245        0.039      343.954       20.426      854.803
06/23/2013  18:17:00     -158.755     -198.246       -6.234      128.205      112.806       69.135    16436.606    12725.194     4779.710        4.924        1.697      253.977       70.298        0.077      344.030       20.556      854.811
06/23/2013  18:18:00     -262.514      -19.368      -21.577      215.020       90.645       64.870    46233.448     8216.486     4208.071        6.419        2.933      263.228       80.636        0.094      344.089       20.658      854.804
06/23/2013  18:19:00     -414.856     -115.626       -6.779      154.733      169.646       77.267    23942.202    28779.745     5970.246       12.210        2.935      430.668       76.788        0.032      343.934       20.391      854.761
06/23/2013  18:20:00     -196.181      -74.702        9.825      203.083      171.114       78.891    41242.525    29280.169     6223.829        6.044        3.837      209.922       86.107        0.168      343.974       20.462      854.770
06/23/2013  18:21:00     -404.163      -80.462      -23.223      130.040      156.932       68.772    16910.291    24627.625     4729.595       10.831        2.313      412.095       52.353        0.016      343.910       20.350      854.719
06/23/2013  18:22:00     -310.567     -124.904      -18.998      143.407      111.345       60.085    20565.709    12397.618     3610.174        7.449        1.829      334.743       68.081        0.041      344.021       20.540      854.739
06/23/2013  18:23:00     -204.604     -100.234       11.267      198.079      108.603       72.641    39235.134    11794.616     5276.784        5.416        2.815      227.837      103.649        0.207      344.106       20.688      854.726
06/23/2013  18:24:00     -208.300      -30.972       -2.634      162.929      116.575       72.398    26545.840    13589.646     5241.432        4.486        2.269      210.590       86.612        0.169      344.212       20.867      854.714
06/23/2013  18:25:00     -207.968      -55.347        2.819       86.733      101.281       44.694     7522.657    10257.814     1997.596        3.305        0.989      215.207       43.910        0.042      344.204       20.854      854.674
06/23/2013  18:26:00     -202.731     -128.874      -16.275      102.944       87.752       47.101    10597.451     7700.381     2218.516        3.924        1.026      240.226       49.599        0.043      344.148       20.758      854.670
06/23/2013  18:27:00     -204.029     -226.369        9.528      205.282      173.531       91.371    42140.594    30112.838     8348.728        8.677        4.030      304.747      110.783        0.132      344.210       20.866      854.678
06/23/2013  18:28:00     -343.647     -222.901       -5.552      195.598      156.688       77.796    38258.613    24551.259     6052.217       11.832        3.443      409.607       89.873        0.048      344.122       20.714      854.671
06/23/2013  18:29:00     -455.051     -103.825      -15.084      195.096      189.471       97.803    38062.539    35899.151     9565.333       15.079        4.176      466.745       80.719        0.030      344.041       20.576      854.653
06/23/2013  18:30:00     -368.338     -194.767      -18.883      205.125      150.473       90.284    42076.254    22642.096     8151.236       12.340        3.643      416.662       90.023        0.047      344.003       20.511      854.650
06/23/2013  18:31:00     -248.591     -165.076      -11.865      129.490      111.656       64.367    16767.676    12467.055     4143.082        6.128        1.669      298.409       55.459        0.035      344.051       20.592      854.609
06/23/2013  18:32:00     -383.836     -175.794       -7.188      227.520      155.803       88.377    51765.402    24274.700     7810.576       13.105        4.193      422.178      104.007        0.061      344.039       20.571      854.612
06/23/2013  18:33:00     -403.947      -91.104       -9.063      237.841      133.232       82.509    56568.248    17750.757     6807.770       12.633        4.056      414.093       95.886        0.054      344.094       20.666      854.623
06/23/2013  18:34:00     -395.273      -60.914        8.346      206.637      131.428       93.039    42698.930    17273.326     8656.259       11.431        3.431      399.939      109.553        0.075      344.065       20.616      854.610
06/23/2013  18:35:00     -505.530     -214.990      -27.574      242.733      184.604       98.376    58919.195    34078.638     9677.872       20.259        5.134      549.346      113.739        0.043      344.079       20.639      854.653
06/23/2013  18:36:00     -193.183     -117.892       11.369      136.100      137.821       63.472    18523.179    18994.514     4028.742        4.644        2.077      226.314       60.025        0.070      344.186       20.823      854.672
06/23/2013  18:37:00     -326.186      -23.627      -10.831      184.921      109.819       59.709    34195.685    12060.296     3565.121        7.844        2.491      327.041       70.819        0.047      344.120       20.710      854.659
06/23/2013  18:38:00     -594.266     -159.861      -30.933      256.957      185.990      101.722    66026.812    34592.122    10347.330       24.529        5.548      615.392      116.748        0.036      343.929       20.383      854.603
06/23/2013  18:39:00     -412.310      -71.469      -23.913      195.804      140.088       81.077    38339.346    19624.599     6573.467       12.010        3.227      418.458       86.017        0.042      343.982       20.474      854.630
06/23/2013  18:40:00     -364.867      -63.350      -13.007      157.583      140.498       70.127    24832.552    19739.627     4917.794        9.339        2.474      370.326       76.311        0.042      343.933       20.390      854.649
06/23/2013  18:41:00     -398.399      -80.515       -4.273      244.339      168.312       98.200    59701.467    28328.919     9643.200       13.143        4.884      406.453      107.030        0.069      343.924       20.375      854.654
06/23/2013  18:42:00     -482.589     -112.711      -16.337      169.761      135.651       80.325    28818.686    18401.095     6452.165       14.976        2.684      495.576       89.461        0.033      343.808       20.176      854.646
06/23/2013  18:43:00     -392.241      -75.053      -37.602      159.839      114.914       71.322    25548.578    13205.229     5086.805       10.236        2.192      399.357       57.874        0.021      343.773       20.117      854.611
06/23/2013  18:44:00     -259.324     -108.146       -2.455      148.354      122.177       59.589    22008.833    14927.100     3550.819        5.971        2.024      280.970       67.024        0.057      343.833       20.221      854.611
06/23/2013  18:45:00     -331.940     -213.024      -16.448      194.817      147.854       72.661    37953.701    21860.837     5279.687       11.045        3.255      394.416       90.750        0.053      343.787       20.143      854.592
06/23/2013  18:46:00     -328.727     -181.166        1.152      238.070      169.017       77.697    56677.338    28566.614     6036.894       11.606        4.564      375.343       84.318        0.050      343.759       20.093      854.562
06/23/2013  18:47:00     -323.429     -177.352       -9.537      144.295      122.762       69.571    20820.928    15070.519     4840.160        8.843        2.037      368.863       77.613        0.044      343.790       20.146      854.604
06/23/2013  18:48:00     -495.879     -211.916      -25.451      179.884      181.527       93.174    32358.388    32952.077     8681.385       18.271        3.700      539.263       90.372        0.028      343.762       20.098      854.631
06/23/2013  18:49:00     -403.235     -163.862        2.931      177.873      162.556       79.803    31638.677    26424.531     6368.538       12.693        3.222      435.258       87.130        0.040      343.741       20.061      854.665
06/23/2013  18:50:00     -278.722     -106.155      -14.927      153.205       85.436       59.203    23471.762     7299.365     3505.038        6.172        1.714      298.253       59.412        0.040      343.791       20.148      854.724
06/23/2013  18:51:00     -352.922     -185.083      -21.270      123.543      107.598       61.851    15262.864    11577.264     3825.556        9.496        1.533      398.510       45.032        0.013      343.763       20.100      854.727
06/23/2013  18:52:00     -194.258     -100.110       25.709      191.806      150.529       92.225    36789.389    22659.043     8505.509        5.817        3.398      218.536      109.952        0.253      343.801       20.164      854.737
06/23/2013  18:53:00     -398.955     -166.134      -11.110      189.282      175.829       87.001    35827.576    30915.797     7569.257       13.059        3.716      432.164       94.124        0.047      343.739       20.059      854.716
06/23/2013  18:54:00     -329.893      -54.721      -10.662      208.440      148.830       81.569    43447.426    22150.413     6653.451        9.208        3.613      334.401       88.199        0.070      343.724       20.034      854.727
06/23/2013  18:55:00     -187.015      -38.784       19.606      145.942      122.022       61.943    21298.982    14889.371     3836.956        3.844        2.001      190.994       65.945        0.119      343.723       20.034      854.711
06/23/2013  18:56:00     -328.378     -122.542        6.273      219.586      143.538       78.397    48217.876    20603.301     6146.159        9.891        3.748      350.498       87.102        0.062      343.664       19.928      854.685
06/23/2013  18:57:00     -475.535     -342.951      -22.581      189.576      149.577       91.655    35939.104    22373.220     8400.629       20.547        3.336      586.301      100.353        0.029      343.574       19.778      854.679
06/23/2013  18:58:00     -390.592     -225.781      -16.549      180.415      167.393       93.394    32549.549    28020.583     8722.380       13.654        3.465      451.154      102.770        0.052      343.594       19.812      854.640
06/23/2013  18:59:00     -329.370      -57.226      -19.531      149.304      129.226       71.898    22291.823    16699.292     5169.260        7.814        2.208      334.305       59.503        0.032      343.642       19.892      854.662
06/23/2013  19:00:00     -514.835     -250.739      -30.112      184.706      142.874       80.222    34116.364    20413.018     6435.545       19.489        3.048      572.648       90.568        0.025      343.622       19.859      854.700
06/23/2013  19:01:00     -179.130      -70.134       28.714      151.231      124.142       85.619    22870.719    15411.346     7330.628        4.171        2.281      192.371       89.196        0.215      343.649       19.907      854.719
06/23/2013  19:02:00     -319.741      -35.744       -0.990      196.575      136.041       87.126    38641.829    18507.230     7590.885        8.411        3.237      321.733       90.957        0.080      343.619       19.855      854.725
06/23/2013  19:03:00     -284.069     -113.645       -7.524      139.472      119.138       66.218    19452.485    14193.888     4384.877        6.584        1.902      305.958       61.580        0.041      343.586       19.798      854.762
06/23/2013  19:04:00     -361.176     -111.194      -14.332      131.989      124.402       65.367    17421.151    15475.805     4272.851        9.009        1.858      377.905       67.525        0.032      343.565       19.764      854.750
06/23/2013  19:05:00     -322.068      -37.996       -8.815      226.645      145.821       89.728    51367.865    21263.769     8051.032        9.295        4.034      324.302       99.648        0.094      343.584       19.796      854.730
06/23/2013  19:06:00     -451.595     -278.488      -14.946      221.993      198.053       95.427    49280.746    39224.894     9106.332       18.965        4.881      530.560      114.232        0.046      343.611       19.843      854.732
06/23/2013  19:07:00     -359.400     -149.403       -4.930      146.875      129.517       80.716    21572.130    16774.742     6515.048        9.818        2.243      389.217       72.393        0.035      343.589       19.803      854.785
06/23/2013  19:08:00     -331.008     -278.376        2.914      211.999      185.982       89.433    44943.385    34589.373     7998.323       13.728        4.377      432.504      108.300        0.063      343.568       19.768      854.778
06/23/2013  19:09:00     -337.293     -157.329      -14.758      137.745      144.230       75.788    18973.774    20802.331     5743.818        9.212        2.276      372.181       68.076        0.033      343.597       19.818      854.774
06/23/2013  19:10:00     -359.491     -104.397       -3.589      135.849      127.579       74.878    18455.000    16276.523     5606.726        9.023        2.017      374.343       69.285        0.034      343.607       19.833      854.806
06/23/2013  19:11:00     -287.229     -115.724       -7.770      167.439      132.156       70.194    28035.768    17465.142     4927.167        7.318        2.521      309.666       66.820        0.047      343.663       19.928      854.830
06/23/2013  19:12:00     -361.504      -64.136      -10.578      162.833      132.366       74.337    26514.497    17520.831     5525.966        9.223        2.478      367.150       85.861        0.055      343.657       19.919      854.845
06/23/2013  19:13:00     -326.686      -24.238      -13.978      178.112       81.967       67.805    31723.959     6718.535     4597.560        7.527        2.152      327.584       79.856        0.059      343.713       20.014      854.880
06/23/2013  19:14:00     -226.415     -116.549        5.743      150.712      117.142       67.334    22714.096    13722.166     4533.844        5.292        2.049      254.651       64.188        0.064      343.702       19.997      854.885
06/23/2013  19:15:00     -259.875     -159.915      -11.119      121.167      108.716       69.131    14681.536    11819.105     4779.067        6.225        1.564      305.136       64.630        0.045      343.721       20.028      854.873
06/23/2013  19:16:00     -384.335     -119.754      -17.151      215.567      188.466       82.309    46469.143    35519.563     6774.788       12.554        4.438      402.560       85.458        0.045      343.709       20.008      854.834
06/23/2013  19:17:00     -502.282      -65.361      -25.533      218.662      138.400       75.350    47813.273    19154.643     5677.603       16.491        3.632      506.517       94.874        0.035      343.642       19.895      854.848
06/23/2013  19:18:00     -307.072      -19.935        7.126      184.195      137.861       85.605    33927.843    19005.699     7328.214        7.749        3.013      307.719      100.347        0.106      343.697       19.989      854.836
06/23/2013  19:19:00     -151.348     -143.760        4.061      130.984      126.938       72.230    17156.769    16113.304     5217.219        4.103        1.924      208.742       77.648        0.138      343.755       20.088      854.821
06/23/2013  19:20:00     -423.677      -89.928      -24.302      214.945      158.965       76.801    46201.407    25269.971     5898.457       13.276        3.868      433.116       96.759        0.050      343.767       20.107      854.823
06/23/2013  19:21:00     -401.653     -148.263      -14.510      170.774      149.398       71.353    29163.599    22319.728     5091.290       12.003        2.829      428.143       75.529        0.031      343.770       20.111      854.845
06/23/2013  19:22:00     -444.137      -17.194      -36.677      133.072      143.479       70.747    17708.266    20586.362     5005.177       12.109        2.165      444.469       62.810        0.020      343.690       19.976      854.825
06/23/2013  19:23:00     -264.067     -126.070        3.478      153.846      125.457       78.470    23668.594    15739.402     6157.572        6.559        2.278      292.617       86.425        0.087      343.815       20.189      854.792
06/23/2013  19:24:00     -330.093     -202.013      -15.380      169.687      135.772       82.201    28793.679    18433.968     6756.960       10.199        2.699      387.002       66.942        0.030      343.765       20.103      854.812
06/23/2013  19:25:00     -279.101     -191.830       -0.997      173.582      116.470       70.480    30130.623    13565.164     4967.475        8.167        2.433      338.668       82.274        0.059      343.773       20.117      854.806
06/23/2013  19:26:00     -370.442     -176.908       -4.776      180.472      132.435       78.880    32570.304    17539.011     6222.115       11.243        2.817      410.517       94.047        0.052      343.698       19.989      854.753
06/23/2013  19:27:00     -313.316     -238.051        9.206      222.111      166.069      100.871    49333.286    27578.784    10175.032       12.099        4.354      393.491      119.337        0.092      343.707       20.005      854.685
06/23/2013  19:28:00     -375.009     -279.145       -2.343      190.164      163.631      100.609    36162.462    26775.195    10122.080       14.580        3.653      467.497      101.306        0.047      343.697       19.987      854.718
06/23/2013  19:29:00     -280.953     -169.818       -0.461      170.370      122.912       77.428    29025.934    15107.314     5995.158        7.894        2.506      328.288       90.873        0.077      343.734       20.050      854.711
06/23/2013  19:30:00     -570.469     -107.191      -44.912      166.286      132.654       78.216    27650.938    17597.063     6117.802       19.514        2.568      580.452       78.978        0.019      343.618       19.854      854.691
06/23/2013  19:31:00     -290.925      -70.696       -9.190      227.544      133.488       76.272    51776.121    17819.131     5817.459        8.255        3.771      299.391       95.310        0.101      343.716       20.021      854.676
06/23/2013  19:32:00     -302.152     -147.286        7.523      236.787      186.442       89.163    56067.893    34760.799     7950.023       10.589        4.939      336.139      111.753        0.111      343.697       19.989      854.646
06/23/2013  19:33:00     -277.382     -102.011       -4.375      163.635      134.475       74.153    26776.396    18083.460     5498.704        6.885        2.518      295.546       73.402        0.062      343.687       19.970      854.619
06/23/2013  19:34:00     -312.718     -105.453       -8.327      197.205      188.727       90.785    38889.621    35618.038     8241.890        9.585        4.137      330.019      107.175        0.105      343.672       19.945      854.617
06/23/2013  19:35:00     -399.512     -238.724       -9.127      182.243      177.240       80.760    33212.495    31413.908     6522.140       14.390        3.557      465.402       94.325        0.041      343.582       19.792      854.608
06/23/2013  19:36:00     -313.157     -105.702       -4.283      202.021      168.473       81.355    40812.310    28383.008     6618.621        9.252        3.791      330.515       92.157        0.078      343.624       19.862      854.619
06/23/2013  19:37:00     -311.862      -59.817       -6.764      165.270      114.950       83.970    27314.326    13213.502     7050.878        7.422        2.379      317.547       85.956        0.073      343.629       19.872      854.624
06/23/2013  19:38:00     -585.111     -189.345      -24.674      255.364      203.355       92.112    65210.932    41353.100     8484.680       24.691        5.752      614.985      104.034        0.029      343.562       19.756      854.609
06/23/2013  19:39:00     -471.515     -183.984      -32.036      218.954      250.261       95.899    47940.999    62630.587     9196.580       18.846        5.988      506.139       94.328        0.035      343.578       19.786      854.601
06/23/2013  19:40:00     -261.136     -126.702       13.230      209.070      212.681       98.880    43710.058    45233.261     9777.194        9.155        4.936      290.251      116.044        0.160      343.647       19.902      854.601
06/23/2013  19:41:00     -326.339     -190.640        5.276      183.290      229.161       91.094    33595.139    52514.594     8298.051       11.862        4.720      377.943       97.763        0.067      343.613       19.844      854.603
06/23/2013  19:42:00     -382.760     -246.287        8.897      277.712      212.914      118.564    77123.855    45332.192    14057.520       17.185        6.826      455.151      135.985        0.089      343.550       19.738      854.579
06/23/2013  19:43:00     -383.515     -201.148      -20.972      185.522      147.414       86.775    34418.420    21730.926     7529.857       12.582        3.184      433.064       94.893        0.048      343.511       19.669      854.586
06/23/2013  19:44:00     -297.469     -125.003       12.433      206.748      138.238       80.651    42744.748    19109.773     6504.534        8.630        3.418      322.667       85.388        0.070      343.570       19.773      854.585
06/23/2013  19:45:00     -217.895     -129.831        8.458      175.025      159.625       72.126    30633.910    25480.040     5202.174        6.285        3.066      253.642       81.481        0.103      343.595       19.814      854.569
06/23/2013  19:46:00     -151.894     -182.088        4.737      123.927      133.426       65.831    15358.013    17802.565     4333.742        4.686        1.875      237.124       66.386        0.078      343.593       19.811      854.573
06/23/2013  19:47:00     -327.965     -307.091        1.449      215.559      168.870       97.262    46465.692    28517.107     9459.823       14.314        4.222      449.295      109.651        0.060      343.503       19.657      854.541
06/23/2013  19:48:00     -316.507     -259.776       -6.987      181.806      127.245       81.389    33053.483    16191.366     6624.145       11.178        2.793      409.463       77.327        0.036      343.499       19.651      854.541
06/23/2013  19:49:00     -163.630     -193.500        1.238      147.982      149.824       74.016    21898.748    22447.125     5478.442        5.701        2.491      253.411       75.753        0.089      343.525       19.696      854.541
06/23/2013  19:50:00     -153.110     -137.656        7.382      101.116      104.231       59.363    10224.447    10864.082     3524.015        3.352        1.231      205.893       50.153        0.059      343.527       19.698      854.544
06/23/2013  19:51:00     -180.520     -109.545      -15.703      136.864       97.399       71.775    18731.871     9486.582     5151.634        3.910        1.669      211.158       65.357        0.096      343.524       19.694      854.544
06/23/2013  19:52:00     -208.826      -46.091        7.563      161.793      142.617       71.202    26176.850    20339.663     5069.744        4.868        2.579      213.852       83.339        0.152      343.553       19.744      854.554
06/23/2013  19:53:00     -348.680     -184.183      -10.894      139.276      121.707       63.196    19397.740    14812.596     3993.748        9.690        1.910      394.336       62.234        0.025      343.436       19.543      854.583
06/23/2013  19:54:00     -246.521     -228.311      -21.143      141.415      103.637       70.583    19998.319    10740.574     4981.955        7.453        1.786      336.003       76.233        0.051      343.449       19.567      854.600
06/23/2013  19:55:00     -171.981      -77.232        7.804       78.339       80.067       41.997     6137.043     6410.796     1763.713        2.495        0.716      188.526       41.248        0.048      343.501       19.653      854.609
06/23/2013  19:56:00     -193.830     -110.788       -4.117      137.676       91.690       56.582    18954.778     8407.074     3201.539        4.021        1.528      223.258       66.077        0.088      343.466       19.594      854.591
06/23/2013  19:57:00     -372.640     -199.612       -3.512      190.035      184.176       80.068    36113.369    33920.651     6410.915       12.757        3.822      422.736       84.432        0.040      343.371       19.433      854.598
06/23/2013  19:58:00     -340.228     -203.817       -0.930      197.456      157.559       93.741    38988.832    24824.904     8787.344       11.493        3.630      396.606      108.386        0.075      343.383       19.453      854.606
06/23/2013  19:59:00     -332.312     -199.258       -6.006      173.296      201.803       87.365    30031.397    40724.497     7632.569       11.426        3.919      387.473       87.823        0.051      343.379       19.447      854.593
06/23/2013  20:00:00     -312.569     -202.950        3.574      206.261      115.343       85.707    42543.525    13303.914     7345.729       10.103        3.160      372.677       91.758        0.061      343.336       19.371      854.604
06/23/2013  20:01:00     -420.030     -272.045       -4.258      176.246      150.811       80.505    31062.596    22744.021     6480.977       15.536        3.014      500.433       93.142        0.035      343.292       19.297      854.579
06/23/2013  20:02:00     -214.747     -198.956        1.418      173.741      141.267       87.840    30185.975    19956.335     7715.833        7.177        2.893      292.746       99.159        0.115      343.302       19.316      854.584
06/23/2013  20:03:00     -348.545     -232.896      -18.157      166.163      124.720       78.514    27610.180    15554.968     6164.408       11.268        2.466      419.195       86.955        0.043      343.268       19.257      854.563
06/23/2013  20:04:00     -219.470     -115.201        1.058      145.777      120.685       70.265    21250.967    14564.850     4937.205        5.109        2.038      247.867       66.611        0.072      343.293       19.298      854.520
06/23/2013  20:05:00     -205.350     -203.254        7.256      154.161      119.605       77.601    23765.518    14305.406     6021.913        6.380        2.205      288.930       91.465        0.100      343.300       19.312      854.521
06/23/2013  20:06:00     -345.476     -250.428       -7.993      160.362      121.439       77.165    25715.941    14747.386     5954.469       11.427        2.321      426.694       86.072        0.041      343.299       19.309      854.510
06/23/2013  20:07:00     -448.767     -236.175      -20.283      193.808      114.677       88.181    37561.593    13150.867     7775.826       15.802        2.924      507.119       89.360        0.031      343.243       19.213      854.512
06/23/2013  20:08:00     -333.705     -238.364      -23.002      142.434      123.461       66.575    20287.574    15242.573     4432.185       10.433        1.998      410.093       72.784        0.031      343.258       19.238      854.534
06/23/2013  20:09:00     -397.935     -233.787      -12.127      175.950      117.749       65.689    30958.458    13864.765     4315.100       13.114        2.457      461.529       76.713        0.028      343.217       19.171      854.551
06/23/2013  20:10:00     -321.520     -218.549       -4.774      155.789      133.090       72.482    24270.301    17712.903     5253.586        9.919        2.362      388.766       80.082        0.042      343.219       19.173      854.583
06/23/2013  20:11:00     -207.457     -121.464        0.467      101.265       99.211       49.527    10254.694     9842.802     2452.887        4.017        1.128      240.399       42.243        0.031      343.230       19.192      854.576
06/23/2013  20:12:00     -233.390     -135.934      -17.029      128.557       81.301       50.329    16526.963     6609.781     2532.990        4.945        1.283      270.090       61.403        0.052      343.240       19.210      854.570
06/23/2013  20:13:00     -307.890     -162.659       -4.764      179.874      105.344       65.301    32354.773    11097.321     4264.191        8.449        2.386      348.216       72.387        0.043      343.191       19.125      854.557
06/23/2013  20:14:00     -339.857     -159.214      -10.424      192.686      132.074       63.734    37127.789    17443.669     4062.071        9.979        2.932      375.302       84.218        0.050      343.180       19.105      854.563
06/23/2013  20:15:00     -211.503      -45.005       -0.428      145.996       98.699       61.271    21314.918     9741.548     3754.115        4.078        1.741      216.239       64.487        0.089      343.186       19.118      854.579
06/23/2013  20:16:00     -234.027     -101.640        9.898      151.339       98.781       60.135    22903.622     9757.671     3616.206        5.073        1.814      255.145       69.711        0.075      343.178       19.102      854.584
06/23/2013  20:17:00     -191.422     -178.586       16.612      134.119      122.355       60.619    17987.979    14970.828     3674.663        5.272        1.832      261.792       71.843        0.075      343.187       19.118      854.602
06/23/2013  20:18:00     -238.350     -166.278      -13.337      118.210      114.239       58.323    13973.500    13050.454     3401.622        5.753        1.521      290.618       63.449        0.048      343.181       19.107      854.618
06/23/2013  20:19:00     -284.706     -142.376      -10.183      132.982      124.294       66.611    17684.234    15449.042     4437.004        6.949        1.879      318.321       71.008        0.050      343.190       19.123      854.623
06/23/2013  20:20:00     -204.246     -134.921       -1.422      121.493      107.982       63.788    14760.599    11660.050     4068.890        4.520        1.524      244.786       61.909        0.064      343.176       19.099      854.646
06/23/2013  20:21:00     -226.648     -137.234        4.225      122.204      140.122       64.388    14933.790    19634.151     4145.864        5.446        1.936      264.958       73.855        0.078      343.110       18.987      854.646
06/23/2013  20:22:00     -290.395      -46.215      -16.256       81.804       92.938       52.838     6691.834     8637.388     2791.804        5.242        0.906      294.050       41.354        0.020      343.108       18.983      854.640
06/23/2013  20:23:00     -246.319      -26.428       -0.410      108.603       77.224       54.011    11794.566     5963.505     2917.151        4.102        1.034      247.733       56.667        0.052      343.065       18.912      854.660
06/23/2013  20:24:00     -170.833     -113.790      -13.907       91.040       87.590       41.925     8288.279     7671.996     1757.678        3.002        0.886      205.261       43.783        0.045      343.081       18.938      854.664
06/23/2013  20:25:00     -116.094      -25.809       -4.079       70.998       54.871       39.387     5040.750     3010.836     1551.333        1.188        0.480      118.928       37.148        0.098      343.072       18.925      854.672
06/23/2013  20:26:00     -152.103      -12.715      -10.160      100.672       63.493       32.066    10134.934     4031.370     1028.259        1.929        0.760      152.634       25.311        0.027      343.029       18.850      854.660
06/23/2013  20:27:00     -207.376      -49.511        8.429      138.326       81.453       56.923    19134.162     6634.606     3240.183        3.726        1.450      213.204       60.946        0.082      342.998       18.797      854.663
06/23/2013  20:28:00     -279.666       29.937      -14.278      116.075       98.452       57.207    13473.485     9692.885     3272.648        5.287        1.322      281.263       50.348        0.032      342.980       18.765      854.669
06/23/2013  20:29:00     -248.887        6.082      -27.199       86.025       65.325       39.800     7400.215     4267.383     1584.035        3.798        0.663      248.962       29.861        0.014      342.969       18.746      854.677
06/23/2013  20:30:00     -409.790     -141.805      -17.141       74.642       63.583       50.393     5571.477     4042.798     2539.404       10.024        0.608      433.631       43.179        0.010      342.953       18.720      854.686
06/23/2013  20:31:00     -273.842      -49.337      -16.695      148.181      103.995       52.594    21957.733    10814.860     2766.164        5.661        1.777      278.251       69.066        0.062      342.967       18.744      854.683
06/23/2013  20:32:00     -277.528     -112.803       -5.567      106.970      111.676       52.947    11442.513    12471.460     2803.402        5.824        1.336      299.576       44.464        0.022      342.937       18.692      854.707
06/23/2013  20:33:00     -240.339      -96.891       -4.572      101.724       76.831       47.106    10347.859     5902.951     2218.944        4.282        0.923      259.134       57.802        0.050      342.915       18.657      854.714
06/23/2013  20:34:00     -229.338      -45.769       -5.926      104.923       74.816       46.368    11008.899     5597.402     2150.013        3.674        0.938      233.860       45.119        0.037      342.908       18.643      854.729
06/23/2013  20:35:00     -244.031      -26.201      -12.395       74.183       62.801       43.244     5503.155     3943.908     1870.072        3.585        0.566      245.433       42.055        0.029      342.882       18.600      854.723
06/23/2013  20:36:00     -350.820      -54.954      -21.316      103.793       97.518       52.861    10772.891     9509.734     2794.325        7.481        1.154      355.098       45.133        0.016      342.876       18.590      854.712
06/23/2013  20:37:00     -327.280      -34.823       -8.463      104.581       75.032       48.992    10937.116     5629.811     2400.241        6.368        0.948      329.127       47.765        0.021      342.844       18.533      854.710
06/23/2013  20:38:00     -248.397      -23.635        0.657       95.388       77.359       43.771     9098.803     5984.394     1915.878        3.963        0.850      249.518       44.486        0.032      342.841       18.527      854.708
06/23/2013  20:39:00     -214.750      -62.333        0.537      109.760       73.266       51.281    12047.250     5367.955     2629.748        3.502        1.002      223.614       46.194        0.043      342.825       18.502      854.710
06/23/2013  20:40:00     -256.935      -67.429       -8.392      110.424       91.827       47.123    12193.435     8432.113     2220.539        4.673        1.142      265.636       45.955        0.030      342.832       18.514      854.723
06/23/2013  20:41:00     -363.792      -24.474      -14.940      170.493      123.545       69.586    29067.848    15263.397     4842.188        9.116        2.459      364.614       84.793        0.054      342.844       18.536      854.709
06/23/2013  20:42:00     -226.685        5.160        4.040      137.207       99.534       56.636    18825.639     9907.068     3207.600        4.168        1.597      226.744       54.742        0.058      342.848       18.540      854.700
06/23/2013  20:43:00     -218.955      -77.893       -1.157      124.243       95.542       57.216    15436.267     9128.211     3273.699        4.092        1.392      232.398       62.059        0.071      342.848       18.542      854.715
06/23/2013  20:44:00     -323.735      -36.597      -15.251      147.567      104.393       66.985    21775.938    10897.834     4486.952        7.176        1.858      325.797       69.162        0.045      342.844       18.535      854.719
06/23/2013  20:45:00     -199.658      -48.495        9.038       93.228      120.890       51.804     8691.549    14614.432     2683.671        3.414        1.299      205.463       43.962        0.046      342.826       18.505      854.717
06/23/2013  20:46:00     -155.205      -69.030        1.439       92.658       70.713       51.239     8585.425     5000.385     2625.428        2.253        0.811      169.864       51.297        0.091      342.808       18.475      854.721
06/23/2013  20:47:00     -101.278      -24.546        6.835       63.054       55.966       38.960     3975.826     3132.161     1517.904        0.976        0.431      104.210       29.056        0.078      342.787       18.439      854.724
06/23/2013  20:48:00     -235.651      -19.561       -9.637      106.074      110.933       45.281    11251.704    12306.095     2050.336        4.080        1.280      236.461       41.637        0.031      342.774       18.415      854.722
06/23/2013  20:49:00     -198.414      -66.754        3.250      117.794      111.530       50.620    13875.383    12438.964     2562.376        3.635        1.444      209.342       56.482        0.073      342.787       18.436      854.711
06/23/2013  20:50:00     -265.069      -18.403       -6.967       93.195       80.330       43.173     8685.326     6452.920     1863.934        4.382        0.850      265.708       41.923        0.025      342.734       18.347      854.740
06/23/2013  20:51:00     -336.920      -92.267       -9.109      102.655       71.412       46.483    10538.143     5099.634     2160.678        6.995        0.890      349.325       47.351        0.018      342.689       18.271      854.752
06/23/2013  20:52:00     -282.542      -65.846        1.588       97.104       76.597       45.351     9429.267     5867.071     2056.679        5.076        0.868      290.113       48.531        0.028      342.683       18.260      854.777
06/23/2013  20:53:00     -301.405      -68.296        0.508       98.473       99.825       57.284     9697.006     9964.942     3281.455        5.922        1.147      309.046       54.479        0.031      342.646       18.197      854.780
06/23/2013  20:54:00     -245.899      -91.700       -7.306       89.964       88.796       44.122     8093.433     7884.754     1946.745        4.342        0.896      262.441       38.791        0.022      342.638       18.186      854.787
06/23/2013  20:55:00     -147.208      -35.890       14.942      137.267      114.592       66.576    18842.173    13131.221     4432.297        2.979        1.820      151.520       79.235        0.273      342.619       18.154      854.792
06/23/2013  20:56:00     -236.814      -29.968       -9.109      118.320       98.391       64.219    13999.641     9680.862     4124.042        4.243        1.390      238.702       52.588        0.049      342.611       18.139      854.788
06/23/2013  20:57:00     -146.617        3.932        6.928       77.595      120.933       58.665     6020.990    14624.903     3441.607        2.282        1.204      146.670       50.101        0.117      342.628       18.168      854.777
06/23/2013  20:58:00     -254.628      -55.843      -10.124      113.292       96.359       49.683    12835.035     9285.087     2468.445        4.632        1.229      260.680       51.831        0.040      342.604       18.127      854.791
06/23/2013  20:59:00     -319.240        4.197      -29.021      113.144       79.147       49.078    12801.677     6264.324     2408.626        6.212        1.074      319.267       51.534        0.026      342.575       18.076      854.786
06/23/2013  21:00:00     -244.680      -88.021      -12.061       93.030       79.673       50.823     8654.516     6347.804     2583.028        4.267        0.879      260.031       43.992        0.029      342.526       17.994      854.777
06/23/2013  21:01:00     -254.128      -55.626        6.118      159.714      100.635       60.757    25508.501    10127.445     3691.354        5.351        1.966      260.144       75.857        0.085      342.511       17.968      854.779
06/23/2013  21:02:00     -304.920      -29.526      -13.735      141.416       75.700       59.602    19998.548     5730.554     3552.434        6.165        1.464      306.347       67.820        0.049      342.519       17.983      854.774
06/23/2013  21:03:00     -426.598      -69.029      -21.002      124.214      100.113       58.171    15429.086    10022.562     3383.874       10.801        1.442      432.147       68.588        0.025      342.495       17.942      854.775
06/23/2013  21:04:00     -407.708      -19.397      -13.371      132.119       89.720       56.951    17455.523     8049.718     3243.390        9.776        1.437      408.169       67.297        0.027      342.507       17.963      854.781
06/23/2013  21:05:00     -273.309      -97.216       -5.497      108.297       68.251       42.215    11728.238     4658.239     1782.088        5.117        0.908      290.084       46.150        0.025      342.453       17.869      854.812
06/23/2013  21:06:00     -348.933      -52.210      -18.154      112.797       98.023       44.156    12723.127     9608.605     1949.769        7.454        1.214      352.817       46.877        0.018      342.424       17.823      854.832
06/23/2013  21:07:00     -480.426      -50.638      -43.746      136.897      101.275       65.226    18740.854    10256.568     4254.458       13.426        1.663      483.087       69.518        0.021      342.437       17.841      854.831
06/23/2013  21:08:00     -210.798      -50.171       -2.930      122.544      116.314       57.772    15017.045    13528.960     3337.649        3.942        1.594      216.686       57.176        0.070      342.393       17.767      854.850
06/23/2013  21:09:00     -291.443      -67.872      -14.092      109.299       93.184       58.593    11946.212     8683.284     3433.181        5.690        1.203      299.242       58.994        0.039      342.408       17.794      854.861
06/23/2013  21:10:00     -288.254     -110.483      -17.706      110.257       97.377       54.442    12156.599     9482.354     2963.900        6.010        1.230      308.702       40.135        0.017      342.390       17.764      854.873
06/23/2013  21:11:00     -206.952      -80.937       -0.635      114.078       80.282       52.839    13013.771     6445.248     2791.908        3.581        1.113      222.216       38.775        0.030      342.364       17.717      854.879
06/23/2013  21:12:00     -314.124      -62.807       -8.669      146.365      131.914       60.566    21422.837    17401.208     3668.263        7.258        2.125      320.341       74.186        0.054      342.365       17.719      854.883
06/23/2013  21:13:00     -195.328      -55.638        3.389      127.014      106.533       56.351    16132.675    11349.225     3175.381        3.595        1.533      203.097       61.353        0.091      342.347       17.691      854.888
06/23/2013  21:14:00     -297.426      -19.705      -13.574      141.503       97.419       62.284    20023.015     9490.502     3879.275        6.121        1.670      298.078       67.385        0.051      342.375       17.738      854.913
06/23/2013  21:15:00     -353.576      -47.203      -17.871      151.121       82.950       62.389    22837.414     6880.622     3892.382        8.058        1.681      356.713       72.581        0.041      342.367       17.724      854.914
06/23/2013  21:16:00     -419.048     -147.736       -1.171      148.245       83.167       62.310    21976.634     6916.726     3882.520       11.510        1.639      444.328       59.254        0.018      342.384       17.752      854.892
06/23/2013  21:17:00     -205.914      -82.989        0.269       95.512       70.255       48.006     9122.510     4935.770     2304.528        3.282        0.818      222.008       45.892        0.043      342.366       17.721      854.891
06/23/2013  21:18:00     -365.970      -40.228      -31.901      116.255      115.195       46.708    13515.212    13269.860     2181.646        8.276        1.448      368.175       42.194        0.013      342.332       17.664      854.884
06/23/2013  21:19:00     -334.620      -25.329      -20.327      124.047      116.757       64.860    15387.620    13632.270     4206.778        7.312        1.661      335.578       65.614        0.038      342.315       17.634      854.903
06/23/2013  21:20:00     -252.294     -123.677       -9.419      143.333      103.305       60.205    20544.291    10671.977     3624.594        5.693        1.742      280.978       63.423        0.051      342.329       17.658      854.910
06/23/2013  21:21:00     -225.216      -66.075       -1.989      152.566       99.039       60.796    23276.299     9808.777     3696.188        4.593        1.839      234.709       74.491        0.101      342.304       17.616      854.911
06/23/2013  21:22:00     -374.714      -42.370      -24.743      160.674      147.040       59.122    25816.217    21620.688     3495.392        9.687        2.547      377.102       66.999        0.032      342.295       17.602      854.939
06/23/2013  21:23:00     -301.660      -86.172      -18.778      142.533       83.727       53.879    20315.565     7010.266     2902.929        6.450        1.511      313.726       64.481        0.042      342.273       17.564      854.957
06/23/2013  21:24:00     -315.918      -71.249      -11.329      165.706       98.020       59.676    27458.521     9607.960     3561.207        7.281        2.031      323.853       60.023        0.034      342.250       17.528      854.959
06/23/2013  21:25:00     -222.942      -85.503       -2.109      136.106       82.510       53.734    18524.932     6807.824     2887.302        4.261        1.411      238.776       61.999        0.067      342.245       17.517      854.950
06/23/2013  21:26:00     -178.373      -43.460        1.102       96.420       76.998       44.727     9296.826     5928.660     2000.467        2.546        0.861      183.591       45.397        0.061      342.241       17.511      854.937
06/23/2013  21:27:00     -334.214     -108.245      -22.473      127.806       93.402       58.575    16334.274     8723.853     3431.088        7.620        1.424      351.306       54.112        0.024      342.236       17.500      854.913
06/23/2013  21:28:00     -277.021      -62.213       -2.127       91.048       71.299       49.524     8289.742     5083.604     2452.656        4.822        0.791      283.921       48.969        0.030      342.201       17.442      854.922
06/23/2013  21:29:00     -240.211      -32.065      -23.145       82.194       89.132       42.074     6755.775     7944.591     1770.196        3.786        0.824      242.342       36.073        0.022      342.209       17.455      854.915
06/23/2013  21:30:00     -411.148       68.936      -39.275      168.469       91.665       48.832    28381.933     8402.480     2384.523       10.725        1.958      416.887       65.570        0.025      342.226       17.484      854.898
06/23/2013  21:31:00     -304.178      -29.987      -18.226      109.062       80.939       58.019    11894.534     6551.046     3366.213        5.778        1.091      305.652       58.991        0.037      342.194       17.430      854.880
06/23/2013  21:32:00     -298.967      -48.565      -10.941      112.990      103.131       55.143    12766.764    10635.967     3040.715        5.915        1.322      302.885       51.005        0.028      342.172       17.394      854.854
06/23/2013  21:33:00     -224.173     -130.316       -8.180       84.512       77.316       42.569     7142.339     5977.731     1812.144        4.111        0.747      259.299       32.994        0.016      342.163       17.377      854.835
06/23/2013  21:34:00     -426.568      -36.105      -42.205      125.398      100.075       58.571    15724.542    10015.070     3430.534       10.710        1.459      428.093       51.093        0.014      342.132       17.326      854.836
06/23/2013  21:35:00     -436.620      -26.996      -34.827      119.400       95.950       63.606    14256.406     9206.436     4045.707       11.004        1.375      437.454       64.306        0.022      342.120       17.306      854.844
06/23/2013  21:36:00     -359.233     -120.194       -3.260      114.236       93.557       59.298    13049.750     8752.828     3516.218        8.441        1.266      378.807       62.702        0.027      342.103       17.277      854.864
06/23/2013  21:37:00     -309.994      -73.894      -18.119      108.557      100.798       54.381    11784.609    10160.190     2957.278        6.339        1.245      318.679       56.048        0.031      342.115       17.297      854.901
06/23/2013  21:38:00     -247.269      -94.222      -11.860       94.984       77.055       45.826     9021.866     5937.452     2100.026        4.361        0.853      264.613       39.177        0.022      342.106       17.282      854.925
06/23/2013  21:39:00     -222.613      -64.782      -11.683       73.345       66.494       43.445     5379.468     4421.483     1887.470        3.279        0.584      231.847       30.808        0.018      342.103       17.274      854.933
06/23/2013  21:40:00     -278.553      -56.469      -18.871       89.603       69.395       44.549     8028.693     4815.676     1984.584        4.798        0.741      284.219       40.023        0.020      342.072       17.220      854.951
06/23/2013  21:41:00     -262.179      -35.213      -19.055       84.577       79.803       42.431     7153.199     6368.517     1800.388        4.283        0.766      264.533       39.094        0.022      342.053       17.189      854.973
06/23/2013  21:42:00     -241.141      -68.330      -35.828       54.329       80.279       33.280     2951.596     6444.682     1107.571        3.730        0.525      250.636       20.878        0.007      342.062       17.205      854.960
06/23/2013  21:43:00     -390.183      -24.876      -26.679      145.588       97.486       65.571    21195.873     9503.548     4299.515        9.428        1.750      390.975       57.339        0.022      342.063       17.207      854.953
06/23/2013  21:44:00     -326.561      -27.596      -23.681      107.176       94.104       49.034    11486.795     8855.593     2404.351        6.535        1.137      327.725       53.148        0.026      342.070       17.218      854.936
06/23/2013  21:45:00     -287.376      -20.089      -19.007      116.057       76.738       51.122    13469.217     5888.718     2613.465        5.266        1.099      288.077       51.774        0.032      342.008       17.113      854.943
06/23/2013  21:46:00     -240.483      -82.521      -13.164      136.857       85.671       53.825    18729.745     7339.566     2897.176        4.689        1.448      254.247       66.584        0.069      341.992       17.086      854.970
06/23/2013  21:47:00     -315.844      -42.636      -16.477       96.200       79.283       52.054     9254.406     6285.829     2709.580        6.004        0.912      318.709       54.207        0.029      342.013       17.122      854.988
06/23/2013  21:48:00     -380.036      -68.703      -22.970      174.778       93.815       65.561    30547.454     8801.317     4298.234        9.665        2.182      386.196       80.710        0.044      342.036       17.162      854.993
06/23/2013  21:49:00     -260.885     -116.269       -1.406      141.961       94.941       57.549    20152.985     9013.754     3311.841        5.702        1.624      285.622       58.943        0.043      342.037       17.164      854.957
06/23/2013  21:50:00     -261.318     -106.898       -5.679      107.436       96.540       51.927    11542.413     9320.020     2696.462        5.165        1.178      282.337       44.893        0.025      342.019       17.134      854.956
06/23/2013  21:51:00     -221.577     -101.554      -15.058      105.463       98.665       56.919    11122.419     9734.844     3239.800        4.186        1.205      243.741       50.050        0.042      342.007       17.114      854.949
06/23/2013  21:52:00     -229.577      -75.640       -7.767      108.921      100.380       58.174    11863.687    10076.172     3384.213        4.190        1.266      241.717       51.688        0.046      342.012       17.121      854.925
06/23/2013  21:53:00     -217.670      -64.035       -6.025       87.956       82.491       49.966     7736.333     6804.767     2496.552        3.427        0.852      226.894       53.706        0.056      341.993       17.087      854.903
06/23/2013  21:54:00     -377.239       -4.196      -33.932      183.972       94.701       69.079    33845.535     8968.349     4771.947        9.552        2.379      377.262       92.904        0.061      342.005       17.110      854.903
06/23/2013  21:55:00     -385.622     -107.550      -16.005      129.168      114.362       64.111    16684.416    13078.711     4110.162        9.719        1.694      400.339       63.806        0.025      342.051       17.188      854.890
06/23/2013  21:56:00     -419.646      -57.314      -28.877      168.610       99.608       68.346    28429.287     9921.721     4671.222       11.161        2.151      423.542       79.707        0.035      342.058       17.198      854.899
06/23/2013  21:57:00     -426.956      -18.550      -54.622      117.480      103.962       67.512    13801.438    10808.184     4557.841       10.739        1.458      427.359       60.430        0.020      342.060       17.201      854.928
06/23/2013  21:58:00     -302.950      -63.118      -13.248      127.270      120.788       70.016    16197.632    14589.799     4902.221        6.581        1.784      309.456       61.826        0.040      342.045       17.177      854.914
06/23/2013  21:59:00     -298.241      -59.252      -23.781       92.453       94.169       46.359     8547.549     8867.844     2149.183        5.629        0.978      304.070       45.761        0.023      342.045       17.177      854.905
06/23/2013  22:00:00     -307.963      -26.952      -31.123      139.584       91.063       53.530    19483.675     8292.483     2865.433        6.358        1.532      309.140       52.316        0.029      342.030       17.151      854.914
06/23/2013  22:01:00     -410.131      -62.716      -21.493      128.884      111.818       65.375    16611.016    12503.356     4273.906       10.299        1.669      414.899       71.606        0.030      342.010       17.117      854.951
06/23/2013  22:02:00     -300.925      -62.021      -11.660      131.396      131.268       50.162    17264.988    17231.370     2516.269        6.577        1.851      307.250       32.536        0.011      341.970       17.047      854.962
06/23/2013  22:03:00     -293.820      -41.448      -30.072      129.057      133.543       55.610    16655.750    17833.784     3092.452        6.326        1.879      296.729       57.706        0.038      341.972       17.053      854.964
06/23/2013  22:04:00     -333.202      -89.921      -21.965      103.087       75.163       48.783    10627.018     5649.490     2379.783        6.912        0.933      345.122       44.654        0.017      341.954       17.021      854.943
06/23/2013  22:05:00     -346.612        5.470      -28.527      107.405      110.838       58.313    11535.853    12285.141     3400.425        7.410        1.361      346.655       54.262        0.025      341.980       17.064      854.933
06/23/2013  22:06:00     -324.162       32.024      -18.043      105.972      101.816       53.688    11230.150    10366.513     2882.382        6.545        1.224      325.740       31.235        0.009      341.996       17.093      854.930
06/23/2013  22:07:00     -219.693       30.416      -20.673      100.691       85.819       42.186    10138.632     7364.818     1779.646        3.445        0.964      221.789       38.621        0.030      341.936       16.992      854.889
06/23/2013  22:08:00     -366.368       54.090      -21.325      105.429      108.974       56.728    11115.214    11875.260     3218.119        8.190        1.310      370.340       52.954        0.020      341.940       16.998      854.833
06/23/2013  22:09:00     -269.004      -37.864      -19.881       77.477       90.248       52.613     6002.673     8144.631     2768.155        4.555        0.846      271.656       43.151        0.025      341.922       16.966      854.777
06/23/2013  22:10:00     -357.004     -102.429      -16.135      198.122      132.604       74.182    39252.447    17583.764     5502.941       10.026        3.117      371.407       69.983        0.036      341.920       16.965      854.722
06/23/2013  22:11:00     -455.957      -88.183      -22.717      129.847      138.289       69.883    16860.202    19123.710     4883.701       12.852        2.043      464.406       68.396        0.022      341.935       16.990      854.762
06/23/2013  22:12:00     -341.505      -63.197      -37.627      121.451       86.653       55.908    14750.436     7508.762     3125.659        7.370        1.269      347.303       51.598        0.022      341.936       16.992      854.719
06/23/2013  22:13:00     -374.723      -25.084      -20.684      142.658      122.834       70.284    20351.311    15088.157     4939.802        9.092        2.019      375.562       71.266        0.036      341.912       16.951      854.696
06/23/2013  22:14:00     -380.448      -72.991      -19.916      155.823       98.408       68.743    24280.850     9684.138     4725.624        9.457        1.935      387.386       67.082        0.030      341.904       16.936      854.728
06/23/2013  22:15:00     -274.306      -71.347      -10.019      117.073      101.876       47.486    13706.204    10378.683     2254.909        5.338        1.317      283.432       41.595        0.022      341.883       16.902      854.763
06/23/2013  22:16:00     -385.522       24.551       -8.137      189.285      149.948       77.462    35828.883    22484.264     6000.382       10.679        3.216      386.303       90.119        0.054      341.941       16.998      854.764
06/23/2013  22:17:00     -244.458     -178.199       -6.471      171.707      128.166       88.051    29483.242    16426.612     7752.903        7.260        2.683      302.514       96.770        0.102      342.059       17.201      854.771
06/23/2013  22:18:00     -279.585     -152.709       -1.521      146.393      118.919       69.853    21431.006    14141.815     4879.457        7.096        2.023      318.571       80.479        0.064      342.068       17.214      854.770
06/23/2013  22:19:00     -196.615      -26.139      -11.047       98.536      115.275       55.363     9709.315    13288.397     3065.107        3.276        1.303      198.345       40.109        0.041      342.078       17.234      854.771
06/23/2013  22:20:00     -105.099      -29.842       22.246      109.193       65.616       43.798    11923.059     4305.488     1918.245        1.529        0.907      109.254       48.025        0.193      342.000       17.102      854.784
06/23/2013  22:21:00     -233.107      -31.584      -12.799      115.010       96.884       57.690    13227.376     9386.528     3328.137        4.072        1.297      235.237       65.654        0.078      342.013       17.123      854.763
06/23/2013  22:22:00     -204.691      -11.927        1.497      131.038      117.599       60.341    17170.875    13829.477     3641.076        3.834        1.732      205.039       61.571        0.090      341.988       17.080      854.764
06/23/2013  22:23:00     -140.410      -94.788       13.652      136.194      120.636       54.326    18548.796    14552.938     2951.342        3.246        1.803      169.410       62.026        0.134      342.030       17.151      854.796
06/23/2013  22:24:00     -206.279     -122.391        7.538      143.011      124.632       64.801    20452.175    15533.194     4199.119        4.888        2.009      239.855       75.409        0.099      342.026       17.145      854.817
06/23/2013  22:25:00     -236.602     -145.982       -8.703      119.416       88.170       56.639    14260.135     7773.982     3208.020        5.130        1.262      278.014       54.998        0.039      342.041       17.169      854.838
06/23/2013  22:26:00     -116.413     -133.053       -3.607       85.357       86.633       48.128     7285.759     7505.205     2316.319        2.418        0.855      176.791       51.190        0.084      342.073       17.226      854.848
06/23/2013  22:27:00      -89.876     -143.773       12.374       89.073       88.982       51.335     7933.993     7917.832     2635.278        2.369        0.924      169.553       46.620        0.076      342.031       17.154      854.845
06/23/2013  22:28:00     -116.872      -98.487        2.005       74.569       56.289       38.461     5560.509     3168.504     1479.271        1.678        0.510      152.836       37.881        0.061      342.030       17.154      854.844
06/23/2013  22:29:00      -93.745     -112.801        8.666       90.534       66.860       45.886     8196.417     4470.303     2105.481        1.818        0.739      146.670       50.058        0.116      342.058       17.201      854.874
06/23/2013  22:30:00     -153.350     -143.226       17.297      117.023      101.894       59.137    13694.318    10382.323     3497.192        3.595        1.379      209.834       58.673        0.078      342.057       17.197      854.880
06/23/2013  22:31:00     -119.842     -124.033        4.552      117.431       91.836       70.494    13789.986     8433.859     4969.452        2.847        1.360      172.471       65.201        0.143      342.143       17.344      854.827
06/23/2013  22:32:00     -192.012     -148.168        7.518      118.360       98.861       53.014    14009.101     9773.412     2810.454        4.273        1.330      242.533       47.019        0.038      342.160       17.370      854.885
06/23/2013  22:33:00     -243.948     -188.967       -6.077      209.949      169.317       90.161    44078.509    28668.332     8128.997        8.805        4.044      308.576       90.025        0.085      342.158       17.368      854.884
06/23/2013  22:34:00     -248.185     -244.540       -4.152      220.879      172.397       94.004    48787.526    29720.876     8836.789       10.436        4.367      348.419      112.258        0.104      342.210       17.457      854.926
06/23/2013  22:35:00     -286.050     -233.309      -32.186      108.701      102.459       65.213    11816.011    10497.747     4252.797        8.192        1.328      369.131       49.167        0.018      342.192       17.427      854.917
06/23/2013  22:36:00     -109.361     -162.774        7.126       98.111      109.356       54.770     9625.847    11958.655     2999.707        3.154        1.229      196.100       60.600        0.095      342.175       17.398      854.880
06/23/2013  22:37:00     -241.695     -188.043      -16.915      112.975      111.964       60.755    12763.256    12535.903     3691.168        6.152        1.450      306.230       48.091        0.025      342.218       17.470      854.852
06/23/2013  22:38:00     -120.748      -84.486       29.576      144.576      149.367       94.381    20902.211    22310.625     8907.822        3.735        2.606      147.370       96.084        0.425      342.151       17.357      854.833
06/23/2013  22:39:00     -282.088     -200.499      -14.014      165.788      116.680       64.018    27485.497    13614.266     4098.364        8.258        2.260      346.083       48.241        0.019      342.229       17.490      854.897
06/23/2013  22:40:00     -244.819     -224.095        8.961      140.512      130.473       75.490    19743.636    17023.108     5698.693        7.634        2.123      331.896       80.757        0.059      342.345       17.686      854.922
06/23/2013  22:41:00      -79.546     -198.904       44.012      167.365      146.710       96.099    28010.975    21523.701     9235.010        5.329        2.938      214.220      114.599        0.286      342.337       17.674      854.924
06/23/2013  22:42:00     -178.510       11.225       25.661      138.231      110.971       63.317    19107.708    12314.546     4008.980        3.403        1.772      178.862       66.030        0.136      342.270       17.560      854.947
06/23/2013  22:43:00     -298.736      -27.151      -10.014      197.960      104.853       54.164    39188.124    10994.178     2933.716        7.159        2.656      299.967       63.784        0.045      342.303       17.616      854.959
06/23/2013  22:44:00      -57.594       14.927       49.338       99.702       55.695       55.187     9940.519     3101.899     3045.581        1.103        0.804       59.497       64.807        1.186      342.238       17.507      854.969
06/23/2013  22:45:00      -39.312       -1.007       14.235       66.549       59.033       33.244     4428.759     3484.951     1105.187        0.538        0.451       39.324       36.892        0.880      342.255       17.535      855.003
06/23/2013  22:46:00      -34.438       77.478        2.065       45.868       52.771       31.628     2103.860     2784.829     1000.343        0.654        0.294       84.787       29.165        0.118      342.280       17.579      855.030
06/23/2013  22:47:00       -0.891        5.149        6.696       27.739       29.600       16.337      769.447      876.161      266.911        0.099        0.096        5.226       10.607        4.120      342.186       17.421      855.064
06/23/2013  22:48:00      -39.447     -110.410      -12.570       34.042       45.678       21.115     1158.835     2086.496      445.864        0.880        0.185      117.245       18.642        0.025      342.302       17.614      855.091
06/23/2013  22:49:00       16.029      -48.213      -14.672       42.277       38.223       25.209     1787.314     1461.011      635.500        0.334        0.194       50.808       11.632        0.052      342.270       17.562      855.116
06/23/2013  22:50:00       39.238      -63.671       11.237       36.933       63.308       40.639     1364.030     4007.959     1651.547        0.637        0.351       74.790       37.933        0.257      342.266       17.554      855.122
06/23/2013  22:51:00      -29.272      -99.433        2.231       80.949       70.010       46.532     6552.793     4901.454     2165.254        1.218        0.681      103.652       35.104        0.115      342.227       17.488      855.116
06/23/2013  22:52:00     -142.886     -110.505       -6.686       86.809       76.816       36.574     7535.729     5900.687     1337.652        2.372        0.739      180.632       25.166        0.019      342.144       17.346      855.130
06/23/2013  22:53:00     -198.872     -187.656       -1.675      143.061      124.824       68.176    20466.449    15580.922     4647.967        5.772        2.035      273.431       76.610        0.079      342.136       17.333      855.098
06/23/2013  22:54:00     -226.463      -73.164      -11.949      121.847       68.074       61.744    14846.744     4634.090     3812.360        4.003        1.165      237.988       65.448        0.076      342.098       17.268      855.070
06/23/2013  22:55:00     -155.561      -50.582      -13.411       87.848       67.210       39.038     7717.279     4517.226     1523.951        2.035        0.688      163.578       25.994        0.025      342.080       17.236      855.068
06/23/2013  22:56:00     -218.478      -27.080       -8.514       77.109       54.031       42.634     5945.741     2919.374     1817.662        2.961        0.534      220.150       41.103        0.035      342.050       17.185      855.067
06/23/2013  22:57:00     -326.218     -139.706      -10.978      111.628       88.150       59.607    12460.719     7770.401     3552.958        7.492        1.189      354.874       53.041        0.022      342.059       17.200      855.082
06/23/2013  22:58:00     -251.691      -10.607       -6.961       99.655       66.612       47.603     9931.025     4437.120     2266.063        4.007        0.832      251.915       53.653        0.045      342.016       17.128      855.088
06/23/2013  22:59:00     -248.721      -51.264      -14.319       86.780       52.134       40.538     7530.733     2718.003     1643.368        3.829        0.595      253.949       40.211        0.025      342.012       17.122      855.096
06/23/2013  23:00:00     -208.729      -35.023      -16.457       65.329       68.924       34.147     4267.891     4750.560     1166.048        2.762        0.509      211.647       35.738        0.029      342.027       17.147      855.102
06/23/2013  23:01:00     -208.411        9.345      -18.133       53.130       47.272       27.520     2822.826     2234.609      757.335        2.483        0.291      208.620       27.654        0.018      342.028       17.149      855.101
06/23/2013  23:02:00     -215.025      -42.690      -19.763       88.413       75.017       40.361     7816.943     5627.612     1628.999        3.176        0.754      219.221       46.177        0.044      341.985       17.076      855.103
06/23/2013  23:03:00     -187.692      -81.580      -12.650       53.391       67.610       29.074     2850.589     4571.100      845.322        2.515        0.413      204.655       26.772        0.017      342.207       17.452      855.118
06/23/2013  23:04:00     -221.726       74.711      -28.987       60.081       42.620       28.907     3609.692     1816.459      835.600        3.092        0.313      233.975       17.930        0.006      342.172       17.392      855.136
06/23/2013  23:05:00      -82.927       40.611      -14.345       55.804       25.168       20.829     3114.084      633.414      433.865        0.646        0.209       92.337       15.196        0.027      342.317       17.640      855.148
06/23/2013  23:06:00      -23.521       28.599       -3.163       20.422       16.956       11.342      417.075      287.510      128.631        0.111        0.042       37.029        5.670        0.023      342.235       17.502      855.151
06/23/2013  23:07:00     -148.871       18.436       -9.612       72.634       24.530       15.224     5275.747      601.723      231.759        1.435        0.305      150.008       21.161        0.020      342.151       17.358      855.150
06/23/2013  23:08:00     -168.406      -61.081        0.746       93.090       67.717       37.873     8665.658     4585.571     1434.350        2.339        0.734      179.141       42.677        0.057      341.985       17.076      855.141
06/23/2013  23:09:00     -303.942       26.669      -24.219       77.365       54.340       34.562     5985.350     2952.827     1194.557        5.190        0.507      305.109       35.087        0.013      341.991       17.084      855.120
06/23/2013  23:10:00     -233.732      -11.764      -14.398       81.983       52.309       40.333     6721.146     2736.243     1626.713        3.303        0.554      234.028       44.035        0.035      342.010       17.118      855.114
06/23/2013  23:11:00     -203.053       -5.718      -22.189       55.911       46.697       26.532     3126.032     2180.597      703.967        2.388        0.301      203.134       21.676        0.011      341.931       16.983      855.122
06/23/2013  23:12:00     -139.903       10.944      -15.731       32.022       45.123       17.420     1025.377     2036.102      303.465        1.165        0.168      140.330        9.271        0.004      341.913       16.954      855.121
06/23/2013  23:13:00     -112.289       16.706      -12.221       40.020       25.363       18.899     1601.569      643.284      357.162        0.782        0.130      113.525       12.349        0.012      341.847       16.844      855.127
06/23/2013  23:14:00     -148.710       22.486      -19.313      103.695       63.793       24.123    10752.629     4069.501      581.938        1.920        0.770      150.400       34.340        0.052      341.800       16.761      855.132
06/23/2013  23:15:00     -103.718      -19.409       13.080       77.691       86.928       41.489     6035.885     7556.499     1721.315        1.331        0.766      105.518       39.310        0.139      341.660       16.527      855.138
06/23/2013  23:16:00     -147.307      -70.739       -1.334       56.563       72.198       35.064     3199.350     5212.582     1229.472        1.817        0.482      163.411       31.436        0.037      341.663       16.532      855.137
06/23/2013  23:17:00     -122.290       15.658       -7.206       59.160       57.541       30.053     3499.919     3310.986      903.207        1.148        0.386      123.288       27.514        0.050      341.638       16.489      855.128
06/23/2013  23:18:00     -133.985       61.519       -7.365       47.164       53.273       34.093     2224.456     2838.017     1162.304        1.401        0.311      147.433       17.861        0.015      341.699       16.593      855.113
06/23/2013  23:19:00     -114.871       49.215       -9.789       48.464       42.217       22.204     2348.788     1782.265      493.010        1.017        0.231      124.970       20.471        0.027      341.724       16.635      855.102
06/23/2013  23:20:00      -66.828       40.582       -8.408       33.528       33.342       21.472     1124.107     1111.688      461.058        0.444        0.135       78.185       15.789        0.041      341.708       16.609      855.079
06/23/2013  23:21:00      -86.022       33.796        0.247       81.828       50.670       33.000     6695.810     2567.408     1088.989        0.945        0.518       92.422       45.213        0.239      341.702       16.597      855.061
06/23/2013  23:22:00      -97.716       24.861      -14.849       46.249       53.523       28.093     2138.938     2864.689      789.238        0.809        0.290      100.829       30.043        0.089      341.739       16.661      855.056
06/23/2013  23:23:00      -57.640       25.480      -12.585       36.041       39.996       25.044     1298.951     1599.682      627.222        0.383        0.176       63.021       15.333        0.059      341.653       16.516      855.056
06/23/2013  23:24:00       20.237      -15.774        6.764       44.269       36.656       26.103     1959.738     1343.661      681.360        0.234        0.199       25.659       28.552        1.238      341.741       16.664      855.052
06/23/2013  23:25:00       50.934       60.413       10.871       31.106       21.281       24.725      967.591      452.868      611.349        0.420        0.102       79.019       23.231        0.086      341.592       16.413      855.035
06/23/2013  23:26:00       57.438       58.132       -7.609       38.492       34.023       21.535     1481.657     1157.571      463.740        0.492        0.155       81.722        9.060        0.012      341.575       16.383      855.024
06/23/2013  23:27:00       37.528      115.941      -14.120       41.191       36.149       26.401     1696.687     1306.741      697.015        0.937        0.185      121.863       20.598        0.029      341.496       16.249      855.027
06/23/2013  23:28:00       66.936       82.114       -3.153       47.924       38.234       34.180     2296.672     1461.833     1168.265        0.808        0.246      105.939       26.658        0.063      341.562       16.360      855.016
06/23/2013  23:29:00      104.847       91.064       29.578       25.146       19.293       25.573      632.318      372.220      653.963        1.091        0.083      138.872       11.429        0.007      341.508       16.268      855.003
06/23/2013  23:30:00        3.824       32.808       54.529       29.196       31.919       21.701      852.380     1018.807      470.933        0.320        0.117       33.030       17.965        0.296      341.481       16.223      855.001
06/23/2013  23:31:00       10.849       18.450       48.045       29.434       35.714       22.946      866.344     1275.480      526.526        0.272        0.133       21.404       23.846        1.241      341.458       16.184      855.008
06/23/2013  23:32:00       33.698       79.923       89.662       43.941       44.265       38.152     1930.825     1959.432     1455.606        1.045        0.267       86.736       33.040        0.145      341.488       16.235      854.990
06/23/2013  23:33:00       94.418       78.983       49.002       50.334       39.758       61.597     2533.516     1580.666     3794.148        1.273        0.395      123.098       35.904        0.085      341.491       16.241      854.963
06/23/2013  23:34:00       47.901       39.849       42.140       41.264       30.480       29.396     1702.714      929.021      864.118        0.458        0.175       62.310       12.220        0.038      341.552       16.343      854.940
06/23/2013  23:35:00       29.715       44.415       46.456       39.250       27.877       24.256     1540.533      777.121      588.350        0.396        0.145       53.439       15.504        0.084      341.553       16.345      854.936
06/23/2013  23:36:00       19.894      -58.993       -3.051       33.685       40.236       26.755     1134.711     1618.952      715.846        0.368        0.173       62.257       26.804        0.185      341.642       16.496      854.942
06/23/2013  23:37:00      -58.633      -46.475       -0.190       42.947       35.299       20.749     1844.435     1245.985      430.508        0.456        0.176       74.818       11.796        0.025      341.647       16.505      854.955
06/23/2013  23:38:00      -26.383      -47.025        9.287       22.860       55.556       20.079      522.572     3086.456      403.147        0.350        0.201       53.920       26.686        0.245      341.658       16.523      854.963
06/23/2013  23:39:00       -7.780      -50.557       -1.269       28.827       42.950       27.490      831.013     1844.724      755.723        0.302        0.172       51.152       23.102        0.204      341.689       16.577      854.954
06/23/2013  23:40:00      -43.655     -127.299       -7.017       38.272       52.280       27.073     1464.760     2733.179      732.951        1.154        0.247      134.576       23.409        0.030      341.660       16.528      854.946
06/23/2013  23:41:00      -80.114     -111.064       -6.821       43.384       48.244       26.664     1882.168     2327.507      710.976        1.186        0.246      136.943       17.675        0.017      341.631       16.479      854.932
06/23/2013  23:42:00      -63.438     -115.680       -6.217       95.851       59.990       35.600     9187.465     3598.808     1267.347        1.575        0.703      131.932       20.428        0.024      341.689       16.575      854.904
06/23/2013  23:43:00      -52.926        6.008       10.864       70.835       44.164       28.828     5017.585     1950.431      831.072        0.538        0.390       53.266       41.373        0.603      341.627       16.473      854.897
06/23/2013  23:44:00      -17.012        4.441        7.726       18.095       18.672       19.612      327.430      348.627      384.629        0.071        0.053       17.582       12.817        0.531      341.568       16.369      854.907
06/23/2013  23:45:00      -39.533       -8.442        6.236       48.031       31.512       21.344     2306.983      992.979      455.557        0.271        0.188       40.424       14.977        0.137      341.534       16.312      854.934
06/23/2013  23:46:00     -149.127     -114.702        0.383       95.009       79.295       32.934     9026.684     6287.717     1084.666        2.589        0.820      188.137       26.895        0.020      341.544       16.329      854.952
06/23/2013  23:47:00      -73.520      -92.092       -1.910       72.534       45.522       36.357     5261.217     2072.276     1321.820        1.127        0.433      117.840       28.221        0.057      341.563       16.361      854.941
06/23/2013  23:48:00      -98.851      -43.874       -3.232       29.647       41.978       21.874      878.969     1762.190      478.468        0.741        0.156      108.150       21.239        0.039      341.526       16.297      854.917
06/23/2013  23:49:00      -82.128      -58.793      -11.100       32.222       40.530       21.168     1038.280     1642.688      448.098        0.673        0.156      101.004       15.568        0.024      341.505       16.263      854.900
06/23/2013  23:50:00      -86.903      -52.994        3.957       63.051       36.838       23.346     3975.385     1357.003      545.037        0.813        0.294      101.787       23.482        0.053      341.432       16.139      854.891
06/23/2013  23:51:00     -220.014      -42.506       -5.213       66.969       60.553       41.657     4484.815     3666.676     1735.303        3.006        0.494      224.083       38.629        0.030      341.427       16.129      854.873
06/23/2013  23:52:00     -123.294        7.525       -2.348       66.977       35.143       26.555     4485.975     1234.999      705.152        1.084        0.321      123.524       32.626        0.070      341.482       16.225      854.828
06/23/2013  23:53:00     -171.237      -65.178        1.747       99.046       65.963       33.385     9810.050     4351.096     1114.572        2.442        0.764      183.222       41.558        0.051      341.528       16.300      854.832
06/23/2013  23:54:00     -107.945     -199.967       -3.221       72.199       56.890       38.878     5212.706     3236.485     1511.482        3.080        0.498      227.243       32.757        0.021      341.772       16.714      854.836
06/23/2013  23:55:00     -156.833      -97.558        1.310      107.549       65.418       43.852    11566.760     4279.550     1923.020        2.594        0.888      184.700       45.201        0.060      341.725       16.634      854.826
06/23/2013  23:56:00     -190.069     -115.801      -11.417       67.591       52.638       29.105     4568.575     2770.716      847.123        2.892        0.409      222.567       29.305        0.017      341.675       16.550      854.828
06/23/2013  23:57:00     -186.240      -82.398       -8.602       92.721       70.037       33.630     8597.267     4905.158     1130.949        2.809        0.732      203.653       36.424        0.032      341.655       16.516      854.827
06/23/2013  23:58:00     -261.267     -118.772       -9.827       96.692       72.898       51.996     9349.424     5314.149     2703.597        4.991        0.868      286.997       54.334        0.036      341.635       16.482      854.840
06/23/2013  23:59:00     -346.943     -130.890      -21.552      113.620       97.031       60.603    12909.516     9415.074     3672.758        8.198        1.300      370.812       57.761        0.024      341.712       16.613      854.847
